Multibeam Report for 2007_Amundsen


Ship Name: Amundsen
Chief Scientist: Hughes Clarke, John
University of New Brunswick
Source Organization: University of New Brunswick (UNB), Ocean Mapping Group
Start Date: 2007-07-29
End Date: 2007-11-06


View ISO Metadata

Visit the full NCEI Bathymetry Viewer


Multibeam Bathymetry

Cruise Details

Project: ArcticNet NCE
Instrument: Kongsberg EM300

Data Quality

Number of Files: 3378
Number of Records: 6489922
BATHYMETRY DATA Quantity Percentage
Number of Beams 876019725 100%
Number of Good Beams 780294433 89.07%
Number of Zero Beams 95725292 10.93%
Number of Flagged Beams 0 0%

Navigation Totals

Total Time: 1574.1705 hours
Total Track Length: 25117.9818 km
Average Speed: 15.956 km/hr (8.6156 knots)

Cruise Bounds

Northern Extent: 76.52755
Southern Extent: 46.83472
Western Extent: -135.31427
Eastern Extent: -55.210663

Limits

Minimum Sonar Depth 1.76 Maximum Sonar Depth 10.69
Minimum Altitude 0 Maximum Altitude 5299.3599
Minimum Depth 0 Maximum Depth 5657.9502

File Information

Full Resolution Bathymetry as collected (raw): 3373

Files File Size Description
0000_20070726_152003_Amundsen.all.mb56.gz 34.78MB Simrad multibeam vendor format
0000_20070729_041930_Amundsen.all.mb56.gz 13.88MB Simrad multibeam vendor format
0000_20070730_031809_Amundsen.all.mb56.gz 5.13MB Simrad multibeam vendor format
0000_20070730_222250_Amundsen.all.mb56.gz 4.37MB Simrad multibeam vendor format
0000_20070802_101323_Amundsen.all.mb56.gz 12.84MB Simrad multibeam vendor format
0000_20070803_141424_Amundsen.all.mb56.gz 10.92MB Simrad multibeam vendor format
0000_20070805_172539_Amundsen.all.mb56.gz 18.89MB Simrad multibeam vendor format
0000_20070808_220240_Amundsen.all.mb56.gz 31.84MB Simrad multibeam vendor format
0000_20070811_134642_Amundsen.all.mb56.gz 28.65MB Simrad multibeam vendor format
0000_20070814_235748_Amundsen.all.mb56.gz 28.58MB Simrad multibeam vendor format
0000_20070818_025250_Amundsen.all.mb56.gz 33.90MB Simrad multibeam vendor format
0000_20070906_201204_Amundsen.all.mb56.gz 18.53MB Simrad multibeam vendor format
0000_20070923_223020_Amundsen.all.mb56.gz 12.83MB Simrad multibeam vendor format
0000_20070929_072035_Amundsen.all.mb56.gz 8.21MB Simrad multibeam vendor format
0000_20071004_014510_Amundsen.all.mb56.gz 8.30MB Simrad multibeam vendor format
0000_20071009_003753_Amundsen.all.mb56.gz 15.22MB Simrad multibeam vendor format
0000_20071014_002834_Amundsen.all.mb56.gz 19.42MB Simrad multibeam vendor format
0000_20071015_210517_Amundsen.all.mb56.gz 27.27MB Simrad multibeam vendor format
0000_20071019_201808_Amundsen.all.mb56.gz 18.09MB Simrad multibeam vendor format
0000_20071024_025129_Amundsen.all.mb56.gz 346.0KB Simrad multibeam vendor format
0000_20071030_011853_Amundsen.all.mb56.gz 14.84MB Simrad multibeam vendor format
0000_20071105_151935_Amundsen.all.mb56.gz 8.97MB Simrad multibeam vendor format
0001_20070726_155015_Amundsen.all.mb56.gz 35.70MB Simrad multibeam vendor format
0001_20070729_044931_Amundsen.all.mb56.gz 14.06MB Simrad multibeam vendor format
0001_20070730_034809_Amundsen.all.mb56.gz 4.64MB Simrad multibeam vendor format
0001_20070730_225250_Amundsen.all.mb56.gz 4.38MB Simrad multibeam vendor format
0001_20070802_104324_Amundsen.all.mb56.gz 13.24MB Simrad multibeam vendor format
0001_20070803_144424_Amundsen.all.mb56.gz 10.72MB Simrad multibeam vendor format
0001_20070805_175540_Amundsen.all.mb56.gz 17.97MB Simrad multibeam vendor format
0001_20070808_223240_Amundsen.all.mb56.gz 23.28MB Simrad multibeam vendor format
0001_20070811_141642_Amundsen.all.mb56.gz 27.53MB Simrad multibeam vendor format
0001_20070815_002749_Amundsen.all.mb56.gz 27.02MB Simrad multibeam vendor format
0001_20070818_032250_Amundsen.all.mb56.gz 29.06MB Simrad multibeam vendor format
0001_20070906_204205_Amundsen.all.mb56.gz 16.80MB Simrad multibeam vendor format
0001_20070923_230020_Amundsen.all.mb56.gz 7.56MB Simrad multibeam vendor format
0001_20070929_075036_Amundsen.all.mb56.gz 7.90MB Simrad multibeam vendor format
0001_20071004_021510_Amundsen.all.mb56.gz 8.35MB Simrad multibeam vendor format
0001_20071009_010753_Amundsen.all.mb56.gz 12.06MB Simrad multibeam vendor format
0001_20071014_005835_Amundsen.all.mb56.gz 20.31MB Simrad multibeam vendor format
0001_20071015_213518_Amundsen.all.mb56.gz 27.35MB Simrad multibeam vendor format
0001_20071019_204809_Amundsen.all.mb56.gz 2.26MB Simrad multibeam vendor format
0001_20071024_025406_Amundsen.all.mb56.gz 0.58MB Simrad multibeam vendor format
0001_20071030_014853_Amundsen.all.mb56.gz 14.51MB Simrad multibeam vendor format
0001_20071105_154935_Amundsen.all.mb56.gz 8.92MB Simrad multibeam vendor format
0002_20070726_162014_Amundsen.all.mb56.gz 34.69MB Simrad multibeam vendor format
0002_20070729_051931_Amundsen.all.mb56.gz 12.78MB Simrad multibeam vendor format
0002_20070730_041809_Amundsen.all.mb56.gz 4.85MB Simrad multibeam vendor format
0002_20070730_232250_Amundsen.all.mb56.gz 4.39MB Simrad multibeam vendor format
0002_20070802_111324_Amundsen.all.mb56.gz 12.84MB Simrad multibeam vendor format
0002_20070803_151424_Amundsen.all.mb56.gz 8.70MB Simrad multibeam vendor format
0002_20070805_182540_Amundsen.all.mb56.gz 16.66MB Simrad multibeam vendor format
0002_20070808_230240_Amundsen.all.mb56.gz 19.51MB Simrad multibeam vendor format
0002_20070811_144642_Amundsen.all.mb56.gz 26.50MB Simrad multibeam vendor format
0002_20070815_005749_Amundsen.all.mb56.gz 26.92MB Simrad multibeam vendor format
0002_20070818_035250_Amundsen.all.mb56.gz 26.17MB Simrad multibeam vendor format
0002_20070906_211204_Amundsen.all.mb56.gz 16.00MB Simrad multibeam vendor format
0002_20070923_233020_Amundsen.all.mb56.gz 6.85MB Simrad multibeam vendor format
0002_20070929_082036_Amundsen.all.mb56.gz 8.22MB Simrad multibeam vendor format
0002_20071004_024510_Amundsen.all.mb56.gz 7.51MB Simrad multibeam vendor format
0002_20071009_013753_Amundsen.all.mb56.gz 14.97MB Simrad multibeam vendor format
0002_20071014_012834_Amundsen.all.mb56.gz 35.62MB Simrad multibeam vendor format
0002_20071015_220518_Amundsen.all.mb56.gz 23.80MB Simrad multibeam vendor format
0002_20071019_205255_Amundsen.all.mb56.gz 2.41MB Simrad multibeam vendor format
0002_20071024_025603_Amundsen.all.mb56.gz 392.8KB Simrad multibeam vendor format
0002_20071030_021853_Amundsen.all.mb56.gz 14.48MB Simrad multibeam vendor format
0002_20071105_161935_Amundsen.all.mb56.gz 8.90MB Simrad multibeam vendor format
0003_20070726_165014_Amundsen.all.mb56.gz 13.46MB Simrad multibeam vendor format
0003_20070729_054931_Amundsen.all.mb56.gz 13.25MB Simrad multibeam vendor format
0003_20070730_044809_Amundsen.all.mb56.gz 4.54MB Simrad multibeam vendor format
0003_20070730_235250_Amundsen.all.mb56.gz 4.59MB Simrad multibeam vendor format
0003_20070802_114324_Amundsen.all.mb56.gz 12.57MB Simrad multibeam vendor format
0003_20070803_154424_Amundsen.all.mb56.gz 9.25MB Simrad multibeam vendor format
0003_20070805_185540_Amundsen.all.mb56.gz 1.73MB Simrad multibeam vendor format
0003_20070808_233240_Amundsen.all.mb56.gz 20.38MB Simrad multibeam vendor format
0003_20070811_151642_Amundsen.all.mb56.gz 25.29MB Simrad multibeam vendor format
0003_20070815_012749_Amundsen.all.mb56.gz 24.52MB Simrad multibeam vendor format
0003_20070818_042250_Amundsen.all.mb56.gz 24.36MB Simrad multibeam vendor format
0003_20070906_214205_Amundsen.all.mb56.gz 15.10MB Simrad multibeam vendor format
0003_20070924_000020_Amundsen.all.mb56.gz 7.72MB Simrad multibeam vendor format
0003_20070929_085035_Amundsen.all.mb56.gz 8.16MB Simrad multibeam vendor format
0003_20071004_031510_Amundsen.all.mb56.gz 7.07MB Simrad multibeam vendor format
0003_20071009_020753_Amundsen.all.mb56.gz 15.46MB Simrad multibeam vendor format
0003_20071014_015834_Amundsen.all.mb56.gz 39.32MB Simrad multibeam vendor format
0003_20071015_224644_Amundsen.all.mb56.gz 22.79MB Simrad multibeam vendor format
0003_20071019_212726_Amundsen.all.mb56.gz 17.03MB Simrad multibeam vendor format
0003_20071024_052158_Amundsen.all.mb56.gz 10.21MB Simrad multibeam vendor format
0003_20071030_024853_Amundsen.all.mb56.gz 16.28MB Simrad multibeam vendor format
0003_20071105_164935_Amundsen.all.mb56.gz 8.98MB Simrad multibeam vendor format
0004_20070726_170332_Amundsen.all.mb56.gz 9.83MB Simrad multibeam vendor format
0004_20070729_061931_Amundsen.all.mb56.gz 14.01MB Simrad multibeam vendor format
0004_20070730_051809_Amundsen.all.mb56.gz 4.10MB Simrad multibeam vendor format
0004_20070731_002250_Amundsen.all.mb56.gz 4.56MB Simrad multibeam vendor format
0004_20070802_121324_Amundsen.all.mb56.gz 12.45MB Simrad multibeam vendor format
0004_20070803_161424_Amundsen.all.mb56.gz 10.19MB Simrad multibeam vendor format
0004_20070805_185822_Amundsen.all.mb56.gz 8.13MB Simrad multibeam vendor format
0004_20070809_000240_Amundsen.all.mb56.gz 18.54MB Simrad multibeam vendor format
0004_20070811_154642_Amundsen.all.mb56.gz 23.83MB Simrad multibeam vendor format
0004_20070815_015749_Amundsen.all.mb56.gz 23.22MB Simrad multibeam vendor format
0004_20070818_045250_Amundsen.all.mb56.gz 23.60MB Simrad multibeam vendor format
0004_20070906_221204_Amundsen.all.mb56.gz 13.20MB Simrad multibeam vendor format
0004_20070924_003020_Amundsen.all.mb56.gz 14.34MB Simrad multibeam vendor format
0004_20070929_092035_Amundsen.all.mb56.gz 8.20MB Simrad multibeam vendor format
0004_20071004_034510_Amundsen.all.mb56.gz 5.96MB Simrad multibeam vendor format
0004_20071009_023753_Amundsen.all.mb56.gz 16.11MB Simrad multibeam vendor format
0004_20071014_022834_Amundsen.all.mb56.gz 33.38MB Simrad multibeam vendor format
0004_20071015_234403_Amundsen.all.mb56.gz 11.21MB Simrad multibeam vendor format
0004_20071019_215727_Amundsen.all.mb56.gz 16.58MB Simrad multibeam vendor format
0004_20071024_055159_Amundsen.all.mb56.gz 2.63MB Simrad multibeam vendor format
0004_20071030_031853_Amundsen.all.mb56.gz 17.51MB Simrad multibeam vendor format
0004_20071105_171935_Amundsen.all.mb56.gz 1.13MB Simrad multibeam vendor format
0005_20070726_171259_Amundsen.all.mb56.gz 6.86MB Simrad multibeam vendor format
0005_20070729_064931_Amundsen.all.mb56.gz 14.32MB Simrad multibeam vendor format
0005_20070730_054557_Amundsen.all.mb56.gz 1.78MB Simrad multibeam vendor format
0005_20070731_005250_Amundsen.all.mb56.gz 4.16MB Simrad multibeam vendor format
0005_20070802_124324_Amundsen.all.mb56.gz 1.89MB Simrad multibeam vendor format
0005_20070803_164424_Amundsen.all.mb56.gz 10.96MB Simrad multibeam vendor format
0005_20070805_191142_Amundsen.all.mb56.gz 3.17MB Simrad multibeam vendor format
0005_20070809_003240_Amundsen.all.mb56.gz 18.04MB Simrad multibeam vendor format
0005_20070811_161642_Amundsen.all.mb56.gz 22.78MB Simrad multibeam vendor format
0005_20070815_022749_Amundsen.all.mb56.gz 23.90MB Simrad multibeam vendor format
0005_20070818_052250_Amundsen.all.mb56.gz 22.44MB Simrad multibeam vendor format
0005_20070906_224204_Amundsen.all.mb56.gz 11.61MB Simrad multibeam vendor format
0005_20070924_010020_Amundsen.all.mb56.gz 15.25MB Simrad multibeam vendor format
0005_20070929_095035_Amundsen.all.mb56.gz 9.42MB Simrad multibeam vendor format
0005_20071004_041510_Amundsen.all.mb56.gz 6.57MB Simrad multibeam vendor format
0005_20071009_030753_Amundsen.all.mb56.gz 15.92MB Simrad multibeam vendor format
0005_20071014_025834_Amundsen.all.mb56.gz 30.42MB Simrad multibeam vendor format
0005_20071016_000431_Amundsen.all.mb56.gz 10.53MB Simrad multibeam vendor format
0005_20071019_222726_Amundsen.all.mb56.gz 9.16MB Simrad multibeam vendor format
0005_20071024_070333_Amundsen.all.mb56.gz 5.44MB Simrad multibeam vendor format
0005_20071030_034853_Amundsen.all.mb56.gz 17.61MB Simrad multibeam vendor format
0005_20071105_172345_Amundsen.all.mb56.gz 8.58MB Simrad multibeam vendor format
0006_20070726_172157_Amundsen.all.mb56.gz 34.28MB Simrad multibeam vendor format
0006_20070729_071931_Amundsen.all.mb56.gz 13.91MB Simrad multibeam vendor format
0006_20070730_055743_Amundsen.all.mb56.gz 4.38MB Simrad multibeam vendor format
0006_20070731_012250_Amundsen.all.mb56.gz 4.54MB Simrad multibeam vendor format
0006_20070802_124756_Amundsen.all.mb56.gz 12.60MB Simrad multibeam vendor format
0006_20070803_171424_Amundsen.all.mb56.gz 9.12MB Simrad multibeam vendor format
0006_20070805_191655_Amundsen.all.mb56.gz 6.00MB Simrad multibeam vendor format
0006_20070809_010240_Amundsen.all.mb56.gz 24.49MB Simrad multibeam vendor format
0006_20070811_164642_Amundsen.all.mb56.gz 22.38MB Simrad multibeam vendor format
0006_20070815_025749_Amundsen.all.mb56.gz 23.63MB Simrad multibeam vendor format
0006_20070818_055250_Amundsen.all.mb56.gz 21.77MB Simrad multibeam vendor format
0006_20070906_231204_Amundsen.all.mb56.gz 13.41MB Simrad multibeam vendor format
0006_20070924_013020_Amundsen.all.mb56.gz 14.34MB Simrad multibeam vendor format
0006_20070929_102035_Amundsen.all.mb56.gz 10.77MB Simrad multibeam vendor format
0006_20071004_044510_Amundsen.all.mb56.gz 6.88MB Simrad multibeam vendor format
0006_20071009_033753_Amundsen.all.mb56.gz 15.17MB Simrad multibeam vendor format
0006_20071014_032835_Amundsen.all.mb56.gz 26.36MB Simrad multibeam vendor format
0006_20071016_003430_Amundsen.all.mb56.gz 15.89MB Simrad multibeam vendor format
0006_20071019_233135_Amundsen.all.mb56.gz 17.01MB Simrad multibeam vendor format
0006_20071024_075659_Amundsen.all.mb56.gz 11.20MB Simrad multibeam vendor format
0006_20071030_041853_Amundsen.all.mb56.gz 19.75MB Simrad multibeam vendor format
0006_20071105_175345_Amundsen.all.mb56.gz 7.14MB Simrad multibeam vendor format
0007_20070726_175157_Amundsen.all.mb56.gz 38.12MB Simrad multibeam vendor format
0007_20070729_074931_Amundsen.all.mb56.gz 13.53MB Simrad multibeam vendor format
0007_20070730_062743_Amundsen.all.mb56.gz 4.34MB Simrad multibeam vendor format
0007_20070731_015250_Amundsen.all.mb56.gz 7.34MB Simrad multibeam vendor format
0007_20070802_131756_Amundsen.all.mb56.gz 12.86MB Simrad multibeam vendor format
0007_20070803_174424_Amundsen.all.mb56.gz 7.89MB Simrad multibeam vendor format
0007_20070805_192645_Amundsen.all.mb56.gz 3.53MB Simrad multibeam vendor format
0007_20070809_013240_Amundsen.all.mb56.gz 25.57MB Simrad multibeam vendor format
0007_20070811_171642_Amundsen.all.mb56.gz 21.35MB Simrad multibeam vendor format
0007_20070815_032749_Amundsen.all.mb56.gz 23.51MB Simrad multibeam vendor format
0007_20070818_062250_Amundsen.all.mb56.gz 20.98MB Simrad multibeam vendor format
0007_20070906_234204_Amundsen.all.mb56.gz 13.62MB Simrad multibeam vendor format
0007_20070924_020020_Amundsen.all.mb56.gz 13.81MB Simrad multibeam vendor format
0007_20070929_105035_Amundsen.all.mb56.gz 10.68MB Simrad multibeam vendor format
0007_20071004_051510_Amundsen.all.mb56.gz 6.99MB Simrad multibeam vendor format
0007_20071009_040753_Amundsen.all.mb56.gz 13.01MB Simrad multibeam vendor format
0007_20071014_035834_Amundsen.all.mb56.gz 21.32MB Simrad multibeam vendor format
0007_20071016_014107_Amundsen.all.mb56.gz 15.59MB Simrad multibeam vendor format
0007_20071020_000135_Amundsen.all.mb56.gz 4.93MB Simrad multibeam vendor format
0007_20071024_082659_Amundsen.all.mb56.gz 10.98MB Simrad multibeam vendor format
0007_20071030_044853_Amundsen.all.mb56.gz 22.01MB Simrad multibeam vendor format
0007_20071105_182345_Amundsen.all.mb56.gz 7.16MB Simrad multibeam vendor format
0008_20070726_182157_Amundsen.all.mb56.gz 39.75MB Simrad multibeam vendor format
0008_20070729_081931_Amundsen.all.mb56.gz 13.52MB Simrad multibeam vendor format
0008_20070730_065743_Amundsen.all.mb56.gz 4.23MB Simrad multibeam vendor format
0008_20070731_022250_Amundsen.all.mb56.gz 11.43MB Simrad multibeam vendor format
0008_20070802_134756_Amundsen.all.mb56.gz 14.13MB Simrad multibeam vendor format
0008_20070803_181424_Amundsen.all.mb56.gz 7.53MB Simrad multibeam vendor format
0008_20070805_193230_Amundsen.all.mb56.gz 7.26MB Simrad multibeam vendor format
0008_20070809_020240_Amundsen.all.mb56.gz 25.54MB Simrad multibeam vendor format
0008_20070811_174642_Amundsen.all.mb56.gz 20.65MB Simrad multibeam vendor format
0008_20070815_035749_Amundsen.all.mb56.gz 22.10MB Simrad multibeam vendor format
0008_20070818_065250_Amundsen.all.mb56.gz 21.08MB Simrad multibeam vendor format
0008_20070907_001204_Amundsen.all.mb56.gz 13.64MB Simrad multibeam vendor format
0008_20070924_023020_Amundsen.all.mb56.gz 12.16MB Simrad multibeam vendor format
0008_20070929_112035_Amundsen.all.mb56.gz 11.02MB Simrad multibeam vendor format
0008_20071004_054510_Amundsen.all.mb56.gz 6.08MB Simrad multibeam vendor format
0008_20071009_043753_Amundsen.all.mb56.gz 14.42MB Simrad multibeam vendor format
0008_20071014_042835_Amundsen.all.mb56.gz 19.32MB Simrad multibeam vendor format
0008_20071016_023150_Amundsen.all.mb56.gz 13.71MB Simrad multibeam vendor format
0008_20071020_002804_Amundsen.all.mb56.gz 2.45MB Simrad multibeam vendor format
0008_20071024_085659_Amundsen.all.mb56.gz 7.45MB Simrad multibeam vendor format
0008_20071030_051853_Amundsen.all.mb56.gz 20.87MB Simrad multibeam vendor format
0008_20071105_185345_Amundsen.all.mb56.gz 8.69MB Simrad multibeam vendor format
0009_20070726_185157_Amundsen.all.mb56.gz 38.05MB Simrad multibeam vendor format
0009_20070729_084931_Amundsen.all.mb56.gz 12.89MB Simrad multibeam vendor format
0009_20070730_072743_Amundsen.all.mb56.gz 4.20MB Simrad multibeam vendor format
0009_20070731_025250_Amundsen.all.mb56.gz 13.81MB Simrad multibeam vendor format
0009_20070802_141756_Amundsen.all.mb56.gz 17.96MB Simrad multibeam vendor format
0009_20070803_184424_Amundsen.all.mb56.gz 6.32MB Simrad multibeam vendor format
0009_20070805_194422_Amundsen.all.mb56.gz 2.66MB Simrad multibeam vendor format
0009_20070809_023240_Amundsen.all.mb56.gz 22.54MB Simrad multibeam vendor format
0009_20070811_181642_Amundsen.all.mb56.gz 20.33MB Simrad multibeam vendor format
0009_20070815_042749_Amundsen.all.mb56.gz 22.45MB Simrad multibeam vendor format
0009_20070818_072250_Amundsen.all.mb56.gz 20.94MB Simrad multibeam vendor format
0009_20070907_004204_Amundsen.all.mb56.gz 12.66MB Simrad multibeam vendor format
0009_20070924_030020_Amundsen.all.mb56.gz 11.97MB Simrad multibeam vendor format
0009_20070929_115035_Amundsen.all.mb56.gz 11.05MB Simrad multibeam vendor format
0009_20071004_061510_Amundsen.all.mb56.gz 5.56MB Simrad multibeam vendor format
0009_20071009_050753_Amundsen.all.mb56.gz 13.19MB Simrad multibeam vendor format
0009_20071014_045835_Amundsen.all.mb56.gz 19.11MB Simrad multibeam vendor format
0009_20071016_030151_Amundsen.all.mb56.gz 5.68MB Simrad multibeam vendor format
0009_20071020_004336_Amundsen.all.mb56.gz 9.20MB Simrad multibeam vendor format
0009_20071024_091923_Amundsen.all.mb56.gz 9.36MB Simrad multibeam vendor format
0009_20071030_054853_Amundsen.all.mb56.gz 22.39MB Simrad multibeam vendor format
0009_20071105_192345_Amundsen.all.mb56.gz 8.93MB Simrad multibeam vendor format
0010_20070726_192157_Amundsen.all.mb56.gz 38.54MB Simrad multibeam vendor format
0010_20070729_091931_Amundsen.all.mb56.gz 12.77MB Simrad multibeam vendor format
0010_20070730_075743_Amundsen.all.mb56.gz 366.2KB Simrad multibeam vendor format
0010_20070731_032250_Amundsen.all.mb56.gz 13.52MB Simrad multibeam vendor format
0010_20070802_144756_Amundsen.all.mb56.gz 14.35MB Simrad multibeam vendor format
0010_20070803_190944_Amundsen.all.mb56.gz 7.49MB Simrad multibeam vendor format
0010_20070805_194836_Amundsen.all.mb56.gz 3.28MB Simrad multibeam vendor format
0010_20070809_030240_Amundsen.all.mb56.gz 20.38MB Simrad multibeam vendor format
0010_20070811_184642_Amundsen.all.mb56.gz 21.25MB Simrad multibeam vendor format
0010_20070815_045748_Amundsen.all.mb56.gz 21.59MB Simrad multibeam vendor format
0010_20070818_075250_Amundsen.all.mb56.gz 20.49MB Simrad multibeam vendor format
0010_20070907_011204_Amundsen.all.mb56.gz 12.52MB Simrad multibeam vendor format
0010_20070924_033020_Amundsen.all.mb56.gz 10.78MB Simrad multibeam vendor format
0010_20070929_122035_Amundsen.all.mb56.gz 10.86MB Simrad multibeam vendor format
0010_20071004_064510_Amundsen.all.mb56.gz 5.53MB Simrad multibeam vendor format
0010_20071009_053753_Amundsen.all.mb56.gz 12.75MB Simrad multibeam vendor format
0010_20071014_052835_Amundsen.all.mb56.gz 9.13MB Simrad multibeam vendor format
0010_20071016_051602_Amundsen.all.mb56.gz 0.82MB Simrad multibeam vendor format
0010_20071020_013614_Amundsen.all.mb56.gz 15.41MB Simrad multibeam vendor format
0010_20071024_094923_Amundsen.all.mb56.gz 9.23MB Simrad multibeam vendor format
0010_20071030_061853_Amundsen.all.mb56.gz 20.26MB Simrad multibeam vendor format
0010_20071105_195345_Amundsen.all.mb56.gz 9.68MB Simrad multibeam vendor format
0011_20070726_195157_Amundsen.all.mb56.gz 32.74MB Simrad multibeam vendor format
0011_20070729_094930_Amundsen.all.mb56.gz 13.17MB Simrad multibeam vendor format
0011_20070730_080021_Amundsen.all.mb56.gz 2.00MB Simrad multibeam vendor format
0011_20070731_035250_Amundsen.all.mb56.gz 14.02MB Simrad multibeam vendor format
0011_20070802_151756_Amundsen.all.mb56.gz 14.32MB Simrad multibeam vendor format
0011_20070803_193944_Amundsen.all.mb56.gz 7.27MB Simrad multibeam vendor format
0011_20070805_195357_Amundsen.all.mb56.gz 18.11MB Simrad multibeam vendor format
0011_20070809_033240_Amundsen.all.mb56.gz 18.96MB Simrad multibeam vendor format
0011_20070811_191642_Amundsen.all.mb56.gz 22.71MB Simrad multibeam vendor format
0011_20070815_052748_Amundsen.all.mb56.gz 21.31MB Simrad multibeam vendor format
0011_20070818_082250_Amundsen.all.mb56.gz 19.67MB Simrad multibeam vendor format
0011_20070907_014204_Amundsen.all.mb56.gz 10.00MB Simrad multibeam vendor format
0011_20070924_040020_Amundsen.all.mb56.gz 9.23MB Simrad multibeam vendor format
0011_20070929_125035_Amundsen.all.mb56.gz 11.12MB Simrad multibeam vendor format
0011_20071009_060753_Amundsen.all.mb56.gz 11.63MB Simrad multibeam vendor format
0011_20071014_054456_Amundsen.all.mb56.gz 2.34MB Simrad multibeam vendor format
0011_20071016_052013_Amundsen.all.mb56.gz 7.33MB Simrad multibeam vendor format
0011_20071020_020614_Amundsen.all.mb56.gz 12.83MB Simrad multibeam vendor format
0011_20071024_101923_Amundsen.all.mb56.gz 6.38MB Simrad multibeam vendor format
0011_20071030_064853_Amundsen.all.mb56.gz 127.5KB Simrad multibeam vendor format
0011_20071105_202345_Amundsen.all.mb56.gz 2.32MB Simrad multibeam vendor format
0012_20070726_202157_Amundsen.all.mb56.gz 1.87MB Simrad multibeam vendor format
0012_20070726_202919_Amundsen.all.mb56.gz 35.26MB Simrad multibeam vendor format
0012_20070729_101930_Amundsen.all.mb56.gz 12.40MB Simrad multibeam vendor format
0012_20070730_081419_Amundsen.all.mb56.gz 4.43MB Simrad multibeam vendor format
0012_20070731_042250_Amundsen.all.mb56.gz 15.62MB Simrad multibeam vendor format
0012_20070802_154756_Amundsen.all.mb56.gz 14.36MB Simrad multibeam vendor format
0012_20070803_200944_Amundsen.all.mb56.gz 7.47MB Simrad multibeam vendor format
0012_20070805_202357_Amundsen.all.mb56.gz 0.75MB Simrad multibeam vendor format
0012_20070809_040240_Amundsen.all.mb56.gz 15.37MB Simrad multibeam vendor format
0012_20070811_194642_Amundsen.all.mb56.gz 24.63MB Simrad multibeam vendor format
0012_20070815_055748_Amundsen.all.mb56.gz 21.49MB Simrad multibeam vendor format
0012_20070818_085250_Amundsen.all.mb56.gz 20.90MB Simrad multibeam vendor format
0012_20070907_021204_Amundsen.all.mb56.gz 11.86MB Simrad multibeam vendor format
0012_20070924_043020_Amundsen.all.mb56.gz 9.44MB Simrad multibeam vendor format
0012_20070929_132035_Amundsen.all.mb56.gz 8.22MB Simrad multibeam vendor format
0012_20071009_063753_Amundsen.all.mb56.gz 14.46MB Simrad multibeam vendor format
0012_20071014_070423_Amundsen.all.mb56.gz 15.89MB Simrad multibeam vendor format
0012_20071016_055014_Amundsen.all.mb56.gz 7.47MB Simrad multibeam vendor format
0012_20071020_023614_Amundsen.all.mb56.gz 21.84MB Simrad multibeam vendor format
0012_20071024_103931_Amundsen.all.mb56.gz 10.90MB Simrad multibeam vendor format
0012_20071030_065130_Amundsen.all.mb56.gz 11.48MB Simrad multibeam vendor format
0012_20071105_224143_Amundsen.all.mb56.gz 11.12MB Simrad multibeam vendor format
0013_20070726_205919_Amundsen.all.mb56.gz 26.34MB Simrad multibeam vendor format
0013_20070729_104930_Amundsen.all.mb56.gz 12.28MB Simrad multibeam vendor format
0013_20070730_084419_Amundsen.all.mb56.gz 4.54MB Simrad multibeam vendor format
0013_20070731_045250_Amundsen.all.mb56.gz 15.65MB Simrad multibeam vendor format
0013_20070802_161756_Amundsen.all.mb56.gz 13.39MB Simrad multibeam vendor format
0013_20070803_203944_Amundsen.all.mb56.gz 7.92MB Simrad multibeam vendor format
0013_20070805_202510_Amundsen.all.mb56.gz 5.68MB Simrad multibeam vendor format
0013_20070809_043240_Amundsen.all.mb56.gz 15.96MB Simrad multibeam vendor format
0013_20070811_201642_Amundsen.all.mb56.gz 27.71MB Simrad multibeam vendor format
0013_20070815_062748_Amundsen.all.mb56.gz 20.83MB Simrad multibeam vendor format
0013_20070818_092250_Amundsen.all.mb56.gz 21.78MB Simrad multibeam vendor format
0013_20070907_024204_Amundsen.all.mb56.gz 10.80MB Simrad multibeam vendor format
0013_20070924_050020_Amundsen.all.mb56.gz 11.88MB Simrad multibeam vendor format
0013_20070929_135035_Amundsen.all.mb56.gz 10.86MB Simrad multibeam vendor format
0013_20071009_070753_Amundsen.all.mb56.gz 7.60MB Simrad multibeam vendor format
0013_20071014_073423_Amundsen.all.mb56.gz 14.99MB Simrad multibeam vendor format
0013_20071016_062925_Amundsen.all.mb56.gz 11.05MB Simrad multibeam vendor format
0013_20071020_030614_Amundsen.all.mb56.gz 23.30MB Simrad multibeam vendor format
0013_20071024_110930_Amundsen.all.mb56.gz 10.39MB Simrad multibeam vendor format
0013_20071030_072130_Amundsen.all.mb56.gz 12.73MB Simrad multibeam vendor format
0013_20071105_231143_Amundsen.all.mb56.gz 10.88MB Simrad multibeam vendor format
0014_20070726_212919_Amundsen.all.mb56.gz 23.79MB Simrad multibeam vendor format
0014_20070729_111930_Amundsen.all.mb56.gz 12.46MB Simrad multibeam vendor format
0014_20070730_091419_Amundsen.all.mb56.gz 4.40MB Simrad multibeam vendor format
0014_20070731_052250_Amundsen.all.mb56.gz 9.38MB Simrad multibeam vendor format
0014_20070802_164756_Amundsen.all.mb56.gz 14.35MB Simrad multibeam vendor format
0014_20070803_210944_Amundsen.all.mb56.gz 8.70MB Simrad multibeam vendor format
0014_20070805_203444_Amundsen.all.mb56.gz 7.98MB Simrad multibeam vendor format
0014_20070809_050240_Amundsen.all.mb56.gz 18.08MB Simrad multibeam vendor format
0014_20070811_204642_Amundsen.all.mb56.gz 26.47MB Simrad multibeam vendor format
0014_20070815_065748_Amundsen.all.mb56.gz 19.99MB Simrad multibeam vendor format
0014_20070818_095250_Amundsen.all.mb56.gz 21.55MB Simrad multibeam vendor format
0014_20070907_031204_Amundsen.all.mb56.gz 10.79MB Simrad multibeam vendor format
0014_20070924_053020_Amundsen.all.mb56.gz 11.41MB Simrad multibeam vendor format
0014_20070929_142035_Amundsen.all.mb56.gz 11.12MB Simrad multibeam vendor format
0014_20071009_073753_Amundsen.all.mb56.gz 15.60MB Simrad multibeam vendor format
0014_20071014_080424_Amundsen.all.mb56.gz 13.14MB Simrad multibeam vendor format
0014_20071016_065925_Amundsen.all.mb56.gz 10.74MB Simrad multibeam vendor format
0014_20071020_033614_Amundsen.all.mb56.gz 1.31MB Simrad multibeam vendor format
0014_20071024_113930_Amundsen.all.mb56.gz 9.61MB Simrad multibeam vendor format
0014_20071030_075130_Amundsen.all.mb56.gz 12.58MB Simrad multibeam vendor format
0014_20071105_234143_Amundsen.all.mb56.gz 10.25MB Simrad multibeam vendor format
0015_20070726_215919_Amundsen.all.mb56.gz 33.09MB Simrad multibeam vendor format
0015_20070729_114930_Amundsen.all.mb56.gz 12.07MB Simrad multibeam vendor format
0015_20070730_094419_Amundsen.all.mb56.gz 4.61MB Simrad multibeam vendor format
0015_20070731_055250_Amundsen.all.mb56.gz 7.61MB Simrad multibeam vendor format
0015_20070802_171756_Amundsen.all.mb56.gz 14.02MB Simrad multibeam vendor format
0015_20070803_213944_Amundsen.all.mb56.gz 8.63MB Simrad multibeam vendor format
0015_20070805_204739_Amundsen.all.mb56.gz 3.30MB Simrad multibeam vendor format
0015_20070809_053240_Amundsen.all.mb56.gz 19.34MB Simrad multibeam vendor format
0015_20070811_211642_Amundsen.all.mb56.gz 24.22MB Simrad multibeam vendor format
0015_20070815_072748_Amundsen.all.mb56.gz 19.71MB Simrad multibeam vendor format
0015_20070818_102250_Amundsen.all.mb56.gz 22.87MB Simrad multibeam vendor format
0015_20070907_034204_Amundsen.all.mb56.gz 10.28MB Simrad multibeam vendor format
0015_20070924_060020_Amundsen.all.mb56.gz 8.02MB Simrad multibeam vendor format
0015_20070929_145035_Amundsen.all.mb56.gz 5.90MB Simrad multibeam vendor format
0015_20071009_080753_Amundsen.all.mb56.gz 8.94MB Simrad multibeam vendor format
0015_20071014_083423_Amundsen.all.mb56.gz 15.73MB Simrad multibeam vendor format
0015_20071016_072925_Amundsen.all.mb56.gz 0.99MB Simrad multibeam vendor format
0015_20071020_035133_Amundsen.all.mb56.gz 24.96MB Simrad multibeam vendor format
0015_20071024_120930_Amundsen.all.mb56.gz 10.16MB Simrad multibeam vendor format
0015_20071030_082130_Amundsen.all.mb56.gz 12.60MB Simrad multibeam vendor format
0015_20071106_001143_Amundsen.all.mb56.gz 7.14MB Simrad multibeam vendor format
0016_20070726_222919_Amundsen.all.mb56.gz 21.18MB Simrad multibeam vendor format
0016_20070729_121930_Amundsen.all.mb56.gz 12.24MB Simrad multibeam vendor format
0016_20070730_101419_Amundsen.all.mb56.gz 4.41MB Simrad multibeam vendor format
0016_20070731_062250_Amundsen.all.mb56.gz 9.96MB Simrad multibeam vendor format
0016_20070802_174756_Amundsen.all.mb56.gz 13.76MB Simrad multibeam vendor format
0016_20070803_220944_Amundsen.all.mb56.gz 9.55MB Simrad multibeam vendor format
0016_20070805_205255_Amundsen.all.mb56.gz 2.80MB Simrad multibeam vendor format
0016_20070809_060240_Amundsen.all.mb56.gz 20.17MB Simrad multibeam vendor format
0016_20070811_214642_Amundsen.all.mb56.gz 19.89MB Simrad multibeam vendor format
0016_20070815_075748_Amundsen.all.mb56.gz 9.13MB Simrad multibeam vendor format
0016_20070818_105250_Amundsen.all.mb56.gz 22.25MB Simrad multibeam vendor format
0016_20070907_041204_Amundsen.all.mb56.gz 9.96MB Simrad multibeam vendor format
0016_20070924_063019_Amundsen.all.mb56.gz 8.76MB Simrad multibeam vendor format
0016_20070929_155635_Amundsen.all.mb56.gz 11.40MB Simrad multibeam vendor format
0016_20071009_083753_Amundsen.all.mb56.gz 6.74MB Simrad multibeam vendor format
0016_20071014_090423_Amundsen.all.mb56.gz 15.44MB Simrad multibeam vendor format
0016_20071016_080047_Amundsen.all.mb56.gz 6.14MB Simrad multibeam vendor format
0016_20071020_042133_Amundsen.all.mb56.gz 25.61MB Simrad multibeam vendor format
0016_20071024_123930_Amundsen.all.mb56.gz 5.13MB Simrad multibeam vendor format
0016_20071030_085130_Amundsen.all.mb56.gz 4.90MB Simrad multibeam vendor format
0016_20071106_004142_Amundsen.all.mb56.gz 7.61MB Simrad multibeam vendor format
0017_20070726_225919_Amundsen.all.mb56.gz 15.63MB Simrad multibeam vendor format
0017_20070729_124930_Amundsen.all.mb56.gz 11.68MB Simrad multibeam vendor format
0017_20070730_104419_Amundsen.all.mb56.gz 229.9KB Simrad multibeam vendor format
0017_20070731_065250_Amundsen.all.mb56.gz 10.36MB Simrad multibeam vendor format
0017_20070802_181756_Amundsen.all.mb56.gz 4.44MB Simrad multibeam vendor format
0017_20070803_223944_Amundsen.all.mb56.gz 10.99MB Simrad multibeam vendor format
0017_20070805_205723_Amundsen.all.mb56.gz 2.01MB Simrad multibeam vendor format
0017_20070809_063240_Amundsen.all.mb56.gz 19.20MB Simrad multibeam vendor format
0017_20070811_221642_Amundsen.all.mb56.gz 19.99MB Simrad multibeam vendor format
0017_20070815_081339_Amundsen.all.mb56.gz 1.14MB Simrad multibeam vendor format
0017_20070818_112250_Amundsen.all.mb56.gz 21.59MB Simrad multibeam vendor format
0017_20070907_044204_Amundsen.all.mb56.gz 9.55MB Simrad multibeam vendor format
0017_20070924_070019_Amundsen.all.mb56.gz 5.64MB Simrad multibeam vendor format
0017_20070929_162635_Amundsen.all.mb56.gz 8.21MB Simrad multibeam vendor format
0017_20071009_090753_Amundsen.all.mb56.gz 7.71MB Simrad multibeam vendor format
0017_20071014_093425_Amundsen.all.mb56.gz 13.01MB Simrad multibeam vendor format
0017_20071016_083047_Amundsen.all.mb56.gz 5.20MB Simrad multibeam vendor format
0017_20071020_045134_Amundsen.all.mb56.gz 26.26MB Simrad multibeam vendor format
0017_20071024_125302_Amundsen.all.mb56.gz 11.29MB Simrad multibeam vendor format
0017_20071030_090416_Amundsen.all.mb56.gz 12.95MB Simrad multibeam vendor format
0017_20071106_011142_Amundsen.all.mb56.gz 9.33MB Simrad multibeam vendor format
0018_20070726_232919_Amundsen.all.mb56.gz 20.07MB Simrad multibeam vendor format
0018_20070729_131930_Amundsen.all.mb56.gz 11.47MB Simrad multibeam vendor format
0018_20070730_104542_Amundsen.all.mb56.gz 1.78MB Simrad multibeam vendor format
0018_20070731_072250_Amundsen.all.mb56.gz 11.53MB Simrad multibeam vendor format
0018_20070802_182943_Amundsen.all.mb56.gz 16.60MB Simrad multibeam vendor format
0018_20070803_230944_Amundsen.all.mb56.gz 10.60MB Simrad multibeam vendor format
0018_20070805_210038_Amundsen.all.mb56.gz 2.68MB Simrad multibeam vendor format
0018_20070809_070240_Amundsen.all.mb56.gz 16.18MB Simrad multibeam vendor format
0018_20070811_224642_Amundsen.all.mb56.gz 20.50MB Simrad multibeam vendor format
0018_20070815_081656_Amundsen.all.mb56.gz 19.33MB Simrad multibeam vendor format
0018_20070818_115250_Amundsen.all.mb56.gz 22.31MB Simrad multibeam vendor format
0018_20070907_051204_Amundsen.all.mb56.gz 10.23MB Simrad multibeam vendor format
0018_20070924_073019_Amundsen.all.mb56.gz 7.76MB Simrad multibeam vendor format
0018_20070929_164833_Amundsen.all.mb56.gz 8.41MB Simrad multibeam vendor format
0018_20071009_093753_Amundsen.all.mb56.gz 7.63MB Simrad multibeam vendor format
0018_20071014_100424_Amundsen.all.mb56.gz 12.06MB Simrad multibeam vendor format
0018_20071016_090047_Amundsen.all.mb56.gz 2.63MB Simrad multibeam vendor format
0018_20071020_052133_Amundsen.all.mb56.gz 23.02MB Simrad multibeam vendor format
0018_20071024_132302_Amundsen.all.mb56.gz 10.40MB Simrad multibeam vendor format
0018_20071030_093416_Amundsen.all.mb56.gz 12.53MB Simrad multibeam vendor format
0018_20071106_014142_Amundsen.all.mb56.gz 8.99MB Simrad multibeam vendor format
0019_20070726_235919_Amundsen.all.mb56.gz 27.22MB Simrad multibeam vendor format
0019_20070729_134930_Amundsen.all.mb56.gz 11.73MB Simrad multibeam vendor format
0019_20070730_105721_Amundsen.all.mb56.gz 4.46MB Simrad multibeam vendor format
0019_20070731_075250_Amundsen.all.mb56.gz 9.70MB Simrad multibeam vendor format
0019_20070802_185943_Amundsen.all.mb56.gz 21.94MB Simrad multibeam vendor format
0019_20070803_233944_Amundsen.all.mb56.gz 10.00MB Simrad multibeam vendor format
0019_20070805_210507_Amundsen.all.mb56.gz 3.25MB Simrad multibeam vendor format
0019_20070809_073240_Amundsen.all.mb56.gz 16.39MB Simrad multibeam vendor format
0019_20070811_231642_Amundsen.all.mb56.gz 17.69MB Simrad multibeam vendor format
0019_20070815_084656_Amundsen.all.mb56.gz 19.95MB Simrad multibeam vendor format
0019_20070818_122250_Amundsen.all.mb56.gz 22.36MB Simrad multibeam vendor format
0019_20070907_054204_Amundsen.all.mb56.gz 9.41MB Simrad multibeam vendor format
0019_20070924_080019_Amundsen.all.mb56.gz 8.30MB Simrad multibeam vendor format
0019_20070929_200205_Amundsen.all.mb56.gz 9.81MB Simrad multibeam vendor format
0019_20071009_100753_Amundsen.all.mb56.gz 7.37MB Simrad multibeam vendor format
0019_20071014_103424_Amundsen.all.mb56.gz 11.57MB Simrad multibeam vendor format
0019_20071016_094245_Amundsen.all.mb56.gz 295.7KB Simrad multibeam vendor format
0019_20071020_055133_Amundsen.all.mb56.gz 18.77MB Simrad multibeam vendor format
0019_20071024_135302_Amundsen.all.mb56.gz 8.83MB Simrad multibeam vendor format
0019_20071030_100415_Amundsen.all.mb56.gz 14.13MB Simrad multibeam vendor format
0019_20071106_021142_Amundsen.all.mb56.gz 8.41MB Simrad multibeam vendor format
0020_20070727_002919_Amundsen.all.mb56.gz 27.20MB Simrad multibeam vendor format
0020_20070729_141930_Amundsen.all.mb56.gz 10.09MB Simrad multibeam vendor format
0020_20070730_112721_Amundsen.all.mb56.gz 4.48MB Simrad multibeam vendor format
0020_20070731_082250_Amundsen.all.mb56.gz 11.75MB Simrad multibeam vendor format
0020_20070802_192943_Amundsen.all.mb56.gz 22.38MB Simrad multibeam vendor format
0020_20070804_000944_Amundsen.all.mb56.gz 9.22MB Simrad multibeam vendor format
0020_20070805_211033_Amundsen.all.mb56.gz 3.61MB Simrad multibeam vendor format
0020_20070809_080240_Amundsen.all.mb56.gz 17.25MB Simrad multibeam vendor format
0020_20070811_234642_Amundsen.all.mb56.gz 17.58MB Simrad multibeam vendor format
0020_20070815_091656_Amundsen.all.mb56.gz 19.76MB Simrad multibeam vendor format
0020_20070818_125250_Amundsen.all.mb56.gz 24.97MB Simrad multibeam vendor format
0020_20070907_061204_Amundsen.all.mb56.gz 10.35MB Simrad multibeam vendor format
0020_20070924_083019_Amundsen.all.mb56.gz 8.43MB Simrad multibeam vendor format
0020_20070929_213343_Amundsen.all.mb56.gz 11.99MB Simrad multibeam vendor format
0020_20071004_145722_ShipName.all.mb56.gz 165.8KB Simrad multibeam vendor format
0020_20071009_103753_Amundsen.all.mb56.gz 9.02MB Simrad multibeam vendor format
0020_20071014_110424_Amundsen.all.mb56.gz 11.15MB Simrad multibeam vendor format
0020_20071016_094332_Amundsen.all.mb56.gz 1.66MB Simrad multibeam vendor format
0020_20071020_062133_Amundsen.all.mb56.gz 13.03MB Simrad multibeam vendor format
0020_20071024_142302_Amundsen.all.mb56.gz 10.20MB Simrad multibeam vendor format
0020_20071030_103415_Amundsen.all.mb56.gz 11.68MB Simrad multibeam vendor format
0020_20071106_024142_Amundsen.all.mb56.gz 8.52MB Simrad multibeam vendor format
0021_20070727_005919_Amundsen.all.mb56.gz 21.03MB Simrad multibeam vendor format
0021_20070729_144930_Amundsen.all.mb56.gz 7.91MB Simrad multibeam vendor format
0021_20070730_115721_Amundsen.all.mb56.gz 4.37MB Simrad multibeam vendor format
0021_20070731_085250_Amundsen.all.mb56.gz 14.26MB Simrad multibeam vendor format
0021_20070802_195943_Amundsen.all.mb56.gz 21.07MB Simrad multibeam vendor format
0021_20070804_003944_Amundsen.all.mb56.gz 10.11MB Simrad multibeam vendor format
0021_20070805_211631_Amundsen.all.mb56.gz 7.13MB Simrad multibeam vendor format
0021_20070809_083240_Amundsen.all.mb56.gz 19.85MB Simrad multibeam vendor format
0021_20070812_001642_Amundsen.all.mb56.gz 16.02MB Simrad multibeam vendor format
0021_20070815_094656_Amundsen.all.mb56.gz 19.69MB Simrad multibeam vendor format
0021_20070818_132250_Amundsen.all.mb56.gz 31.26MB Simrad multibeam vendor format
0021_20070907_064204_Amundsen.all.mb56.gz 10.05MB Simrad multibeam vendor format
0021_20070924_090019_Amundsen.all.mb56.gz 10.72MB Simrad multibeam vendor format
0021_20070929_220343_Amundsen.all.mb56.gz 11.82MB Simrad multibeam vendor format
0021_20071004_145840_ShipName.all.mb56.gz 55.1KB Simrad multibeam vendor format
0021_20071009_110753_Amundsen.all.mb56.gz 3.41MB Simrad multibeam vendor format
0021_20071014_113424_Amundsen.all.mb56.gz 1.57MB Simrad multibeam vendor format
0021_20071016_140242_Amundsen.all.mb56.gz 10.69MB Simrad multibeam vendor format
0021_20071020_065133_Amundsen.all.mb56.gz 11.54MB Simrad multibeam vendor format
0021_20071024_145302_Amundsen.all.mb56.gz 11.16MB Simrad multibeam vendor format
0021_20071030_110415_Amundsen.all.mb56.gz 14.02MB Simrad multibeam vendor format
0021_20071106_031142_Amundsen.all.mb56.gz 7.75MB Simrad multibeam vendor format
0022_20070727_012919_Amundsen.all.mb56.gz 20.66MB Simrad multibeam vendor format
0022_20070729_151930_Amundsen.all.mb56.gz 7.50MB Simrad multibeam vendor format
0022_20070730_122721_Amundsen.all.mb56.gz 4.34MB Simrad multibeam vendor format
0022_20070731_092250_Amundsen.all.mb56.gz 17.81MB Simrad multibeam vendor format
0022_20070802_202943_Amundsen.all.mb56.gz 20.30MB Simrad multibeam vendor format
0022_20070804_010943_Amundsen.all.mb56.gz 10.12MB Simrad multibeam vendor format
0022_20070805_212804_Amundsen.all.mb56.gz 18.74MB Simrad multibeam vendor format
0022_20070809_090240_Amundsen.all.mb56.gz 20.85MB Simrad multibeam vendor format
0022_20070812_004642_Amundsen.all.mb56.gz 14.33MB Simrad multibeam vendor format
0022_20070815_101656_Amundsen.all.mb56.gz 20.20MB Simrad multibeam vendor format
0022_20070818_135250_Amundsen.all.mb56.gz 0.92MB Simrad multibeam vendor format
0022_20070907_071204_Amundsen.all.mb56.gz 10.20MB Simrad multibeam vendor format
0022_20070924_093019_Amundsen.all.mb56.gz 11.87MB Simrad multibeam vendor format
0022_20070929_223343_Amundsen.all.mb56.gz 11.05MB Simrad multibeam vendor format
0022_20071004_161259_ShipName.all.mb56.gz 501.9KB Simrad multibeam vendor format
0022_20071009_112233_Amundsen.all.mb56.gz 7.72MB Simrad multibeam vendor format
0022_20071014_113943_Amundsen.all.mb56.gz 9.38MB Simrad multibeam vendor format
0022_20071016_143242_Amundsen.all.mb56.gz 10.44MB Simrad multibeam vendor format
0022_20071020_072133_Amundsen.all.mb56.gz 10.62MB Simrad multibeam vendor format
0022_20071024_152302_Amundsen.all.mb56.gz 6.56MB Simrad multibeam vendor format
0022_20071030_113415_Amundsen.all.mb56.gz 11.37MB Simrad multibeam vendor format
0022_20071106_034142_Amundsen.all.mb56.gz 7.29MB Simrad multibeam vendor format
0023_20070727_015919_Amundsen.all.mb56.gz 16.49MB Simrad multibeam vendor format
0023_20070729_154930_Amundsen.all.mb56.gz 3.32MB Simrad multibeam vendor format
0023_20070730_125721_Amundsen.all.mb56.gz 1.56MB Simrad multibeam vendor format
0023_20070731_095250_Amundsen.all.mb56.gz 22.24MB Simrad multibeam vendor format
0023_20070802_205943_Amundsen.all.mb56.gz 19.26MB Simrad multibeam vendor format
0023_20070804_013943_Amundsen.all.mb56.gz 8.80MB Simrad multibeam vendor format
0023_20070805_215804_Amundsen.all.mb56.gz 18.35MB Simrad multibeam vendor format
0023_20070809_093240_Amundsen.all.mb56.gz 19.85MB Simrad multibeam vendor format
0023_20070812_011642_Amundsen.all.mb56.gz 12.26MB Simrad multibeam vendor format
0023_20070815_104656_Amundsen.all.mb56.gz 20.22MB Simrad multibeam vendor format
0023_20070822_005952_Amundsen.all.mb56.gz 32.68MB Simrad multibeam vendor format
0023_20070907_074204_Amundsen.all.mb56.gz 9.99MB Simrad multibeam vendor format
0023_20070924_100019_Amundsen.all.mb56.gz 9.45MB Simrad multibeam vendor format
0023_20070929_230343_Amundsen.all.mb56.gz 11.72MB Simrad multibeam vendor format
0023_20071004_162908_ShipName.all.mb56.gz 6.71MB Simrad multibeam vendor format
0023_20071009_115234_Amundsen.all.mb56.gz 4.27MB Simrad multibeam vendor format
0023_20071014_120944_Amundsen.all.mb56.gz 9.15MB Simrad multibeam vendor format
0023_20071016_150243_Amundsen.all.mb56.gz 10.74MB Simrad multibeam vendor format
0023_20071020_075135_Amundsen.all.mb56.gz 10.05MB Simrad multibeam vendor format
0023_20071024_232603_Amundsen.all.mb56.gz 9.73MB Simrad multibeam vendor format
0023_20071030_120415_Amundsen.all.mb56.gz 6.07MB Simrad multibeam vendor format
0023_20071106_041142_Amundsen.all.mb56.gz 2.84MB Simrad multibeam vendor format
0024_20070727_022919_Amundsen.all.mb56.gz 11.17MB Simrad multibeam vendor format
0024_20070729_160301_Amundsen.all.mb56.gz 7.36MB Simrad multibeam vendor format
0024_20070730_130834_Amundsen.all.mb56.gz 2.05MB Simrad multibeam vendor format
0024_20070731_102250_Amundsen.all.mb56.gz 17.64MB Simrad multibeam vendor format
0024_20070802_212943_Amundsen.all.mb56.gz 17.82MB Simrad multibeam vendor format
0024_20070804_020943_Amundsen.all.mb56.gz 9.62MB Simrad multibeam vendor format
0024_20070805_222804_Amundsen.all.mb56.gz 17.35MB Simrad multibeam vendor format
0024_20070809_100240_Amundsen.all.mb56.gz 18.26MB Simrad multibeam vendor format
0024_20070812_014642_Amundsen.all.mb56.gz 12.55MB Simrad multibeam vendor format
0024_20070815_111656_Amundsen.all.mb56.gz 20.00MB Simrad multibeam vendor format
0024_20070822_012952_Amundsen.all.mb56.gz 28.84MB Simrad multibeam vendor format
0024_20070907_081204_Amundsen.all.mb56.gz 9.13MB Simrad multibeam vendor format
0024_20070924_103019_Amundsen.all.mb56.gz 8.68MB Simrad multibeam vendor format
0024_20070929_233343_Amundsen.all.mb56.gz 11.79MB Simrad multibeam vendor format
0024_20071004_170607_ShipName.all.mb56.gz 360.6KB Simrad multibeam vendor format
0024_20071009_121016_Amundsen.all.mb56.gz 8.21MB Simrad multibeam vendor format
0024_20071014_123944_Amundsen.all.mb56.gz 9.91MB Simrad multibeam vendor format
0024_20071016_153242_Amundsen.all.mb56.gz 10.00MB Simrad multibeam vendor format
0024_20071020_082133_Amundsen.all.mb56.gz 10.34MB Simrad multibeam vendor format
0024_20071024_235603_Amundsen.all.mb56.gz 6.94MB Simrad multibeam vendor format
0024_20071030_124138_Amundsen.all.mb56.gz 11.76MB Simrad multibeam vendor format
0024_20071106_042325_Amundsen.all.mb56.gz 26.1KB Simrad multibeam vendor format
0025_20070727_025919_Amundsen.all.mb56.gz 10.35MB Simrad multibeam vendor format
0025_20070729_163300_Amundsen.all.mb56.gz 7.17MB Simrad multibeam vendor format
0025_20070730_132233_Amundsen.all.mb56.gz 4.64MB Simrad multibeam vendor format
0025_20070731_105250_Amundsen.all.mb56.gz 16.67MB Simrad multibeam vendor format
0025_20070802_215943_Amundsen.all.mb56.gz 15.47MB Simrad multibeam vendor format
0025_20070804_023943_Amundsen.all.mb56.gz 8.65MB Simrad multibeam vendor format
0025_20070805_225804_Amundsen.all.mb56.gz 17.09MB Simrad multibeam vendor format
0025_20070809_103240_Amundsen.all.mb56.gz 17.89MB Simrad multibeam vendor format
0025_20070812_021642_Amundsen.all.mb56.gz 12.38MB Simrad multibeam vendor format
0025_20070815_114656_Amundsen.all.mb56.gz 20.28MB Simrad multibeam vendor format
0025_20070822_015952_Amundsen.all.mb56.gz 23.33MB Simrad multibeam vendor format
0025_20070907_084204_Amundsen.all.mb56.gz 9.55MB Simrad multibeam vendor format
0025_20070924_110019_Amundsen.all.mb56.gz 7.92MB Simrad multibeam vendor format
0025_20070930_000343_Amundsen.all.mb56.gz 11.98MB Simrad multibeam vendor format
0025_20071004_171059_ShipName.all.mb56.gz 8.57MB Simrad multibeam vendor format
0025_20071009_124016_Amundsen.all.mb56.gz 8.87MB Simrad multibeam vendor format
0025_20071014_130944_Amundsen.all.mb56.gz 9.50MB Simrad multibeam vendor format
0025_20071016_160242_Amundsen.all.mb56.gz 8.49MB Simrad multibeam vendor format
0025_20071020_085133_Amundsen.all.mb56.gz 10.46MB Simrad multibeam vendor format
0025_20071025_004403_Amundsen.all.mb56.gz 11.46MB Simrad multibeam vendor format
0025_20071030_131138_Amundsen.all.mb56.gz 12.09MB Simrad multibeam vendor format
0025_20071106_042402_Amundsen.all.mb56.gz 8.91MB Simrad multibeam vendor format
0026_20070727_032919_Amundsen.all.mb56.gz 10.94MB Simrad multibeam vendor format
0026_20070729_170300_Amundsen.all.mb56.gz 12.52MB Simrad multibeam vendor format
0026_20070730_135233_Amundsen.all.mb56.gz 4.76MB Simrad multibeam vendor format
0026_20070731_112250_Amundsen.all.mb56.gz 17.21MB Simrad multibeam vendor format
0026_20070802_222943_Amundsen.all.mb56.gz 14.42MB Simrad multibeam vendor format
0026_20070804_030943_Amundsen.all.mb56.gz 10.08MB Simrad multibeam vendor format
0026_20070805_232804_Amundsen.all.mb56.gz 16.83MB Simrad multibeam vendor format
0026_20070809_110240_Amundsen.all.mb56.gz 19.40MB Simrad multibeam vendor format
0026_20070812_024642_Amundsen.all.mb56.gz 12.91MB Simrad multibeam vendor format
0026_20070815_121656_Amundsen.all.mb56.gz 19.89MB Simrad multibeam vendor format
0026_20070822_022952_Amundsen.all.mb56.gz 23.59MB Simrad multibeam vendor format
0026_20070907_091204_Amundsen.all.mb56.gz 9.66MB Simrad multibeam vendor format
0026_20070924_113019_Amundsen.all.mb56.gz 7.27MB Simrad multibeam vendor format
0026_20070930_003343_Amundsen.all.mb56.gz 11.31MB Simrad multibeam vendor format
0026_20071004_174059_ShipName.all.mb56.gz 8.31MB Simrad multibeam vendor format
0026_20071009_131017_Amundsen.all.mb56.gz 2.59MB Simrad multibeam vendor format
0026_20071014_133944_Amundsen.all.mb56.gz 8.68MB Simrad multibeam vendor format
0026_20071016_163242_Amundsen.all.mb56.gz 7.73MB Simrad multibeam vendor format
0026_20071020_092133_Amundsen.all.mb56.gz 9.34MB Simrad multibeam vendor format
0026_20071025_011403_Amundsen.all.mb56.gz 11.29MB Simrad multibeam vendor format
0026_20071030_134138_Amundsen.all.mb56.gz 11.69MB Simrad multibeam vendor format
0026_20071106_045402_Amundsen.all.mb56.gz 9.70MB Simrad multibeam vendor format
0027_20070727_035919_Amundsen.all.mb56.gz 10.81MB Simrad multibeam vendor format
0027_20070729_173300_Amundsen.all.mb56.gz 15.35MB Simrad multibeam vendor format
0027_20070730_142233_Amundsen.all.mb56.gz 4.56MB Simrad multibeam vendor format
0027_20070731_115250_Amundsen.all.mb56.gz 18.49MB Simrad multibeam vendor format
0027_20070802_225943_Amundsen.all.mb56.gz 22.48MB Simrad multibeam vendor format
0027_20070804_033943_Amundsen.all.mb56.gz 9.77MB Simrad multibeam vendor format
0027_20070805_235804_Amundsen.all.mb56.gz 16.31MB Simrad multibeam vendor format
0027_20070809_113240_Amundsen.all.mb56.gz 19.47MB Simrad multibeam vendor format
0027_20070812_031642_Amundsen.all.mb56.gz 14.36MB Simrad multibeam vendor format
0027_20070815_124656_Amundsen.all.mb56.gz 19.90MB Simrad multibeam vendor format
0027_20070822_025952_Amundsen.all.mb56.gz 22.73MB Simrad multibeam vendor format
0027_20070907_094204_Amundsen.all.mb56.gz 8.49MB Simrad multibeam vendor format
0027_20070924_120019_Amundsen.all.mb56.gz 7.35MB Simrad multibeam vendor format
0027_20070930_010343_Amundsen.all.mb56.gz 12.14MB Simrad multibeam vendor format
0027_20071004_181100_ShipName.all.mb56.gz 3.81MB Simrad multibeam vendor format
0027_20071009_141132_Amundsen.all.mb56.gz 11.36MB Simrad multibeam vendor format
0027_20071014_140944_Amundsen.all.mb56.gz 9.32MB Simrad multibeam vendor format
0027_20071016_170242_Amundsen.all.mb56.gz 1.91MB Simrad multibeam vendor format
0027_20071020_110514_Amundsen.all.mb56.gz 9.22MB Simrad multibeam vendor format
0027_20071025_014403_Amundsen.all.mb56.gz 11.13MB Simrad multibeam vendor format
0027_20071030_141138_Amundsen.all.mb56.gz 9.38MB Simrad multibeam vendor format
0027_20071106_052402_Amundsen.all.mb56.gz 9.42MB Simrad multibeam vendor format
0028_20070727_042919_Amundsen.all.mb56.gz 11.44MB Simrad multibeam vendor format
0028_20070729_180259_Amundsen.all.mb56.gz 14.88MB Simrad multibeam vendor format
0028_20070730_145233_Amundsen.all.mb56.gz 4.61MB Simrad multibeam vendor format
0028_20070731_122250_Amundsen.all.mb56.gz 3.73MB Simrad multibeam vendor format
0028_20070802_232943_Amundsen.all.mb56.gz 16.72MB Simrad multibeam vendor format
0028_20070804_040943_Amundsen.all.mb56.gz 9.83MB Simrad multibeam vendor format
0028_20070806_002804_Amundsen.all.mb56.gz 16.98MB Simrad multibeam vendor format
0028_20070809_120240_Amundsen.all.mb56.gz 14.40MB Simrad multibeam vendor format
0028_20070812_034642_Amundsen.all.mb56.gz 10.42MB Simrad multibeam vendor format
0028_20070815_131656_Amundsen.all.mb56.gz 19.72MB Simrad multibeam vendor format
0028_20070822_032952_Amundsen.all.mb56.gz 21.34MB Simrad multibeam vendor format
0028_20070907_101204_Amundsen.all.mb56.gz 8.03MB Simrad multibeam vendor format
0028_20070924_123019_Amundsen.all.mb56.gz 7.61MB Simrad multibeam vendor format
0028_20070930_013343_Amundsen.all.mb56.gz 11.94MB Simrad multibeam vendor format
0028_20071004_182340_ShipName.all.mb56.gz 8.26MB Simrad multibeam vendor format
0028_20071009_144132_Amundsen.all.mb56.gz 11.70MB Simrad multibeam vendor format
0028_20071014_143945_Amundsen.all.mb56.gz 8.68MB Simrad multibeam vendor format
0028_20071016_171013_Amundsen.all.mb56.gz 8.76MB Simrad multibeam vendor format
0028_20071020_123239_Amundsen.all.mb56.gz 10.61MB Simrad multibeam vendor format
0028_20071025_021403_Amundsen.all.mb56.gz 10.96MB Simrad multibeam vendor format
0028_20071030_144138_Amundsen.all.mb56.gz 8.90MB Simrad multibeam vendor format
0028_20071106_055402_Amundsen.all.mb56.gz 9.94MB Simrad multibeam vendor format
0029_20070727_045919_Amundsen.all.mb56.gz 11.12MB Simrad multibeam vendor format
0029_20070729_183259_Amundsen.all.mb56.gz 14.26MB Simrad multibeam vendor format
0029_20070730_152233_Amundsen.all.mb56.gz 1.48MB Simrad multibeam vendor format
0029_20070731_123059_Amundsen.all.mb56.gz 18.98MB Simrad multibeam vendor format
0029_20070802_235943_Amundsen.all.mb56.gz 14.13MB Simrad multibeam vendor format
0029_20070804_043943_Amundsen.all.mb56.gz 10.16MB Simrad multibeam vendor format
0029_20070806_005804_Amundsen.all.mb56.gz 17.23MB Simrad multibeam vendor format
0029_20070809_123240_Amundsen.all.mb56.gz 16.76MB Simrad multibeam vendor format
0029_20070812_041642_Amundsen.all.mb56.gz 10.46MB Simrad multibeam vendor format
0029_20070815_134656_Amundsen.all.mb56.gz 19.83MB Simrad multibeam vendor format
0029_20070822_035952_Amundsen.all.mb56.gz 22.46MB Simrad multibeam vendor format
0029_20070907_104204_Amundsen.all.mb56.gz 9.08MB Simrad multibeam vendor format
0029_20070924_130019_Amundsen.all.mb56.gz 8.90MB Simrad multibeam vendor format
0029_20070930_020343_Amundsen.all.mb56.gz 11.52MB Simrad multibeam vendor format
0029_20071004_185225_ShipName.all.mb56.gz 9.05MB Simrad multibeam vendor format
0029_20071009_151132_Amundsen.all.mb56.gz 11.74MB Simrad multibeam vendor format
0029_20071014_150944_Amundsen.all.mb56.gz 10.24MB Simrad multibeam vendor format
0029_20071016_174013_Amundsen.all.mb56.gz 9.37MB Simrad multibeam vendor format
0029_20071020_130240_Amundsen.all.mb56.gz 11.43MB Simrad multibeam vendor format
0029_20071025_024403_Amundsen.all.mb56.gz 11.78MB Simrad multibeam vendor format
0029_20071030_151137_Amundsen.all.mb56.gz 8.75MB Simrad multibeam vendor format
0029_20071106_062402_Amundsen.all.mb56.gz 9.40MB Simrad multibeam vendor format
0030_20070727_052919_Amundsen.all.mb56.gz 10.76MB Simrad multibeam vendor format
0030_20070729_190259_Amundsen.all.mb56.gz 13.89MB Simrad multibeam vendor format
0030_20070730_153223_Amundsen.all.mb56.gz 1.61MB Simrad multibeam vendor format
0030_20070731_130059_Amundsen.all.mb56.gz 7.62MB Simrad multibeam vendor format
0030_20070803_002943_Amundsen.all.mb56.gz 14.08MB Simrad multibeam vendor format
0030_20070804_050943_Amundsen.all.mb56.gz 10.37MB Simrad multibeam vendor format
0030_20070806_012804_Amundsen.all.mb56.gz 17.05MB Simrad multibeam vendor format
0030_20070809_130240_Amundsen.all.mb56.gz 13.78MB Simrad multibeam vendor format
0030_20070812_044642_Amundsen.all.mb56.gz 11.80MB Simrad multibeam vendor format
0030_20070815_141656_Amundsen.all.mb56.gz 19.69MB Simrad multibeam vendor format
0030_20070822_042952_Amundsen.all.mb56.gz 21.90MB Simrad multibeam vendor format
0030_20070907_111204_Amundsen.all.mb56.gz 10.47MB Simrad multibeam vendor format
0030_20070924_133019_Amundsen.all.mb56.gz 8.02MB Simrad multibeam vendor format
0030_20070930_023343_Amundsen.all.mb56.gz 11.55MB Simrad multibeam vendor format
0030_20071004_192225_ShipName.all.mb56.gz 8.58MB Simrad multibeam vendor format
0030_20071009_154132_Amundsen.all.mb56.gz 11.56MB Simrad multibeam vendor format
0030_20071014_153944_Amundsen.all.mb56.gz 10.81MB Simrad multibeam vendor format
0030_20071016_181013_Amundsen.all.mb56.gz 10.13MB Simrad multibeam vendor format
0030_20071020_133240_Amundsen.all.mb56.gz 11.15MB Simrad multibeam vendor format
0030_20071025_031403_Amundsen.all.mb56.gz 11.28MB Simrad multibeam vendor format
0030_20071030_154137_Amundsen.all.mb56.gz 9.59MB Simrad multibeam vendor format
0030_20071106_065401_Amundsen.all.mb56.gz 9.48MB Simrad multibeam vendor format
0031_20070727_055919_Amundsen.all.mb56.gz 10.55MB Simrad multibeam vendor format
0031_20070729_193259_Amundsen.all.mb56.gz 13.92MB Simrad multibeam vendor format
0031_20070730_154327_Amundsen.all.mb56.gz 4.37MB Simrad multibeam vendor format
0031_20070731_131255_Amundsen.all.mb56.gz 20.64MB Simrad multibeam vendor format
0031_20070803_005943_Amundsen.all.mb56.gz 14.06MB Simrad multibeam vendor format
0031_20070804_053943_Amundsen.all.mb56.gz 10.15MB Simrad multibeam vendor format
0031_20070806_015803_Amundsen.all.mb56.gz 16.80MB Simrad multibeam vendor format
0031_20070809_133240_Amundsen.all.mb56.gz 14.82MB Simrad multibeam vendor format
0031_20070812_051642_Amundsen.all.mb56.gz 14.72MB Simrad multibeam vendor format
0031_20070815_144656_Amundsen.all.mb56.gz 18.89MB Simrad multibeam vendor format
0031_20070822_045952_Amundsen.all.mb56.gz 20.73MB Simrad multibeam vendor format
0031_20070907_114204_Amundsen.all.mb56.gz 12.37MB Simrad multibeam vendor format
0031_20070924_140019_Amundsen.all.mb56.gz 10.92MB Simrad multibeam vendor format
0031_20070930_030343_Amundsen.all.mb56.gz 11.97MB Simrad multibeam vendor format
0031_20071004_195225_ShipName.all.mb56.gz 8.50MB Simrad multibeam vendor format
0031_20071009_161132_Amundsen.all.mb56.gz 11.95MB Simrad multibeam vendor format
0031_20071014_160944_Amundsen.all.mb56.gz 10.40MB Simrad multibeam vendor format
0031_20071016_184013_Amundsen.all.mb56.gz 10.49MB Simrad multibeam vendor format
0031_20071020_140240_Amundsen.all.mb56.gz 11.23MB Simrad multibeam vendor format
0031_20071025_034403_Amundsen.all.mb56.gz 9.79MB Simrad multibeam vendor format
0031_20071030_161137_Amundsen.all.mb56.gz 9.01MB Simrad multibeam vendor format
0031_20071106_072401_Amundsen.all.mb56.gz 9.53MB Simrad multibeam vendor format
0032_20070727_062919_Amundsen.all.mb56.gz 10.04MB Simrad multibeam vendor format
0032_20070729_200259_Amundsen.all.mb56.gz 13.65MB Simrad multibeam vendor format
0032_20070730_161327_Amundsen.all.mb56.gz 4.32MB Simrad multibeam vendor format
0032_20070731_134255_Amundsen.all.mb56.gz 18.86MB Simrad multibeam vendor format
0032_20070803_012943_Amundsen.all.mb56.gz 14.35MB Simrad multibeam vendor format
0032_20070804_060943_Amundsen.all.mb56.gz 9.79MB Simrad multibeam vendor format
0032_20070806_022803_Amundsen.all.mb56.gz 17.72MB Simrad multibeam vendor format
0032_20070809_140240_Amundsen.all.mb56.gz 17.32MB Simrad multibeam vendor format
0032_20070812_054642_Amundsen.all.mb56.gz 17.05MB Simrad multibeam vendor format
0032_20070815_151656_Amundsen.all.mb56.gz 18.99MB Simrad multibeam vendor format
0032_20070822_052952_Amundsen.all.mb56.gz 21.15MB Simrad multibeam vendor format
0032_20070907_121204_Amundsen.all.mb56.gz 12.98MB Simrad multibeam vendor format
0032_20070924_143019_Amundsen.all.mb56.gz 11.05MB Simrad multibeam vendor format
0032_20070930_033343_Amundsen.all.mb56.gz 11.87MB Simrad multibeam vendor format
0032_20071004_202225_ShipName.all.mb56.gz 7.69MB Simrad multibeam vendor format
0032_20071009_164132_Amundsen.all.mb56.gz 11.63MB Simrad multibeam vendor format
0032_20071014_163944_Amundsen.all.mb56.gz 10.25MB Simrad multibeam vendor format
0032_20071016_191013_Amundsen.all.mb56.gz 9.80MB Simrad multibeam vendor format
0032_20071020_143240_Amundsen.all.mb56.gz 10.14MB Simrad multibeam vendor format
0032_20071025_041403_Amundsen.all.mb56.gz 10.85MB Simrad multibeam vendor format
0032_20071030_164137_Amundsen.all.mb56.gz 9.60MB Simrad multibeam vendor format
0032_20071106_075401_Amundsen.all.mb56.gz 9.11MB Simrad multibeam vendor format
0033_20070727_065919_Amundsen.all.mb56.gz 10.14MB Simrad multibeam vendor format
0033_20070729_203259_Amundsen.all.mb56.gz 13.53MB Simrad multibeam vendor format
0033_20070730_164327_Amundsen.all.mb56.gz 4.37MB Simrad multibeam vendor format
0033_20070731_141255_Amundsen.all.mb56.gz 16.72MB Simrad multibeam vendor format
0033_20070803_015942_Amundsen.all.mb56.gz 14.32MB Simrad multibeam vendor format
0033_20070804_063943_Amundsen.all.mb56.gz 10.23MB Simrad multibeam vendor format
0033_20070806_025803_Amundsen.all.mb56.gz 17.12MB Simrad multibeam vendor format
0033_20070809_143240_Amundsen.all.mb56.gz 14.30MB Simrad multibeam vendor format
0033_20070812_061642_Amundsen.all.mb56.gz 18.26MB Simrad multibeam vendor format
0033_20070815_154656_Amundsen.all.mb56.gz 18.77MB Simrad multibeam vendor format
0033_20070822_055952_Amundsen.all.mb56.gz 20.15MB Simrad multibeam vendor format
0033_20070907_124204_Amundsen.all.mb56.gz 16.24MB Simrad multibeam vendor format
0033_20070924_150019_Amundsen.all.mb56.gz 11.43MB Simrad multibeam vendor format
0033_20070930_040343_Amundsen.all.mb56.gz 11.84MB Simrad multibeam vendor format
0033_20071004_205225_ShipName.all.mb56.gz 6.73MB Simrad multibeam vendor format
0033_20071009_171132_Amundsen.all.mb56.gz 10.86MB Simrad multibeam vendor format
0033_20071014_170944_Amundsen.all.mb56.gz 10.17MB Simrad multibeam vendor format
0033_20071016_194013_Amundsen.all.mb56.gz 10.47MB Simrad multibeam vendor format
0033_20071020_150240_Amundsen.all.mb56.gz 10.86MB Simrad multibeam vendor format
0033_20071025_044403_Amundsen.all.mb56.gz 11.07MB Simrad multibeam vendor format
0033_20071030_171137_Amundsen.all.mb56.gz 3.22MB Simrad multibeam vendor format
0033_20071106_082401_Amundsen.all.mb56.gz 9.31MB Simrad multibeam vendor format
0034_20070727_072918_Amundsen.all.mb56.gz 8.66MB Simrad multibeam vendor format
0034_20070729_210259_Amundsen.all.mb56.gz 12.55MB Simrad multibeam vendor format
0034_20070730_171327_Amundsen.all.mb56.gz 4.52MB Simrad multibeam vendor format
0034_20070731_144255_Amundsen.all.mb56.gz 23.69MB Simrad multibeam vendor format
0034_20070803_022942_Amundsen.all.mb56.gz 14.17MB Simrad multibeam vendor format
0034_20070804_070943_Amundsen.all.mb56.gz 10.43MB Simrad multibeam vendor format
0034_20070806_032803_Amundsen.all.mb56.gz 14.23MB Simrad multibeam vendor format
0034_20070809_150240_Amundsen.all.mb56.gz 15.74MB Simrad multibeam vendor format
0034_20070812_064642_Amundsen.all.mb56.gz 20.32MB Simrad multibeam vendor format
0034_20070815_161656_Amundsen.all.mb56.gz 19.20MB Simrad multibeam vendor format
0034_20070822_062952_Amundsen.all.mb56.gz 20.74MB Simrad multibeam vendor format
0034_20070907_131204_Amundsen.all.mb56.gz 18.28MB Simrad multibeam vendor format
0034_20070930_043343_Amundsen.all.mb56.gz 11.26MB Simrad multibeam vendor format
0034_20071004_212225_ShipName.all.mb56.gz 8.09MB Simrad multibeam vendor format
0034_20071009_213642_Amundsen.all.mb56.gz 11.62MB Simrad multibeam vendor format
0034_20071014_173944_Amundsen.all.mb56.gz 9.09MB Simrad multibeam vendor format
0034_20071016_201013_Amundsen.all.mb56.gz 8.92MB Simrad multibeam vendor format
0034_20071020_153240_Amundsen.all.mb56.gz 0.51MB Simrad multibeam vendor format
0034_20071025_051403_Amundsen.all.mb56.gz 10.43MB Simrad multibeam vendor format
0034_20071031_023413_Amundsen.all.mb56.gz 2.59MB Simrad multibeam vendor format
0034_20071106_085401_Amundsen.all.mb56.gz 9.29MB Simrad multibeam vendor format
0035_20070727_075918_Amundsen.all.mb56.gz 8.55MB Simrad multibeam vendor format
0035_20070729_213259_Amundsen.all.mb56.gz 9.87MB Simrad multibeam vendor format
0035_20070730_174327_Amundsen.all.mb56.gz 141.9KB Simrad multibeam vendor format
0035_20070731_151255_Amundsen.all.mb56.gz 24.49MB Simrad multibeam vendor format
0035_20070803_025942_Amundsen.all.mb56.gz 14.17MB Simrad multibeam vendor format
0035_20070804_073943_Amundsen.all.mb56.gz 10.72MB Simrad multibeam vendor format
0035_20070806_035803_Amundsen.all.mb56.gz 14.11MB Simrad multibeam vendor format
0035_20070809_153240_Amundsen.all.mb56.gz 14.65MB Simrad multibeam vendor format
0035_20070812_071642_Amundsen.all.mb56.gz 19.02MB Simrad multibeam vendor format
0035_20070815_164656_Amundsen.all.mb56.gz 3.23MB Simrad multibeam vendor format
0035_20070822_065952_Amundsen.all.mb56.gz 22.21MB Simrad multibeam vendor format
0035_20070907_134204_Amundsen.all.mb56.gz 18.26MB Simrad multibeam vendor format
0035_20070930_050343_Amundsen.all.mb56.gz 12.04MB Simrad multibeam vendor format
0035_20071004_215225_ShipName.all.mb56.gz 7.25MB Simrad multibeam vendor format
0035_20071009_220643_Amundsen.all.mb56.gz 10.93MB Simrad multibeam vendor format
0035_20071014_180944_Amundsen.all.mb56.gz 9.21MB Simrad multibeam vendor format
0035_20071016_204441_Amundsen.all.mb56.gz 10.04MB Simrad multibeam vendor format
0035_20071020_160125_Amundsen.all.mb56.gz 10.88MB Simrad multibeam vendor format
0035_20071025_054403_Amundsen.all.mb56.gz 8.57MB Simrad multibeam vendor format
0035_20071031_031102_Amundsen.all.mb56.gz 9.22MB Simrad multibeam vendor format
0035_20071106_092401_Amundsen.all.mb56.gz 9.31MB Simrad multibeam vendor format
0036_20070727_082918_Amundsen.all.mb56.gz 7.98MB Simrad multibeam vendor format
0036_20070729_220259_Amundsen.all.mb56.gz 7.56MB Simrad multibeam vendor format
0036_20070730_174421_Amundsen.all.mb56.gz 2.07MB Simrad multibeam vendor format
0036_20070731_154255_Amundsen.all.mb56.gz 24.82MB Simrad multibeam vendor format
0036_20070803_032942_Amundsen.all.mb56.gz 14.24MB Simrad multibeam vendor format
0036_20070804_080943_Amundsen.all.mb56.gz 10.63MB Simrad multibeam vendor format
0036_20070806_042803_Amundsen.all.mb56.gz 14.64MB Simrad multibeam vendor format
0036_20070809_160240_Amundsen.all.mb56.gz 13.80MB Simrad multibeam vendor format
0036_20070812_074642_Amundsen.all.mb56.gz 21.12MB Simrad multibeam vendor format
0036_20070815_165607_Amundsen.all.mb56.gz 17.04MB Simrad multibeam vendor format
0036_20070822_072952_Amundsen.all.mb56.gz 23.54MB Simrad multibeam vendor format
0036_20070907_141204_Amundsen.all.mb56.gz 0.73MB Simrad multibeam vendor format
0036_20070930_053343_Amundsen.all.mb56.gz 12.08MB Simrad multibeam vendor format
0036_20071004_222225_ShipName.all.mb56.gz 7.95MB Simrad multibeam vendor format
0036_20071009_230246_Amundsen.all.mb56.gz 9.18MB Simrad multibeam vendor format
0036_20071014_183944_Amundsen.all.mb56.gz 9.23MB Simrad multibeam vendor format
0036_20071016_211442_Amundsen.all.mb56.gz 4.57MB Simrad multibeam vendor format
0036_20071020_163125_Amundsen.all.mb56.gz 9.98MB Simrad multibeam vendor format
0036_20071025_061403_Amundsen.all.mb56.gz 288.0KB Simrad multibeam vendor format
0036_20071031_034103_Amundsen.all.mb56.gz 8.78MB Simrad multibeam vendor format
0036_20071106_095401_Amundsen.all.mb56.gz 8.17MB Simrad multibeam vendor format
0037_20070727_102028_Amundsen.all.mb56.gz 14.26MB Simrad multibeam vendor format
0037_20070729_223259_Amundsen.all.mb56.gz 5.52MB Simrad multibeam vendor format
0037_20070730_175848_Amundsen.all.mb56.gz 4.58MB Simrad multibeam vendor format
0037_20070731_161255_Amundsen.all.mb56.gz 24.73MB Simrad multibeam vendor format
0037_20070803_035942_Amundsen.all.mb56.gz 13.66MB Simrad multibeam vendor format
0037_20070804_083943_Amundsen.all.mb56.gz 10.46MB Simrad multibeam vendor format
0037_20070806_045803_Amundsen.all.mb56.gz 15.65MB Simrad multibeam vendor format
0037_20070809_163240_Amundsen.all.mb56.gz 14.98MB Simrad multibeam vendor format
0037_20070812_081642_Amundsen.all.mb56.gz 21.28MB Simrad multibeam vendor format
0037_20070815_172607_Amundsen.all.mb56.gz 17.04MB Simrad multibeam vendor format
0037_20070822_075952_Amundsen.all.mb56.gz 23.18MB Simrad multibeam vendor format
0037_20070907_234141_Amundsen.all.mb56.gz 15.46MB Simrad multibeam vendor format
0037_20070930_060343_Amundsen.all.mb56.gz 12.27MB Simrad multibeam vendor format
0037_20071004_225225_ShipName.all.mb56.gz 7.96MB Simrad multibeam vendor format
0037_20071009_233247_Amundsen.all.mb56.gz 7.73MB Simrad multibeam vendor format
0037_20071014_190944_Amundsen.all.mb56.gz 8.82MB Simrad multibeam vendor format
0037_20071016_224712_Amundsen.all.mb56.gz 3.77MB Simrad multibeam vendor format
0037_20071020_170125_Amundsen.all.mb56.gz 10.24MB Simrad multibeam vendor format
0037_20071025_065928_Amundsen.all.mb56.gz 9.96MB Simrad multibeam vendor format
0037_20071031_041102_Amundsen.all.mb56.gz 8.97MB Simrad multibeam vendor format
0037_20071106_102401_Amundsen.all.mb56.gz 7.67MB Simrad multibeam vendor format
0038_20070727_105028_Amundsen.all.mb56.gz 11.85MB Simrad multibeam vendor format
0038_20070729_230259_Amundsen.all.mb56.gz 4.55MB Simrad multibeam vendor format
0038_20070730_182848_Amundsen.all.mb56.gz 4.66MB Simrad multibeam vendor format
0038_20070731_164254_Amundsen.all.mb56.gz 23.45MB Simrad multibeam vendor format
0038_20070803_042942_Amundsen.all.mb56.gz 13.82MB Simrad multibeam vendor format
0038_20070804_090943_Amundsen.all.mb56.gz 10.46MB Simrad multibeam vendor format
0038_20070806_052803_Amundsen.all.mb56.gz 17.44MB Simrad multibeam vendor format
0038_20070809_170240_Amundsen.all.mb56.gz 16.87MB Simrad multibeam vendor format
0038_20070812_084642_Amundsen.all.mb56.gz 21.56MB Simrad multibeam vendor format
0038_20070815_175607_Amundsen.all.mb56.gz 16.86MB Simrad multibeam vendor format
0038_20070822_082952_Amundsen.all.mb56.gz 27.89MB Simrad multibeam vendor format
0038_20070908_001141_Amundsen.all.mb56.gz 15.01MB Simrad multibeam vendor format
0038_20070925_174529_Amundsen.all.mb56.gz 8.97MB Simrad multibeam vendor format
0038_20070930_063343_Amundsen.all.mb56.gz 10.29MB Simrad multibeam vendor format
0038_20071004_232226_ShipName.all.mb56.gz 8.78MB Simrad multibeam vendor format
0038_20071010_000246_Amundsen.all.mb56.gz 7.19MB Simrad multibeam vendor format
0038_20071014_193944_Amundsen.all.mb56.gz 8.21MB Simrad multibeam vendor format
0038_20071016_233339_Amundsen.all.mb56.gz 8.68MB Simrad multibeam vendor format
0038_20071020_173125_Amundsen.all.mb56.gz 10.17MB Simrad multibeam vendor format
0038_20071025_072928_Amundsen.all.mb56.gz 8.99MB Simrad multibeam vendor format
0038_20071031_044102_Amundsen.all.mb56.gz 8.97MB Simrad multibeam vendor format
0038_20071106_105401_Amundsen.all.mb56.gz 7.47MB Simrad multibeam vendor format
0039_20070727_112028_Amundsen.all.mb56.gz 10.23MB Simrad multibeam vendor format
0039_20070729_233259_Amundsen.all.mb56.gz 4.52MB Simrad multibeam vendor format
0039_20070730_185848_Amundsen.all.mb56.gz 4.71MB Simrad multibeam vendor format
0039_20070731_171254_Amundsen.all.mb56.gz 19.54MB Simrad multibeam vendor format
0039_20070803_045942_Amundsen.all.mb56.gz 11.68MB Simrad multibeam vendor format
0039_20070804_093943_Amundsen.all.mb56.gz 10.61MB Simrad multibeam vendor format
0039_20070806_055803_Amundsen.all.mb56.gz 18.96MB Simrad multibeam vendor format
0039_20070809_173240_Amundsen.all.mb56.gz 15.73MB Simrad multibeam vendor format
0039_20070812_091642_Amundsen.all.mb56.gz 22.53MB Simrad multibeam vendor format
0039_20070815_182607_Amundsen.all.mb56.gz 16.52MB Simrad multibeam vendor format
0039_20070822_085952_Amundsen.all.mb56.gz 26.53MB Simrad multibeam vendor format
0039_20070908_004141_Amundsen.all.mb56.gz 17.15MB Simrad multibeam vendor format
0039_20070925_175906_Amundsen.all.mb56.gz 14.61MB Simrad multibeam vendor format
0039_20070930_070343_Amundsen.all.mb56.gz 10.55MB Simrad multibeam vendor format
0039_20071004_235225_ShipName.all.mb56.gz 7.41MB Simrad multibeam vendor format
0039_20071010_003246_Amundsen.all.mb56.gz 8.63MB Simrad multibeam vendor format
0039_20071014_200944_Amundsen.all.mb56.gz 8.39MB Simrad multibeam vendor format
0039_20071018_000339_Amundsen.all.mb56.gz 4.92MB Simrad multibeam vendor format
0039_20071020_180127_Amundsen.all.mb56.gz 10.28MB Simrad multibeam vendor format
0039_20071025_075928_Amundsen.all.mb56.gz 8.63MB Simrad multibeam vendor format
0039_20071031_051102_Amundsen.all.mb56.gz 3.92MB Simrad multibeam vendor format
0039_20071106_112401_Amundsen.all.mb56.gz 7.65MB Simrad multibeam vendor format
0040_20070727_115028_Amundsen.all.mb56.gz 8.99MB Simrad multibeam vendor format
0040_20070730_000259_Amundsen.all.mb56.gz 4.62MB Simrad multibeam vendor format
0040_20070730_192848_Amundsen.all.mb56.gz 4.52MB Simrad multibeam vendor format
0040_20070731_174254_Amundsen.all.mb56.gz 17.66MB Simrad multibeam vendor format
0040_20070803_052942_Amundsen.all.mb56.gz 10.92MB Simrad multibeam vendor format
0040_20070804_100943_Amundsen.all.mb56.gz 10.47MB Simrad multibeam vendor format
0040_20070806_062803_Amundsen.all.mb56.gz 19.01MB Simrad multibeam vendor format
0040_20070809_180240_Amundsen.all.mb56.gz 15.92MB Simrad multibeam vendor format
0040_20070812_094642_Amundsen.all.mb56.gz 26.04MB Simrad multibeam vendor format
0040_20070815_185607_Amundsen.all.mb56.gz 12.71MB Simrad multibeam vendor format
0040_20070815_192734_Amundsen.all.mb56.gz 15.75MB Simrad multibeam vendor format
0040_20070822_092952_Amundsen.all.mb56.gz 24.88MB Simrad multibeam vendor format
0040_20070908_011141_Amundsen.all.mb56.gz 17.92MB Simrad multibeam vendor format
0040_20070925_182906_Amundsen.all.mb56.gz 10.95MB Simrad multibeam vendor format
0040_20070930_073343_Amundsen.all.mb56.gz 10.00MB Simrad multibeam vendor format
0040_20071005_002225_ShipName.all.mb56.gz 6.58MB Simrad multibeam vendor format
0040_20071010_010246_Amundsen.all.mb56.gz 6.43MB Simrad multibeam vendor format
0040_20071014_203944_Amundsen.all.mb56.gz 7.79MB Simrad multibeam vendor format
0040_20071020_183125_Amundsen.all.mb56.gz 10.75MB Simrad multibeam vendor format
0040_20071025_082928_Amundsen.all.mb56.gz 9.13MB Simrad multibeam vendor format
0040_20071031_054917_Amundsen.all.mb56.gz 8.82MB Simrad multibeam vendor format
0040_20071106_115401_Amundsen.all.mb56.gz 7.40MB Simrad multibeam vendor format
0041_20070727_122028_Amundsen.all.mb56.gz 8.94MB Simrad multibeam vendor format
0041_20070730_003259_Amundsen.all.mb56.gz 4.77MB Simrad multibeam vendor format
0041_20070730_195848_Amundsen.all.mb56.gz 1.25MB Simrad multibeam vendor format
0041_20070731_181254_Amundsen.all.mb56.gz 17.39MB Simrad multibeam vendor format
0041_20070803_055942_Amundsen.all.mb56.gz 9.08MB Simrad multibeam vendor format
0041_20070804_103943_Amundsen.all.mb56.gz 10.53MB Simrad multibeam vendor format
0041_20070806_065803_Amundsen.all.mb56.gz 17.70MB Simrad multibeam vendor format
0041_20070809_183240_Amundsen.all.mb56.gz 15.13MB Simrad multibeam vendor format
0041_20070812_101642_Amundsen.all.mb56.gz 28.91MB Simrad multibeam vendor format
0041_20070815_195734_Amundsen.all.mb56.gz 15.77MB Simrad multibeam vendor format
0041_20070822_095952_Amundsen.all.mb56.gz 25.06MB Simrad multibeam vendor format
0041_20070908_014141_Amundsen.all.mb56.gz 15.77MB Simrad multibeam vendor format
0041_20070925_185906_Amundsen.all.mb56.gz 7.83MB Simrad multibeam vendor format
0041_20070930_080343_Amundsen.all.mb56.gz 8.78MB Simrad multibeam vendor format
0041_20071005_005225_ShipName.all.mb56.gz 6.84MB Simrad multibeam vendor format
0041_20071010_013246_Amundsen.all.mb56.gz 7.96MB Simrad multibeam vendor format
0041_20071014_210944_Amundsen.all.mb56.gz 7.85MB Simrad multibeam vendor format
0041_20071018_005448_Amundsen.all.mb56.gz 12.11MB Simrad multibeam vendor format
0041_20071020_190125_Amundsen.all.mb56.gz 11.10MB Simrad multibeam vendor format
0041_20071025_085928_Amundsen.all.mb56.gz 9.01MB Simrad multibeam vendor format
0041_20071031_061917_Amundsen.all.mb56.gz 9.12MB Simrad multibeam vendor format
0041_20071106_122401_Amundsen.all.mb56.gz 7.29MB Simrad multibeam vendor format
0042_20070727_125028_Amundsen.all.mb56.gz 8.85MB Simrad multibeam vendor format
0042_20070730_010259_Amundsen.all.mb56.gz 4.85MB Simrad multibeam vendor format
0042_20070730_200717_Amundsen.all.mb56.gz 1.51MB Simrad multibeam vendor format
0042_20070731_184254_Amundsen.all.mb56.gz 14.40MB Simrad multibeam vendor format
0042_20070803_062942_Amundsen.all.mb56.gz 8.44MB Simrad multibeam vendor format
0042_20070804_110943_Amundsen.all.mb56.gz 10.87MB Simrad multibeam vendor format
0042_20070806_072803_Amundsen.all.mb56.gz 15.97MB Simrad multibeam vendor format
0042_20070809_190240_Amundsen.all.mb56.gz 13.40MB Simrad multibeam vendor format
0042_20070812_104642_Amundsen.all.mb56.gz 29.29MB Simrad multibeam vendor format
0042_20070815_202734_Amundsen.all.mb56.gz 1.17MB Simrad multibeam vendor format
0042_20070822_102952_Amundsen.all.mb56.gz 14.42MB Simrad multibeam vendor format
0042_20070908_021141_Amundsen.all.mb56.gz 14.54MB Simrad multibeam vendor format
0042_20070925_192906_Amundsen.all.mb56.gz 7.53MB Simrad multibeam vendor format
0042_20070930_083343_Amundsen.all.mb56.gz 9.00MB Simrad multibeam vendor format
0042_20071005_012225_ShipName.all.mb56.gz 3.69MB Simrad multibeam vendor format
0042_20071010_020246_Amundsen.all.mb56.gz 8.56MB Simrad multibeam vendor format
0042_20071014_213944_Amundsen.all.mb56.gz 8.90MB Simrad multibeam vendor format
0042_20071018_012448_Amundsen.all.mb56.gz 7.81MB Simrad multibeam vendor format
0042_20071020_193125_Amundsen.all.mb56.gz 3.83MB Simrad multibeam vendor format
0042_20071025_092928_Amundsen.all.mb56.gz 3.85MB Simrad multibeam vendor format
0042_20071031_064917_Amundsen.all.mb56.gz 9.02MB Simrad multibeam vendor format
0042_20071106_125401_Amundsen.all.mb56.gz 7.39MB Simrad multibeam vendor format
0043_20070727_132028_Amundsen.all.mb56.gz 9.33MB Simrad multibeam vendor format
0043_20070730_013259_Amundsen.all.mb56.gz 1.17MB Simrad multibeam vendor format
0043_20070730_201736_Amundsen.all.mb56.gz 4.30MB Simrad multibeam vendor format
0043_20070731_190926_Amundsen.all.mb56.gz 18.79MB Simrad multibeam vendor format
0043_20070803_065942_Amundsen.all.mb56.gz 8.58MB Simrad multibeam vendor format
0043_20070804_113943_Amundsen.all.mb56.gz 11.71MB Simrad multibeam vendor format
0043_20070806_075803_Amundsen.all.mb56.gz 14.27MB Simrad multibeam vendor format
0043_20070809_193240_Amundsen.all.mb56.gz 15.12MB Simrad multibeam vendor format
0043_20070812_111641_Amundsen.all.mb56.gz 30.68MB Simrad multibeam vendor format
0043_20070815_203131_Amundsen.all.mb56.gz 15.93MB Simrad multibeam vendor format
0043_20070823_003339_Amundsen.all.mb56.gz 23.89MB Simrad multibeam vendor format
0043_20070908_024141_Amundsen.all.mb56.gz 13.64MB Simrad multibeam vendor format
0043_20070925_195906_Amundsen.all.mb56.gz 7.50MB Simrad multibeam vendor format
0043_20070930_090343_Amundsen.all.mb56.gz 9.47MB Simrad multibeam vendor format
0043_20071005_014000_ShipName.all.mb56.gz 6.57MB Simrad multibeam vendor format
0043_20071010_023246_Amundsen.all.mb56.gz 8.33MB Simrad multibeam vendor format
0043_20071014_220944_Amundsen.all.mb56.gz 9.28MB Simrad multibeam vendor format
0043_20071017_014311_Amundsen.all.mb56.gz 12.35MB Simrad multibeam vendor format
0043_20071021_001921_Amundsen.all.mb56.gz 8.50MB Simrad multibeam vendor format
0043_20071025_123101_Amundsen.all.mb56.gz 8.25MB Simrad multibeam vendor format
0043_20071031_071917_Amundsen.all.mb56.gz 9.65MB Simrad multibeam vendor format
0043_20071106_132401_Amundsen.all.mb56.gz 7.74MB Simrad multibeam vendor format
0044_20070727_135028_Amundsen.all.mb56.gz 10.87MB Simrad multibeam vendor format
0044_20070730_204736_Amundsen.all.mb56.gz 2.06MB Simrad multibeam vendor format
0044_20070731_193926_Amundsen.all.mb56.gz 19.38MB Simrad multibeam vendor format
0044_20070803_072942_Amundsen.all.mb56.gz 10.27MB Simrad multibeam vendor format
0044_20070804_120943_Amundsen.all.mb56.gz 13.45MB Simrad multibeam vendor format
0044_20070806_082803_Amundsen.all.mb56.gz 17.35MB Simrad multibeam vendor format
0044_20070809_200240_Amundsen.all.mb56.gz 14.38MB Simrad multibeam vendor format
0044_20070812_114641_Amundsen.all.mb56.gz 29.87MB Simrad multibeam vendor format
0044_20070815_210131_Amundsen.all.mb56.gz 16.04MB Simrad multibeam vendor format
0044_20070823_010339_Amundsen.all.mb56.gz 26.93MB Simrad multibeam vendor format
0044_20070908_031141_Amundsen.all.mb56.gz 13.48MB Simrad multibeam vendor format
0044_20070925_202906_Amundsen.all.mb56.gz 7.06MB Simrad multibeam vendor format
0044_20070930_092557_Amundsen.all.mb56.gz 13.33MB Simrad multibeam vendor format
0044_20071005_021000_ShipName.all.mb56.gz 6.24MB Simrad multibeam vendor format
0044_20071010_030246_Amundsen.all.mb56.gz 8.78MB Simrad multibeam vendor format
0044_20071014_223945_Amundsen.all.mb56.gz 10.71MB Simrad multibeam vendor format
0044_20071017_021311_Amundsen.all.mb56.gz 11.20MB Simrad multibeam vendor format
0044_20071021_004922_Amundsen.all.mb56.gz 8.30MB Simrad multibeam vendor format
0044_20071025_130101_Amundsen.all.mb56.gz 5.25MB Simrad multibeam vendor format
0044_20071031_074917_Amundsen.all.mb56.gz 8.84MB Simrad multibeam vendor format
0044_20071106_135401_Amundsen.all.mb56.gz 7.45MB Simrad multibeam vendor format
0045_20070727_142028_Amundsen.all.mb56.gz 11.00MB Simrad multibeam vendor format
0045_20070730_210146_Amundsen.all.mb56.gz 4.43MB Simrad multibeam vendor format
0045_20070731_200926_Amundsen.all.mb56.gz 17.99MB Simrad multibeam vendor format
0045_20070803_075942_Amundsen.all.mb56.gz 10.84MB Simrad multibeam vendor format
0045_20070804_123943_Amundsen.all.mb56.gz 15.38MB Simrad multibeam vendor format
0045_20070806_085803_Amundsen.all.mb56.gz 18.07MB Simrad multibeam vendor format
0045_20070809_203239_Amundsen.all.mb56.gz 13.92MB Simrad multibeam vendor format
0045_20070812_121641_Amundsen.all.mb56.gz 27.09MB Simrad multibeam vendor format
0045_20070815_213131_Amundsen.all.mb56.gz 15.97MB Simrad multibeam vendor format
0045_20070823_013339_Amundsen.all.mb56.gz 26.70MB Simrad multibeam vendor format
0045_20070908_034141_Amundsen.all.mb56.gz 12.98MB Simrad multibeam vendor format
0045_20070925_205906_Amundsen.all.mb56.gz 6.76MB Simrad multibeam vendor format
0045_20070930_095557_Amundsen.all.mb56.gz 10.49MB Simrad multibeam vendor format
0045_20071005_024000_ShipName.all.mb56.gz 7.27MB Simrad multibeam vendor format
0045_20071010_033246_Amundsen.all.mb56.gz 9.55MB Simrad multibeam vendor format
0045_20071014_230945_Amundsen.all.mb56.gz 11.01MB Simrad multibeam vendor format
0045_20071017_024311_Amundsen.all.mb56.gz 8.41MB Simrad multibeam vendor format
0045_20071021_024343_Amundsen.all.mb56.gz 11.02MB Simrad multibeam vendor format
0045_20071026_064201_Amundsen.all.mb56.gz 8.56MB Simrad multibeam vendor format
0045_20071031_081917_Amundsen.all.mb56.gz 9.31MB Simrad multibeam vendor format
0045_20071106_142401_Amundsen.all.mb56.gz 7.24MB Simrad multibeam vendor format
0046_20070727_145028_Amundsen.all.mb56.gz 10.41MB Simrad multibeam vendor format
0046_20070730_213146_Amundsen.all.mb56.gz 4.40MB Simrad multibeam vendor format
0046_20070731_203926_Amundsen.all.mb56.gz 19.02MB Simrad multibeam vendor format
0046_20070803_082942_Amundsen.all.mb56.gz 10.99MB Simrad multibeam vendor format
0046_20070804_130943_Amundsen.all.mb56.gz 16.69MB Simrad multibeam vendor format
0046_20070806_092803_Amundsen.all.mb56.gz 17.64MB Simrad multibeam vendor format
0046_20070809_210239_Amundsen.all.mb56.gz 15.54MB Simrad multibeam vendor format
0046_20070812_124641_Amundsen.all.mb56.gz 30.80MB Simrad multibeam vendor format
0046_20070815_220131_Amundsen.all.mb56.gz 16.91MB Simrad multibeam vendor format
0046_20070823_020339_Amundsen.all.mb56.gz 26.99MB Simrad multibeam vendor format
0046_20070908_041141_Amundsen.all.mb56.gz 13.03MB Simrad multibeam vendor format
0046_20070925_212906_Amundsen.all.mb56.gz 7.58MB Simrad multibeam vendor format
0046_20070930_102557_Amundsen.all.mb56.gz 10.72MB Simrad multibeam vendor format
0046_20071005_031000_ShipName.all.mb56.gz 1.50MB Simrad multibeam vendor format
0046_20071010_040246_Amundsen.all.mb56.gz 9.47MB Simrad multibeam vendor format
0046_20071014_233945_Amundsen.all.mb56.gz 10.02MB Simrad multibeam vendor format
0046_20071017_044116_Amundsen.all.mb56.gz 10.45MB Simrad multibeam vendor format
0046_20071021_031343_Amundsen.all.mb56.gz 9.74MB Simrad multibeam vendor format
0046_20071026_071201_Amundsen.all.mb56.gz 7.84MB Simrad multibeam vendor format
0046_20071031_084917_Amundsen.all.mb56.gz 8.54MB Simrad multibeam vendor format
0046_20071106_145401_Amundsen.all.mb56.gz 6.51MB Simrad multibeam vendor format
0047_20070727_152027_Amundsen.all.mb56.gz 8.66MB Simrad multibeam vendor format
0047_20070730_220146_Amundsen.all.mb56.gz 2.90MB Simrad multibeam vendor format
0047_20070731_210926_Amundsen.all.mb56.gz 11.76MB Simrad multibeam vendor format
0047_20070803_085942_Amundsen.all.mb56.gz 10.68MB Simrad multibeam vendor format
0047_20070804_133943_Amundsen.all.mb56.gz 16.94MB Simrad multibeam vendor format
0047_20070806_095803_Amundsen.all.mb56.gz 17.18MB Simrad multibeam vendor format
0047_20070809_213239_Amundsen.all.mb56.gz 14.81MB Simrad multibeam vendor format
0047_20070812_131641_Amundsen.all.mb56.gz 30.67MB Simrad multibeam vendor format
0047_20070815_223131_Amundsen.all.mb56.gz 17.84MB Simrad multibeam vendor format
0047_20070823_023339_Amundsen.all.mb56.gz 23.77MB Simrad multibeam vendor format
0047_20070908_044141_Amundsen.all.mb56.gz 13.27MB Simrad multibeam vendor format
0047_20070925_215906_Amundsen.all.mb56.gz 11.20MB Simrad multibeam vendor format
0047_20070930_105557_Amundsen.all.mb56.gz 10.41MB Simrad multibeam vendor format
0047_20071005_031801_ShipName.all.mb56.gz 6.48MB Simrad multibeam vendor format
0047_20071010_043247_Amundsen.all.mb56.gz 9.46MB Simrad multibeam vendor format
0047_20071015_000945_Amundsen.all.mb56.gz 11.31MB Simrad multibeam vendor format
0047_20071017_051116_Amundsen.all.mb56.gz 10.70MB Simrad multibeam vendor format
0047_20071021_050518_Amundsen.all.mb56.gz 11.02MB Simrad multibeam vendor format
0047_20071026_074201_Amundsen.all.mb56.gz 1.46MB Simrad multibeam vendor format
0047_20071031_091917_Amundsen.all.mb56.gz 10.08MB Simrad multibeam vendor format
0047_20071106_152401_Amundsen.all.mb56.gz 7.26MB Simrad multibeam vendor format
0048_20070727_155027_Amundsen.all.mb56.gz 8.70MB Simrad multibeam vendor format
0048_20070731_212526_Amundsen.all.mb56.gz 22.11MB Simrad multibeam vendor format
0048_20070803_092942_Amundsen.all.mb56.gz 9.40MB Simrad multibeam vendor format
0048_20070804_140943_Amundsen.all.mb56.gz 16.47MB Simrad multibeam vendor format
0048_20070806_102803_Amundsen.all.mb56.gz 17.35MB Simrad multibeam vendor format
0048_20070809_220239_Amundsen.all.mb56.gz 15.18MB Simrad multibeam vendor format
0048_20070812_134641_Amundsen.all.mb56.gz 27.73MB Simrad multibeam vendor format
0048_20070815_230131_Amundsen.all.mb56.gz 17.48MB Simrad multibeam vendor format
0048_20070823_030339_Amundsen.all.mb56.gz 22.23MB Simrad multibeam vendor format
0048_20070908_051141_Amundsen.all.mb56.gz 13.09MB Simrad multibeam vendor format
0048_20070925_222906_Amundsen.all.mb56.gz 14.25MB Simrad multibeam vendor format
0048_20070930_112557_Amundsen.all.mb56.gz 9.77MB Simrad multibeam vendor format
0048_20071005_034802_ShipName.all.mb56.gz 7.51MB Simrad multibeam vendor format
0048_20071010_050247_Amundsen.all.mb56.gz 11.94MB Simrad multibeam vendor format
0048_20071015_003945_Amundsen.all.mb56.gz 9.71MB Simrad multibeam vendor format
0048_20071017_054116_Amundsen.all.mb56.gz 11.09MB Simrad multibeam vendor format
0048_20071021_053518_Amundsen.all.mb56.gz 11.17MB Simrad multibeam vendor format
0048_20071026_081325_Amundsen.all.mb56.gz 8.61MB Simrad multibeam vendor format
0048_20071031_094916_Amundsen.all.mb56.gz 12.40MB Simrad multibeam vendor format
0048_20071106_155400_Amundsen.all.mb56.gz 7.55MB Simrad multibeam vendor format
0049_20070727_162027_Amundsen.all.mb56.gz 8.48MB Simrad multibeam vendor format
0049_20070731_215526_Amundsen.all.mb56.gz 22.51MB Simrad multibeam vendor format
0049_20070803_095942_Amundsen.all.mb56.gz 7.55MB Simrad multibeam vendor format
0049_20070804_143943_Amundsen.all.mb56.gz 15.26MB Simrad multibeam vendor format
0049_20070806_105803_Amundsen.all.mb56.gz 17.54MB Simrad multibeam vendor format
0049_20070809_223239_Amundsen.all.mb56.gz 15.91MB Simrad multibeam vendor format
0049_20070812_141641_Amundsen.all.mb56.gz 26.36MB Simrad multibeam vendor format
0049_20070815_233131_Amundsen.all.mb56.gz 12.31MB Simrad multibeam vendor format
0049_20070823_033339_Amundsen.all.mb56.gz 23.10MB Simrad multibeam vendor format
0049_20070908_054141_Amundsen.all.mb56.gz 12.91MB Simrad multibeam vendor format
0049_20070925_225906_Amundsen.all.mb56.gz 15.00MB Simrad multibeam vendor format
0049_20070930_115557_Amundsen.all.mb56.gz 10.94MB Simrad multibeam vendor format
0049_20071005_041802_ShipName.all.mb56.gz 7.96MB Simrad multibeam vendor format
0049_20071010_053247_Amundsen.all.mb56.gz 10.50MB Simrad multibeam vendor format
0049_20071015_010924_Amundsen.all.mb56.gz 11.40MB Simrad multibeam vendor format
0049_20071017_061116_Amundsen.all.mb56.gz 11.43MB Simrad multibeam vendor format
0049_20071021_060518_Amundsen.all.mb56.gz 17.7KB Simrad multibeam vendor format
0049_20071026_084325_Amundsen.all.mb56.gz 0.57MB Simrad multibeam vendor format
0049_20071031_101916_Amundsen.all.mb56.gz 11.71MB Simrad multibeam vendor format
0049_20071106_162400_Amundsen.all.mb56.gz 11.57MB Simrad multibeam vendor format
0050_20070727_165027_Amundsen.all.mb56.gz 8.60MB Simrad multibeam vendor format
0050_20070731_222526_Amundsen.all.mb56.gz 22.92MB Simrad multibeam vendor format
0050_20070803_102942_Amundsen.all.mb56.gz 4.96MB Simrad multibeam vendor format
0050_20070804_150943_Amundsen.all.mb56.gz 14.50MB Simrad multibeam vendor format
0050_20070806_112803_Amundsen.all.mb56.gz 21.75MB Simrad multibeam vendor format
0050_20070809_230239_Amundsen.all.mb56.gz 14.62MB Simrad multibeam vendor format
0050_20070812_144641_Amundsen.all.mb56.gz 28.96MB Simrad multibeam vendor format
0050_20070815_235227_Amundsen.all.mb56.gz 4.52MB Simrad multibeam vendor format
0050_20070823_040339_Amundsen.all.mb56.gz 23.32MB Simrad multibeam vendor format
0050_20070908_061141_Amundsen.all.mb56.gz 13.16MB Simrad multibeam vendor format
0050_20070925_232906_Amundsen.all.mb56.gz 11.13MB Simrad multibeam vendor format
0050_20070930_122557_Amundsen.all.mb56.gz 458.8KB Simrad multibeam vendor format
0050_20071005_044802_ShipName.all.mb56.gz 8.03MB Simrad multibeam vendor format
0050_20071010_060248_Amundsen.all.mb56.gz 12.26MB Simrad multibeam vendor format
0050_20071015_013924_Amundsen.all.mb56.gz 11.27MB Simrad multibeam vendor format
0050_20071017_064116_Amundsen.all.mb56.gz 11.65MB Simrad multibeam vendor format
0050_20071021_062308_Amundsen.all.mb56.gz 4.48MB Simrad multibeam vendor format
0050_20071026_092328_Amundsen.all.mb56.gz 8.76MB Simrad multibeam vendor format
0050_20071031_104916_Amundsen.all.mb56.gz 9.40MB Simrad multibeam vendor format
0050_20071106_165400_Amundsen.all.mb56.gz 11.88MB Simrad multibeam vendor format
0051_20070727_172027_Amundsen.all.mb56.gz 9.81MB Simrad multibeam vendor format
0051_20070731_225526_Amundsen.all.mb56.gz 24.93MB Simrad multibeam vendor format
0051_20070803_105003_Amundsen.all.mb56.gz 7.67MB Simrad multibeam vendor format
0051_20070804_153943_Amundsen.all.mb56.gz 14.71MB Simrad multibeam vendor format
0051_20070806_115803_Amundsen.all.mb56.gz 21.37MB Simrad multibeam vendor format
0051_20070809_233239_Amundsen.all.mb56.gz 15.47MB Simrad multibeam vendor format
0051_20070812_151641_Amundsen.all.mb56.gz 22.03MB Simrad multibeam vendor format
0051_20070815_235737_Amundsen.all.mb56.gz 11.17MB Simrad multibeam vendor format
0051_20070823_043339_Amundsen.all.mb56.gz 21.47MB Simrad multibeam vendor format
0051_20070908_064141_Amundsen.all.mb56.gz 13.07MB Simrad multibeam vendor format
0051_20070925_235906_Amundsen.all.mb56.gz 10.97MB Simrad multibeam vendor format
0051_20070930_122707_Amundsen.all.mb56.gz 12.03MB Simrad multibeam vendor format
0051_20071005_051802_ShipName.all.mb56.gz 8.00MB Simrad multibeam vendor format
0051_20071010_063247_Amundsen.all.mb56.gz 16.23MB Simrad multibeam vendor format
0051_20071015_020924_Amundsen.all.mb56.gz 11.56MB Simrad multibeam vendor format
0051_20071017_071117_Amundsen.all.mb56.gz 11.81MB Simrad multibeam vendor format
0051_20071021_073328_Amundsen.all.mb56.gz 10.96MB Simrad multibeam vendor format
0051_20071026_095328_Amundsen.all.mb56.gz 9.14MB Simrad multibeam vendor format
0051_20071031_111916_Amundsen.all.mb56.gz 8.67MB Simrad multibeam vendor format
0051_20071106_172400_Amundsen.all.mb56.gz 11.73MB Simrad multibeam vendor format
0052_20070727_175027_Amundsen.all.mb56.gz 9.58MB Simrad multibeam vendor format
0052_20070731_232526_Amundsen.all.mb56.gz 20.34MB Simrad multibeam vendor format
0052_20070803_112003_Amundsen.all.mb56.gz 7.65MB Simrad multibeam vendor format
0052_20070804_160943_Amundsen.all.mb56.gz 14.88MB Simrad multibeam vendor format
0052_20070806_122803_Amundsen.all.mb56.gz 20.74MB Simrad multibeam vendor format
0052_20070810_000239_Amundsen.all.mb56.gz 15.58MB Simrad multibeam vendor format
0052_20070812_154641_Amundsen.all.mb56.gz 14.98MB Simrad multibeam vendor format
0052_20070816_001044_Amundsen.all.mb56.gz 19.45MB Simrad multibeam vendor format
0052_20070823_050339_Amundsen.all.mb56.gz 20.82MB Simrad multibeam vendor format
0052_20070908_071141_Amundsen.all.mb56.gz 13.19MB Simrad multibeam vendor format
0052_20070926_002906_Amundsen.all.mb56.gz 11.19MB Simrad multibeam vendor format
0052_20070930_125707_Amundsen.all.mb56.gz 12.27MB Simrad multibeam vendor format
0052_20071005_054802_ShipName.all.mb56.gz 7.85MB Simrad multibeam vendor format
0052_20071010_070247_Amundsen.all.mb56.gz 16.07MB Simrad multibeam vendor format
0052_20071015_023924_Amundsen.all.mb56.gz 11.53MB Simrad multibeam vendor format
0052_20071017_074116_Amundsen.all.mb56.gz 12.65MB Simrad multibeam vendor format
0052_20071021_080328_Amundsen.all.mb56.gz 5.14MB Simrad multibeam vendor format
0052_20071026_102328_Amundsen.all.mb56.gz 8.17MB Simrad multibeam vendor format
0052_20071031_114916_Amundsen.all.mb56.gz 1.70MB Simrad multibeam vendor format
0052_20071106_175400_Amundsen.all.mb56.gz 11.85MB Simrad multibeam vendor format
0053_20070727_182027_Amundsen.all.mb56.gz 9.30MB Simrad multibeam vendor format
0053_20070731_235526_Amundsen.all.mb56.gz 23.37MB Simrad multibeam vendor format
0053_20070803_115003_Amundsen.all.mb56.gz 7.53MB Simrad multibeam vendor format
0053_20070804_163943_Amundsen.all.mb56.gz 15.74MB Simrad multibeam vendor format
0053_20070806_125803_Amundsen.all.mb56.gz 21.14MB Simrad multibeam vendor format
0053_20070810_003239_Amundsen.all.mb56.gz 16.76MB Simrad multibeam vendor format
0053_20070812_161641_Amundsen.all.mb56.gz 14.34MB Simrad multibeam vendor format
0053_20070816_004044_Amundsen.all.mb56.gz 17.42MB Simrad multibeam vendor format
0053_20070823_053339_Amundsen.all.mb56.gz 20.11MB Simrad multibeam vendor format
0053_20070908_074141_Amundsen.all.mb56.gz 13.23MB Simrad multibeam vendor format
0053_20070926_005906_Amundsen.all.mb56.gz 8.84MB Simrad multibeam vendor format
0053_20070930_132707_Amundsen.all.mb56.gz 12.27MB Simrad multibeam vendor format
0053_20071005_061754_ShipName.all.mb56.gz 7.66MB Simrad multibeam vendor format
0053_20071010_073247_Amundsen.all.mb56.gz 16.11MB Simrad multibeam vendor format
0053_20071015_030924_Amundsen.all.mb56.gz 10.78MB Simrad multibeam vendor format
0053_20071017_081116_Amundsen.all.mb56.gz 13.58MB Simrad multibeam vendor format
0053_20071021_084745_Amundsen.all.mb56.gz 9.02MB Simrad multibeam vendor format
0053_20071026_105328_Amundsen.all.mb56.gz 1.22MB Simrad multibeam vendor format
0053_20071031_120335_Amundsen.all.mb56.gz 12.96MB Simrad multibeam vendor format
0053_20071106_182400_Amundsen.all.mb56.gz 11.86MB Simrad multibeam vendor format
0054_20070727_185027_Amundsen.all.mb56.gz 12.53MB Simrad multibeam vendor format
0054_20070801_002526_Amundsen.all.mb56.gz 24.20MB Simrad multibeam vendor format
0054_20070803_122003_Amundsen.all.mb56.gz 7.98MB Simrad multibeam vendor format
0054_20070804_170943_Amundsen.all.mb56.gz 20.78MB Simrad multibeam vendor format
0054_20070806_132803_Amundsen.all.mb56.gz 19.73MB Simrad multibeam vendor format
0054_20070810_010239_Amundsen.all.mb56.gz 20.10MB Simrad multibeam vendor format
0054_20070812_164641_Amundsen.all.mb56.gz 14.06MB Simrad multibeam vendor format
0054_20070816_011044_Amundsen.all.mb56.gz 17.05MB Simrad multibeam vendor format
0054_20070823_060339_Amundsen.all.mb56.gz 19.88MB Simrad multibeam vendor format
0054_20070908_081141_Amundsen.all.mb56.gz 12.93MB Simrad multibeam vendor format
0054_20070926_012906_Amundsen.all.mb56.gz 8.43MB Simrad multibeam vendor format
0054_20070930_135707_Amundsen.all.mb56.gz 11.68MB Simrad multibeam vendor format
0054_20071005_064755_ShipName.all.mb56.gz 7.89MB Simrad multibeam vendor format
0054_20071010_080247_Amundsen.all.mb56.gz 13.45MB Simrad multibeam vendor format
0054_20071015_033924_Amundsen.all.mb56.gz 12.15MB Simrad multibeam vendor format
0054_20071017_084116_Amundsen.all.mb56.gz 13.48MB Simrad multibeam vendor format
0054_20071021_091746_Amundsen.all.mb56.gz 9.50MB Simrad multibeam vendor format
0054_20071026_105759_Amundsen.all.mb56.gz 8.09MB Simrad multibeam vendor format
0054_20071031_123335_Amundsen.all.mb56.gz 12.40MB Simrad multibeam vendor format
0054_20071106_185400_Amundsen.all.mb56.gz 12.11MB Simrad multibeam vendor format
0055_20070727_192027_Amundsen.all.mb56.gz 17.77MB Simrad multibeam vendor format
0055_20070801_005526_Amundsen.all.mb56.gz 19.03MB Simrad multibeam vendor format
0055_20070803_125002_Amundsen.all.mb56.gz 8.61MB Simrad multibeam vendor format
0055_20070804_173943_Amundsen.all.mb56.gz 16.00MB Simrad multibeam vendor format
0055_20070806_135803_Amundsen.all.mb56.gz 18.84MB Simrad multibeam vendor format
0055_20070810_013239_Amundsen.all.mb56.gz 4.26MB Simrad multibeam vendor format
0055_20070812_171641_Amundsen.all.mb56.gz 15.75MB Simrad multibeam vendor format
0055_20070816_014044_Amundsen.all.mb56.gz 16.49MB Simrad multibeam vendor format
0055_20070823_063339_Amundsen.all.mb56.gz 21.84MB Simrad multibeam vendor format
0055_20070908_084141_Amundsen.all.mb56.gz 13.11MB Simrad multibeam vendor format
0055_20070926_015906_Amundsen.all.mb56.gz 8.30MB Simrad multibeam vendor format
0055_20070930_142707_Amundsen.all.mb56.gz 12.14MB Simrad multibeam vendor format
0055_20071005_071755_ShipName.all.mb56.gz 8.16MB Simrad multibeam vendor format
0055_20071010_083247_Amundsen.all.mb56.gz 15.90MB Simrad multibeam vendor format
0055_20071015_040924_Amundsen.all.mb56.gz 11.30MB Simrad multibeam vendor format
0055_20071017_091116_Amundsen.all.mb56.gz 12.09MB Simrad multibeam vendor format
0055_20071021_094746_Amundsen.all.mb56.gz 9.09MB Simrad multibeam vendor format
0055_20071026_112800_Amundsen.all.mb56.gz 9.08MB Simrad multibeam vendor format
0055_20071031_130335_Amundsen.all.mb56.gz 13.98MB Simrad multibeam vendor format
0055_20071106_192400_Amundsen.all.mb56.gz 1.72MB Simrad multibeam vendor format
0056_20070727_195027_Amundsen.all.mb56.gz 17.37MB Simrad multibeam vendor format
0056_20070801_012526_Amundsen.all.mb56.gz 17.86MB Simrad multibeam vendor format
0056_20070803_132003_Amundsen.all.mb56.gz 10.60MB Simrad multibeam vendor format
0056_20070804_180943_Amundsen.all.mb56.gz 17.40MB Simrad multibeam vendor format
0056_20070806_142803_Amundsen.all.mb56.gz 17.54MB Simrad multibeam vendor format
0056_20070810_013943_Amundsen.all.mb56.gz 19.69MB Simrad multibeam vendor format
0056_20070812_174641_Amundsen.all.mb56.gz 14.57MB Simrad multibeam vendor format
0056_20070816_021044_Amundsen.all.mb56.gz 16.64MB Simrad multibeam vendor format
0056_20070823_070339_Amundsen.all.mb56.gz 24.67MB Simrad multibeam vendor format
0056_20070908_091141_Amundsen.all.mb56.gz 13.61MB Simrad multibeam vendor format
0056_20070926_022906_Amundsen.all.mb56.gz 8.69MB Simrad multibeam vendor format
0056_20070930_145707_Amundsen.all.mb56.gz 8.01MB Simrad multibeam vendor format
0056_20071005_074755_ShipName.all.mb56.gz 10.55MB Simrad multibeam vendor format
0056_20071010_090247_Amundsen.all.mb56.gz 14.31MB Simrad multibeam vendor format
0056_20071015_043924_Amundsen.all.mb56.gz 6.14MB Simrad multibeam vendor format
0056_20071017_094118_Amundsen.all.mb56.gz 12.03MB Simrad multibeam vendor format
0056_20071021_101746_Amundsen.all.mb56.gz 0.90MB Simrad multibeam vendor format
0056_20071026_115759_Amundsen.all.mb56.gz 9.01MB Simrad multibeam vendor format
0056_20071031_133335_Amundsen.all.mb56.gz 13.12MB Simrad multibeam vendor format
0057_20070727_202027_Amundsen.all.mb56.gz 13.52MB Simrad multibeam vendor format
0057_20070801_015526_Amundsen.all.mb56.gz 17.08MB Simrad multibeam vendor format
0057_20070803_135003_Amundsen.all.mb56.gz 8.55MB Simrad multibeam vendor format
0057_20070804_183943_Amundsen.all.mb56.gz 16.10MB Simrad multibeam vendor format
0057_20070806_145803_Amundsen.all.mb56.gz 16.13MB Simrad multibeam vendor format
0057_20070810_020943_Amundsen.all.mb56.gz 15.02MB Simrad multibeam vendor format
0057_20070812_181641_Amundsen.all.mb56.gz 13.04MB Simrad multibeam vendor format
0057_20070816_024044_Amundsen.all.mb56.gz 12.02MB Simrad multibeam vendor format
0057_20070823_073339_Amundsen.all.mb56.gz 31.56MB Simrad multibeam vendor format
0057_20070908_094141_Amundsen.all.mb56.gz 13.37MB Simrad multibeam vendor format
0057_20070926_025906_Amundsen.all.mb56.gz 8.59MB Simrad multibeam vendor format
0057_20070930_151714_Amundsen.all.mb56.gz 140.8KB Simrad multibeam vendor format
0057_20071005_081755_ShipName.all.mb56.gz 11.19MB Simrad multibeam vendor format
0057_20071010_093247_Amundsen.all.mb56.gz 15.42MB Simrad multibeam vendor format
0057_20071015_050925_Amundsen.all.mb56.gz 10.67MB Simrad multibeam vendor format
0057_20071017_101117_Amundsen.all.mb56.gz 12.43MB Simrad multibeam vendor format
0057_20071021_102919_Amundsen.all.mb56.gz 9.47MB Simrad multibeam vendor format
0057_20071026_122759_Amundsen.all.mb56.gz 8.37MB Simrad multibeam vendor format
0057_20071031_140335_Amundsen.all.mb56.gz 8.22MB Simrad multibeam vendor format
0058_20070727_205027_Amundsen.all.mb56.gz 13.59MB Simrad multibeam vendor format
0058_20070801_022526_Amundsen.all.mb56.gz 16.03MB Simrad multibeam vendor format
0058_20070804_190943_Amundsen.all.mb56.gz 21.14MB Simrad multibeam vendor format
0058_20070806_152803_Amundsen.all.mb56.gz 15.58MB Simrad multibeam vendor format
0058_20070810_023222_Amundsen.all.mb56.gz 3.80MB Simrad multibeam vendor format
0058_20070812_184641_Amundsen.all.mb56.gz 12.81MB Simrad multibeam vendor format
0058_20070816_030350_Amundsen.all.mb56.gz 3.03MB Simrad multibeam vendor format
0058_20070823_080339_Amundsen.all.mb56.gz 31.56MB Simrad multibeam vendor format
0058_20070908_101141_Amundsen.all.mb56.gz 12.71MB Simrad multibeam vendor format
0058_20070926_032906_Amundsen.all.mb56.gz 8.63MB Simrad multibeam vendor format
0058_20070930_151740_Amundsen.all.mb56.gz 11.94MB Simrad multibeam vendor format
0058_20071005_084755_ShipName.all.mb56.gz 11.41MB Simrad multibeam vendor format
0058_20071010_100247_Amundsen.all.mb56.gz 14.64MB Simrad multibeam vendor format
0058_20071015_053925_Amundsen.all.mb56.gz 8.48MB Simrad multibeam vendor format
0058_20071017_104117_Amundsen.all.mb56.gz 12.48MB Simrad multibeam vendor format
0058_20071021_105919_Amundsen.all.mb56.gz 7.37MB Simrad multibeam vendor format
0058_20071026_125759_Amundsen.all.mb56.gz 9.22MB Simrad multibeam vendor format
0058_20071031_143335_Amundsen.all.mb56.gz 15.05MB Simrad multibeam vendor format
0059_20070727_212027_Amundsen.all.mb56.gz 13.20MB Simrad multibeam vendor format
0059_20070801_025526_Amundsen.all.mb56.gz 11.86MB Simrad multibeam vendor format
0059_20070804_193943_Amundsen.all.mb56.gz 14.29MB Simrad multibeam vendor format
0059_20070806_155803_Amundsen.all.mb56.gz 16.47MB Simrad multibeam vendor format
0059_20070810_023840_Amundsen.all.mb56.gz 8.44MB Simrad multibeam vendor format
0059_20070812_191641_Amundsen.all.mb56.gz 13.59MB Simrad multibeam vendor format
0059_20070816_030947_Amundsen.all.mb56.gz 15.74MB Simrad multibeam vendor format
0059_20070823_083339_Amundsen.all.mb56.gz 29.94MB Simrad multibeam vendor format
0059_20070908_104141_Amundsen.all.mb56.gz 11.69MB Simrad multibeam vendor format
0059_20070926_035906_Amundsen.all.mb56.gz 10.13MB Simrad multibeam vendor format
0059_20070930_154740_Amundsen.all.mb56.gz 11.74MB Simrad multibeam vendor format
0059_20071005_091755_ShipName.all.mb56.gz 10.74MB Simrad multibeam vendor format
0059_20071010_103247_Amundsen.all.mb56.gz 15.54MB Simrad multibeam vendor format
0059_20071015_060925_Amundsen.all.mb56.gz 18.04MB Simrad multibeam vendor format
0059_20071017_111117_Amundsen.all.mb56.gz 11.40MB Simrad multibeam vendor format
0059_20071021_122417_Amundsen.all.mb56.gz 11.18MB Simrad multibeam vendor format
0059_20071026_132759_Amundsen.all.mb56.gz 6.62MB Simrad multibeam vendor format
0059_20071031_150335_Amundsen.all.mb56.gz 14.83MB Simrad multibeam vendor format
0060_20070727_215027_Amundsen.all.mb56.gz 15.44MB Simrad multibeam vendor format
0060_20070801_032526_Amundsen.all.mb56.gz 9.81MB Simrad multibeam vendor format
0060_20070804_200943_Amundsen.all.mb56.gz 12.85MB Simrad multibeam vendor format
0060_20070806_162803_Amundsen.all.mb56.gz 24.09MB Simrad multibeam vendor format
0060_20070810_025058_Amundsen.all.mb56.gz 10.82MB Simrad multibeam vendor format
0060_20070812_194641_Amundsen.all.mb56.gz 13.82MB Simrad multibeam vendor format
0060_20070816_033947_Amundsen.all.mb56.gz 16.88MB Simrad multibeam vendor format
0060_20070823_090339_Amundsen.all.mb56.gz 28.65MB Simrad multibeam vendor format
0060_20070908_111141_Amundsen.all.mb56.gz 11.39MB Simrad multibeam vendor format
0060_20070926_042906_Amundsen.all.mb56.gz 11.35MB Simrad multibeam vendor format
0060_20070930_161740_Amundsen.all.mb56.gz 11.84MB Simrad multibeam vendor format
0060_20071005_094755_ShipName.all.mb56.gz 9.67MB Simrad multibeam vendor format
0060_20071010_110247_Amundsen.all.mb56.gz 14.58MB Simrad multibeam vendor format
0060_20071015_063925_Amundsen.all.mb56.gz 25.10MB Simrad multibeam vendor format
0060_20071017_114117_Amundsen.all.mb56.gz 11.06MB Simrad multibeam vendor format
0060_20071021_125417_Amundsen.all.mb56.gz 1.31MB Simrad multibeam vendor format
0060_20071026_141741_Amundsen.all.mb56.gz 5.19MB Simrad multibeam vendor format
0060_20071031_153335_Amundsen.all.mb56.gz 14.27MB Simrad multibeam vendor format
0061_20070727_222027_Amundsen.all.mb56.gz 16.85MB Simrad multibeam vendor format
0061_20070801_035526_Amundsen.all.mb56.gz 13.91MB Simrad multibeam vendor format
0061_20070804_203943_Amundsen.all.mb56.gz 11.89MB Simrad multibeam vendor format
0061_20070806_165803_Amundsen.all.mb56.gz 16.80MB Simrad multibeam vendor format
0061_20070810_030613_Amundsen.all.mb56.gz 11.21MB Simrad multibeam vendor format
0061_20070812_201641_Amundsen.all.mb56.gz 11.55MB Simrad multibeam vendor format
0061_20070816_040947_Amundsen.all.mb56.gz 17.40MB Simrad multibeam vendor format
0061_20070823_093339_Amundsen.all.mb56.gz 25.83MB Simrad multibeam vendor format
0061_20070908_114141_Amundsen.all.mb56.gz 10.99MB Simrad multibeam vendor format
0061_20070926_045906_Amundsen.all.mb56.gz 12.18MB Simrad multibeam vendor format
0061_20070930_164740_Amundsen.all.mb56.gz 11.86MB Simrad multibeam vendor format
0061_20071005_101755_ShipName.all.mb56.gz 9.38MB Simrad multibeam vendor format
0061_20071010_113248_Amundsen.all.mb56.gz 15.00MB Simrad multibeam vendor format
0061_20071015_070925_Amundsen.all.mb56.gz 22.54MB Simrad multibeam vendor format
0061_20071017_121117_Amundsen.all.mb56.gz 7.92MB Simrad multibeam vendor format
0061_20071021_133200_Amundsen.all.mb56.gz 10.07MB Simrad multibeam vendor format
0061_20071027_000122_Amundsen.all.mb56.gz 11.23MB Simrad multibeam vendor format
0061_20071031_160335_Amundsen.all.mb56.gz 15.53MB Simrad multibeam vendor format
0062_20070727_225027_Amundsen.all.mb56.gz 5.59MB Simrad multibeam vendor format
0062_20070727_230133_Amundsen.all.mb56.gz 15.73MB Simrad multibeam vendor format
0062_20070801_042526_Amundsen.all.mb56.gz 14.36MB Simrad multibeam vendor format
0062_20070804_210943_Amundsen.all.mb56.gz 11.48MB Simrad multibeam vendor format
0062_20070806_172803_Amundsen.all.mb56.gz 14.94MB Simrad multibeam vendor format
0062_20070810_032405_Amundsen.all.mb56.gz 20.22MB Simrad multibeam vendor format
0062_20070812_204641_Amundsen.all.mb56.gz 13.48MB Simrad multibeam vendor format
0062_20070816_043947_Amundsen.all.mb56.gz 17.41MB Simrad multibeam vendor format
0062_20070823_100339_Amundsen.all.mb56.gz 25.98MB Simrad multibeam vendor format
0062_20070908_121141_Amundsen.all.mb56.gz 11.70MB Simrad multibeam vendor format
0062_20070926_052906_Amundsen.all.mb56.gz 12.53MB Simrad multibeam vendor format
0062_20070930_171740_Amundsen.all.mb56.gz 11.87MB Simrad multibeam vendor format
0062_20071005_104755_ShipName.all.mb56.gz 7.76MB Simrad multibeam vendor format
0062_20071010_120247_Amundsen.all.mb56.gz 14.83MB Simrad multibeam vendor format
0062_20071015_073925_Amundsen.all.mb56.gz 16.96MB Simrad multibeam vendor format
0062_20071017_133123_Amundsen.all.mb56.gz 11.50MB Simrad multibeam vendor format
0062_20071021_140201_Amundsen.all.mb56.gz 4.24MB Simrad multibeam vendor format
0062_20071027_003122_Amundsen.all.mb56.gz 10.79MB Simrad multibeam vendor format
0062_20071031_163335_Amundsen.all.mb56.gz 15.16MB Simrad multibeam vendor format
0063_20070727_233133_Amundsen.all.mb56.gz 15.31MB Simrad multibeam vendor format
0063_20070801_045526_Amundsen.all.mb56.gz 14.38MB Simrad multibeam vendor format
0063_20070804_213943_Amundsen.all.mb56.gz 11.06MB Simrad multibeam vendor format
0063_20070806_175803_Amundsen.all.mb56.gz 14.04MB Simrad multibeam vendor format
0063_20070810_035405_Amundsen.all.mb56.gz 3.01MB Simrad multibeam vendor format
0063_20070812_211641_Amundsen.all.mb56.gz 12.85MB Simrad multibeam vendor format
0063_20070816_050947_Amundsen.all.mb56.gz 15.51MB Simrad multibeam vendor format
0063_20070823_103339_Amundsen.all.mb56.gz 8.14MB Simrad multibeam vendor format
0063_20070908_124141_Amundsen.all.mb56.gz 11.18MB Simrad multibeam vendor format
0063_20070926_055906_Amundsen.all.mb56.gz 12.34MB Simrad multibeam vendor format
0063_20070930_174740_Amundsen.all.mb56.gz 11.77MB Simrad multibeam vendor format
0063_20071005_111755_ShipName.all.mb56.gz 7.08MB Simrad multibeam vendor format
0063_20071010_123247_Amundsen.all.mb56.gz 15.26MB Simrad multibeam vendor format
0063_20071015_080925_Amundsen.all.mb56.gz 16.05MB Simrad multibeam vendor format
0063_20071017_140123_Amundsen.all.mb56.gz 2.33MB Simrad multibeam vendor format
0063_20071021_145252_Amundsen.all.mb56.gz 11.22MB Simrad multibeam vendor format
0063_20071027_010122_Amundsen.all.mb56.gz 10.50MB Simrad multibeam vendor format
0063_20071031_170335_Amundsen.all.mb56.gz 15.61MB Simrad multibeam vendor format
0064_20070728_000133_Amundsen.all.mb56.gz 14.94MB Simrad multibeam vendor format
0064_20070801_052525_Amundsen.all.mb56.gz 15.39MB Simrad multibeam vendor format
0064_20070804_220943_Amundsen.all.mb56.gz 11.07MB Simrad multibeam vendor format
0064_20070806_182803_Amundsen.all.mb56.gz 14.34MB Simrad multibeam vendor format
0064_20070810_035841_Amundsen.all.mb56.gz 15.58MB Simrad multibeam vendor format
0064_20070812_214641_Amundsen.all.mb56.gz 13.80MB Simrad multibeam vendor format
0064_20070816_053947_Amundsen.all.mb56.gz 17.67MB Simrad multibeam vendor format
0064_20070825_235455_Amundsen.all.mb56.gz 29.21MB Simrad multibeam vendor format
0064_20070908_131141_Amundsen.all.mb56.gz 10.86MB Simrad multibeam vendor format
0064_20070926_062906_Amundsen.all.mb56.gz 12.64MB Simrad multibeam vendor format
0064_20070930_181740_Amundsen.all.mb56.gz 3.72MB Simrad multibeam vendor format
0064_20071005_114755_ShipName.all.mb56.gz 7.91MB Simrad multibeam vendor format
0064_20071010_130247_Amundsen.all.mb56.gz 15.01MB Simrad multibeam vendor format
0064_20071015_083925_Amundsen.all.mb56.gz 19.04MB Simrad multibeam vendor format
0064_20071017_141744_Amundsen.all.mb56.gz 11.71MB Simrad multibeam vendor format
0064_20071021_152252_Amundsen.all.mb56.gz 10.06MB Simrad multibeam vendor format
0064_20071027_013122_Amundsen.all.mb56.gz 9.20MB Simrad multibeam vendor format
0064_20071031_173335_Amundsen.all.mb56.gz 14.82MB Simrad multibeam vendor format
0065_20070728_003133_Amundsen.all.mb56.gz 14.69MB Simrad multibeam vendor format
0065_20070801_055525_Amundsen.all.mb56.gz 15.45MB Simrad multibeam vendor format
0065_20070804_223943_Amundsen.all.mb56.gz 10.71MB Simrad multibeam vendor format
0065_20070806_185803_Amundsen.all.mb56.gz 13.72MB Simrad multibeam vendor format
0065_20070810_042135_Amundsen.all.mb56.gz 18.28MB Simrad multibeam vendor format
0065_20070812_221641_Amundsen.all.mb56.gz 14.07MB Simrad multibeam vendor format
0065_20070816_060947_Amundsen.all.mb56.gz 17.65MB Simrad multibeam vendor format
0065_20070826_002455_Amundsen.all.mb56.gz 26.22MB Simrad multibeam vendor format
0065_20070908_134141_Amundsen.all.mb56.gz 9.42MB Simrad multibeam vendor format
0065_20070926_065906_Amundsen.all.mb56.gz 11.09MB Simrad multibeam vendor format
0065_20070930_182705_Amundsen.all.mb56.gz 11.26MB Simrad multibeam vendor format
0065_20071005_121755_ShipName.all.mb56.gz 7.95MB Simrad multibeam vendor format
0065_20071010_133247_Amundsen.all.mb56.gz 15.22MB Simrad multibeam vendor format
0065_20071015_090925_Amundsen.all.mb56.gz 17.39MB Simrad multibeam vendor format
0065_20071017_144744_Amundsen.all.mb56.gz 11.29MB Simrad multibeam vendor format
0065_20071021_155252_Amundsen.all.mb56.gz 6.05MB Simrad multibeam vendor format
0065_20071027_020122_Amundsen.all.mb56.gz 10.17MB Simrad multibeam vendor format
0065_20071031_180335_Amundsen.all.mb56.gz 15.34MB Simrad multibeam vendor format
0066_20070728_010133_Amundsen.all.mb56.gz 16.46MB Simrad multibeam vendor format
0066_20070801_062525_Amundsen.all.mb56.gz 15.86MB Simrad multibeam vendor format
0066_20070804_230943_Amundsen.all.mb56.gz 10.35MB Simrad multibeam vendor format
0066_20070806_192803_Amundsen.all.mb56.gz 13.14MB Simrad multibeam vendor format
0066_20070810_045135_Amundsen.all.mb56.gz 121.6KB Simrad multibeam vendor format
0066_20070812_224641_Amundsen.all.mb56.gz 13.69MB Simrad multibeam vendor format
0066_20070816_063947_Amundsen.all.mb56.gz 15.88MB Simrad multibeam vendor format
0066_20070826_005455_Amundsen.all.mb56.gz 26.25MB Simrad multibeam vendor format
0066_20070908_141141_Amundsen.all.mb56.gz 9.13MB Simrad multibeam vendor format
0066_20070926_072906_Amundsen.all.mb56.gz 11.00MB Simrad multibeam vendor format
0066_20070930_185705_Amundsen.all.mb56.gz 10.53MB Simrad multibeam vendor format
0066_20071005_124755_ShipName.all.mb56.gz 9.47MB Simrad multibeam vendor format
0066_20071010_140247_Amundsen.all.mb56.gz 10.91MB Simrad multibeam vendor format
0066_20071015_093925_Amundsen.all.mb56.gz 24.75MB Simrad multibeam vendor format
0066_20071017_151744_Amundsen.all.mb56.gz 1.71MB Simrad multibeam vendor format
0066_20071021_192040_Amundsen.all.mb56.gz 10.91MB Simrad multibeam vendor format
0066_20071027_023122_Amundsen.all.mb56.gz 10.98MB Simrad multibeam vendor format
0066_20071031_183335_Amundsen.all.mb56.gz 12.75MB Simrad multibeam vendor format
0067_20070728_013133_Amundsen.all.mb56.gz 16.03MB Simrad multibeam vendor format
0067_20070801_065525_Amundsen.all.mb56.gz 15.80MB Simrad multibeam vendor format
0067_20070804_233943_Amundsen.all.mb56.gz 8.52MB Simrad multibeam vendor format
0067_20070806_195803_Amundsen.all.mb56.gz 13.40MB Simrad multibeam vendor format
0067_20070810_045148_Amundsen.all.mb56.gz 6.35MB Simrad multibeam vendor format
0067_20070812_231641_Amundsen.all.mb56.gz 13.74MB Simrad multibeam vendor format
0067_20070816_070947_Amundsen.all.mb56.gz 16.72MB Simrad multibeam vendor format
0067_20070826_012455_Amundsen.all.mb56.gz 27.99MB Simrad multibeam vendor format
0067_20070908_144141_Amundsen.all.mb56.gz 8.21MB Simrad multibeam vendor format
0067_20070926_075906_Amundsen.all.mb56.gz 11.20MB Simrad multibeam vendor format
0067_20070930_192705_Amundsen.all.mb56.gz 10.60MB Simrad multibeam vendor format
0067_20071005_131755_ShipName.all.mb56.gz 11.87MB Simrad multibeam vendor format
0067_20071010_143247_Amundsen.all.mb56.gz 12.49MB Simrad multibeam vendor format
0067_20071015_100925_Amundsen.all.mb56.gz 23.48MB Simrad multibeam vendor format
0067_20071017_170858_Amundsen.all.mb56.gz 7.38MB Simrad multibeam vendor format
0067_20071021_195041_Amundsen.all.mb56.gz 10.31MB Simrad multibeam vendor format
0067_20071027_030122_Amundsen.all.mb56.gz 12.86MB Simrad multibeam vendor format
0067_20071031_190335_Amundsen.all.mb56.gz 13.12MB Simrad multibeam vendor format
0068_20070728_020133_Amundsen.all.mb56.gz 13.59MB Simrad multibeam vendor format
0068_20070801_072525_Amundsen.all.mb56.gz 14.93MB Simrad multibeam vendor format
0068_20070805_000943_Amundsen.all.mb56.gz 7.34MB Simrad multibeam vendor format
0068_20070806_202803_Amundsen.all.mb56.gz 12.78MB Simrad multibeam vendor format
0068_20070810_050325_Amundsen.all.mb56.gz 18.63MB Simrad multibeam vendor format
0068_20070812_234641_Amundsen.all.mb56.gz 11.18MB Simrad multibeam vendor format
0068_20070816_073947_Amundsen.all.mb56.gz 16.76MB Simrad multibeam vendor format
0068_20070826_015455_Amundsen.all.mb56.gz 30.32MB Simrad multibeam vendor format
0068_20070908_151141_Amundsen.all.mb56.gz 8.26MB Simrad multibeam vendor format
0068_20070926_082906_Amundsen.all.mb56.gz 11.73MB Simrad multibeam vendor format
0068_20070930_195705_Amundsen.all.mb56.gz 11.65MB Simrad multibeam vendor format
0068_20071005_134755_ShipName.all.mb56.gz 13.33MB Simrad multibeam vendor format
0068_20071010_150247_Amundsen.all.mb56.gz 15.73MB Simrad multibeam vendor format
0068_20071015_103925_Amundsen.all.mb56.gz 26.37MB Simrad multibeam vendor format
0068_20071018_012444_Amundsen.all.mb56.gz 10.63MB Simrad multibeam vendor format
0068_20071021_202041_Amundsen.all.mb56.gz 10.67MB Simrad multibeam vendor format
0068_20071027_033122_Amundsen.all.mb56.gz 11.33MB Simrad multibeam vendor format
0068_20071031_193335_Amundsen.all.mb56.gz 13.42MB Simrad multibeam vendor format
0069_20070728_023133_Amundsen.all.mb56.gz 13.25MB Simrad multibeam vendor format
0069_20070801_075525_Amundsen.all.mb56.gz 14.35MB Simrad multibeam vendor format
0069_20070805_003943_Amundsen.all.mb56.gz 6.39MB Simrad multibeam vendor format
0069_20070806_205803_Amundsen.all.mb56.gz 12.08MB Simrad multibeam vendor format
0069_20070810_053325_Amundsen.all.mb56.gz 3.47MB Simrad multibeam vendor format
0069_20070813_001641_Amundsen.all.mb56.gz 11.34MB Simrad multibeam vendor format
0069_20070816_080947_Amundsen.all.mb56.gz 15.73MB Simrad multibeam vendor format
0069_20070826_022455_Amundsen.all.mb56.gz 32.09MB Simrad multibeam vendor format
0069_20070908_154141_Amundsen.all.mb56.gz 8.32MB Simrad multibeam vendor format
0069_20070926_085906_Amundsen.all.mb56.gz 13.31MB Simrad multibeam vendor format
0069_20070930_202705_Amundsen.all.mb56.gz 9.88MB Simrad multibeam vendor format
0069_20071005_141755_ShipName.all.mb56.gz 13.54MB Simrad multibeam vendor format
0069_20071010_153247_Amundsen.all.mb56.gz 15.76MB Simrad multibeam vendor format
0069_20071015_110925_Amundsen.all.mb56.gz 24.55MB Simrad multibeam vendor format
0069_20071018_015444_Amundsen.all.mb56.gz 1.53MB Simrad multibeam vendor format
0069_20071021_205041_Amundsen.all.mb56.gz 11.28MB Simrad multibeam vendor format
0069_20071027_035729_Amundsen.all.mb56.gz 12.45MB Simrad multibeam vendor format
0069_20071031_200335_Amundsen.all.mb56.gz 13.37MB Simrad multibeam vendor format
0070_20070728_030133_Amundsen.all.mb56.gz 14.58MB Simrad multibeam vendor format
0070_20070801_082525_Amundsen.all.mb56.gz 15.51MB Simrad multibeam vendor format
0070_20070805_010943_Amundsen.all.mb56.gz 6.02MB Simrad multibeam vendor format
0070_20070806_212803_Amundsen.all.mb56.gz 13.38MB Simrad multibeam vendor format
0070_20070810_053821_Amundsen.all.mb56.gz 20.11MB Simrad multibeam vendor format
0070_20070813_004641_Amundsen.all.mb56.gz 13.03MB Simrad multibeam vendor format
0070_20070816_083947_Amundsen.all.mb56.gz 16.58MB Simrad multibeam vendor format
0070_20070826_025455_Amundsen.all.mb56.gz 34.44MB Simrad multibeam vendor format
0070_20070908_161141_Amundsen.all.mb56.gz 7.54MB Simrad multibeam vendor format
0070_20070926_092906_Amundsen.all.mb56.gz 14.31MB Simrad multibeam vendor format
0070_20070930_205705_Amundsen.all.mb56.gz 8.89MB Simrad multibeam vendor format
0070_20071005_144755_ShipName.all.mb56.gz 14.78MB Simrad multibeam vendor format
0070_20071010_160247_Amundsen.all.mb56.gz 14.42MB Simrad multibeam vendor format
0070_20071015_113925_Amundsen.all.mb56.gz 30.68MB Simrad multibeam vendor format
0070_20071018_022044_Amundsen.all.mb56.gz 11.89MB Simrad multibeam vendor format
0070_20071021_212042_Amundsen.all.mb56.gz 2.44MB Simrad multibeam vendor format
0070_20071027_042729_Amundsen.all.mb56.gz 12.15MB Simrad multibeam vendor format
0070_20071031_203335_Amundsen.all.mb56.gz 13.38MB Simrad multibeam vendor format
0071_20070728_033133_Amundsen.all.mb56.gz 16.81MB Simrad multibeam vendor format
0071_20070801_085525_Amundsen.all.mb56.gz 15.82MB Simrad multibeam vendor format
0071_20070805_013943_Amundsen.all.mb56.gz 6.50MB Simrad multibeam vendor format
0071_20070806_215803_Amundsen.all.mb56.gz 12.16MB Simrad multibeam vendor format
0071_20070810_060821_Amundsen.all.mb56.gz 1.82MB Simrad multibeam vendor format
0071_20070813_011641_Amundsen.all.mb56.gz 16.26MB Simrad multibeam vendor format
0071_20070816_090947_Amundsen.all.mb56.gz 16.91MB Simrad multibeam vendor format
0071_20070826_032455_Amundsen.all.mb56.gz 28.99MB Simrad multibeam vendor format
0071_20070908_164141_Amundsen.all.mb56.gz 7.82MB Simrad multibeam vendor format
0071_20070926_095906_Amundsen.all.mb56.gz 14.69MB Simrad multibeam vendor format
0071_20070930_212705_Amundsen.all.mb56.gz 8.56MB Simrad multibeam vendor format
0071_20071006_204712_ShipName.all.mb56.gz 13.95MB Simrad multibeam vendor format
0071_20071010_163247_Amundsen.all.mb56.gz 15.55MB Simrad multibeam vendor format
0071_20071015_120925_Amundsen.all.mb56.gz 29.98MB Simrad multibeam vendor format
0071_20071018_025044_Amundsen.all.mb56.gz 11.32MB Simrad multibeam vendor format
0071_20071021_223917_Amundsen.all.mb56.gz 12.33MB Simrad multibeam vendor format
0071_20071027_045729_Amundsen.all.mb56.gz 8.14MB Simrad multibeam vendor format
0071_20071031_210334_Amundsen.all.mb56.gz 13.26MB Simrad multibeam vendor format
0072_20070728_040133_Amundsen.all.mb56.gz 15.08MB Simrad multibeam vendor format
0072_20070801_092525_Amundsen.all.mb56.gz 14.74MB Simrad multibeam vendor format
0072_20070805_020943_Amundsen.all.mb56.gz 6.40MB Simrad multibeam vendor format
0072_20070806_222803_Amundsen.all.mb56.gz 11.26MB Simrad multibeam vendor format
0072_20070810_061105_Amundsen.all.mb56.gz 18.08MB Simrad multibeam vendor format
0072_20070813_014641_Amundsen.all.mb56.gz 17.55MB Simrad multibeam vendor format
0072_20070816_093947_Amundsen.all.mb56.gz 17.54MB Simrad multibeam vendor format
0072_20070826_035455_Amundsen.all.mb56.gz 22.48MB Simrad multibeam vendor format
0072_20070908_171141_Amundsen.all.mb56.gz 8.48MB Simrad multibeam vendor format
0072_20070926_102906_Amundsen.all.mb56.gz 15.28MB Simrad multibeam vendor format
0072_20070930_215705_Amundsen.all.mb56.gz 8.15MB Simrad multibeam vendor format
0072_20071006_211713_ShipName.all.mb56.gz 11.13MB Simrad multibeam vendor format
0072_20071010_170247_Amundsen.all.mb56.gz 15.58MB Simrad multibeam vendor format
0072_20071015_123925_Amundsen.all.mb56.gz 29.45MB Simrad multibeam vendor format
0072_20071018_032044_Amundsen.all.mb56.gz 11.59MB Simrad multibeam vendor format
0072_20071021_230917_Amundsen.all.mb56.gz 12.64MB Simrad multibeam vendor format
0072_20071027_051619_Amundsen.all.mb56.gz 2.56MB Simrad multibeam vendor format
0072_20071031_213334_Amundsen.all.mb56.gz 9.44MB Simrad multibeam vendor format
0073_20070728_043133_Amundsen.all.mb56.gz 16.45MB Simrad multibeam vendor format
0073_20070801_095525_Amundsen.all.mb56.gz 15.48MB Simrad multibeam vendor format
0073_20070805_023943_Amundsen.all.mb56.gz 6.72MB Simrad multibeam vendor format
0073_20070806_225803_Amundsen.all.mb56.gz 11.28MB Simrad multibeam vendor format
0073_20070810_063603_Amundsen.all.mb56.gz 10.33MB Simrad multibeam vendor format
0073_20070813_021641_Amundsen.all.mb56.gz 17.77MB Simrad multibeam vendor format
0073_20070816_100947_Amundsen.all.mb56.gz 16.89MB Simrad multibeam vendor format
0073_20070826_042455_Amundsen.all.mb56.gz 22.79MB Simrad multibeam vendor format
0073_20070908_174141_Amundsen.all.mb56.gz 10.01MB Simrad multibeam vendor format
0073_20070926_105906_Amundsen.all.mb56.gz 15.90MB Simrad multibeam vendor format
0073_20070930_222705_Amundsen.all.mb56.gz 8.59MB Simrad multibeam vendor format
0073_20071006_214221_ShipName.all.mb56.gz 13.11MB Simrad multibeam vendor format
0073_20071010_173247_Amundsen.all.mb56.gz 15.76MB Simrad multibeam vendor format
0073_20071015_130925_Amundsen.all.mb56.gz 29.60MB Simrad multibeam vendor format
0073_20071018_035044_Amundsen.all.mb56.gz 12.30MB Simrad multibeam vendor format
0073_20071021_233917_Amundsen.all.mb56.gz 13.00MB Simrad multibeam vendor format
0073_20071027_062106_Amundsen.all.mb56.gz 12.68MB Simrad multibeam vendor format
0073_20071031_220334_Amundsen.all.mb56.gz 12.76MB Simrad multibeam vendor format
0074_20070728_050133_Amundsen.all.mb56.gz 16.55MB Simrad multibeam vendor format
0074_20070801_102525_Amundsen.all.mb56.gz 17.29MB Simrad multibeam vendor format
0074_20070805_030943_Amundsen.all.mb56.gz 11.40MB Simrad multibeam vendor format
0074_20070806_232803_Amundsen.all.mb56.gz 12.02MB Simrad multibeam vendor format
0074_20070810_064940_Amundsen.all.mb56.gz 19.68MB Simrad multibeam vendor format
0074_20070813_024641_Amundsen.all.mb56.gz 18.29MB Simrad multibeam vendor format
0074_20070816_103947_Amundsen.all.mb56.gz 17.00MB Simrad multibeam vendor format
0074_20070826_045455_Amundsen.all.mb56.gz 22.04MB Simrad multibeam vendor format
0074_20070908_181141_Amundsen.all.mb56.gz 7.13MB Simrad multibeam vendor format
0074_20070926_112905_Amundsen.all.mb56.gz 18.56MB Simrad multibeam vendor format
0074_20070930_225705_Amundsen.all.mb56.gz 8.65MB Simrad multibeam vendor format
0074_20071006_221221_ShipName.all.mb56.gz 14.01MB Simrad multibeam vendor format
0074_20071010_180247_Amundsen.all.mb56.gz 15.70MB Simrad multibeam vendor format
0074_20071015_133925_Amundsen.all.mb56.gz 30.89MB Simrad multibeam vendor format
0074_20071018_042045_Amundsen.all.mb56.gz 14.41MB Simrad multibeam vendor format
0074_20071022_000917_Amundsen.all.mb56.gz 13.45MB Simrad multibeam vendor format
0074_20071027_065107_Amundsen.all.mb56.gz 12.66MB Simrad multibeam vendor format
0074_20071031_223334_Amundsen.all.mb56.gz 12.67MB Simrad multibeam vendor format
0075_20070728_053133_Amundsen.all.mb56.gz 15.93MB Simrad multibeam vendor format
0075_20070801_105525_Amundsen.all.mb56.gz 19.47MB Simrad multibeam vendor format
0075_20070805_033943_Amundsen.all.mb56.gz 12.05MB Simrad multibeam vendor format
0075_20070806_235803_Amundsen.all.mb56.gz 11.71MB Simrad multibeam vendor format
0075_20070810_071749_Amundsen.all.mb56.gz 15.34MB Simrad multibeam vendor format
0075_20070813_031641_Amundsen.all.mb56.gz 17.69MB Simrad multibeam vendor format
0075_20070816_110947_Amundsen.all.mb56.gz 15.85MB Simrad multibeam vendor format
0075_20070826_052455_Amundsen.all.mb56.gz 21.17MB Simrad multibeam vendor format
0075_20070908_184140_Amundsen.all.mb56.gz 7.29MB Simrad multibeam vendor format
0075_20070926_115905_Amundsen.all.mb56.gz 16.57MB Simrad multibeam vendor format
0075_20070930_232705_Amundsen.all.mb56.gz 8.45MB Simrad multibeam vendor format
0075_20071006_224221_ShipName.all.mb56.gz 15.06MB Simrad multibeam vendor format
0075_20071010_183247_Amundsen.all.mb56.gz 10.47MB Simrad multibeam vendor format
0075_20071015_140925_Amundsen.all.mb56.gz 13.14MB Simrad multibeam vendor format
0075_20071018_045045_Amundsen.all.mb56.gz 15.22MB Simrad multibeam vendor format
0075_20071022_003917_Amundsen.all.mb56.gz 12.16MB Simrad multibeam vendor format
0075_20071027_072106_Amundsen.all.mb56.gz 8.59MB Simrad multibeam vendor format
0075_20071031_230334_Amundsen.all.mb56.gz 13.31MB Simrad multibeam vendor format
0076_20070728_060133_Amundsen.all.mb56.gz 15.56MB Simrad multibeam vendor format
0076_20070801_112525_Amundsen.all.mb56.gz 16.50MB Simrad multibeam vendor format
0076_20070805_040943_Amundsen.all.mb56.gz 11.46MB Simrad multibeam vendor format
0076_20070807_002803_Amundsen.all.mb56.gz 13.70MB Simrad multibeam vendor format
0076_20070810_073821_Amundsen.all.mb56.gz 18.43MB Simrad multibeam vendor format
0076_20070813_034641_Amundsen.all.mb56.gz 14.01MB Simrad multibeam vendor format
0076_20070816_113947_Amundsen.all.mb56.gz 17.20MB Simrad multibeam vendor format
0076_20070826_055455_Amundsen.all.mb56.gz 21.98MB Simrad multibeam vendor format
0076_20070908_191140_Amundsen.all.mb56.gz 8.44MB Simrad multibeam vendor format
0076_20070926_122905_Amundsen.all.mb56.gz 23.18MB Simrad multibeam vendor format
0076_20070930_235705_Amundsen.all.mb56.gz 8.25MB Simrad multibeam vendor format
0076_20071006_231221_ShipName.all.mb56.gz 14.31MB Simrad multibeam vendor format
0076_20071010_185319_Amundsen.all.mb56.gz 15.66MB Simrad multibeam vendor format
0076_20071018_052045_Amundsen.all.mb56.gz 4.73MB Simrad multibeam vendor format
0076_20071022_010917_Amundsen.all.mb56.gz 13.83MB Simrad multibeam vendor format
0076_20071027_073952_Amundsen.all.mb56.gz 7.59MB Simrad multibeam vendor format
0076_20071031_233334_Amundsen.all.mb56.gz 12.96MB Simrad multibeam vendor format
0077_20070728_063133_Amundsen.all.mb56.gz 15.25MB Simrad multibeam vendor format
0077_20070801_115525_Amundsen.all.mb56.gz 16.39MB Simrad multibeam vendor format
0077_20070805_043943_Amundsen.all.mb56.gz 11.56MB Simrad multibeam vendor format
0077_20070807_005803_Amundsen.all.mb56.gz 13.24MB Simrad multibeam vendor format
0077_20070810_080652_Amundsen.all.mb56.gz 20.61MB Simrad multibeam vendor format
0077_20070813_041641_Amundsen.all.mb56.gz 18.40MB Simrad multibeam vendor format
0077_20070816_120947_Amundsen.all.mb56.gz 16.47MB Simrad multibeam vendor format
0077_20070826_062455_Amundsen.all.mb56.gz 21.93MB Simrad multibeam vendor format
0077_20070908_194140_Amundsen.all.mb56.gz 9.51MB Simrad multibeam vendor format
0077_20071001_002705_Amundsen.all.mb56.gz 7.97MB Simrad multibeam vendor format
0077_20071006_234221_ShipName.all.mb56.gz 2.91MB Simrad multibeam vendor format
0077_20071010_192319_Amundsen.all.mb56.gz 15.60MB Simrad multibeam vendor format
0077_20071018_053252_Amundsen.all.mb56.gz 1.09MB Simrad multibeam vendor format
0077_20071022_013917_Amundsen.all.mb56.gz 12.03MB Simrad multibeam vendor format
0077_20071027_075552_Amundsen.all.mb56.gz 3.76MB Simrad multibeam vendor format
0077_20071101_000334_Amundsen.all.mb56.gz 13.39MB Simrad multibeam vendor format
0078_20070728_070133_Amundsen.all.mb56.gz 14.47MB Simrad multibeam vendor format
0078_20070801_122525_Amundsen.all.mb56.gz 16.60MB Simrad multibeam vendor format
0078_20070805_050943_Amundsen.all.mb56.gz 11.47MB Simrad multibeam vendor format
0078_20070807_012803_Amundsen.all.mb56.gz 16.96MB Simrad multibeam vendor format
0078_20070810_083652_Amundsen.all.mb56.gz 19.37MB Simrad multibeam vendor format
0078_20070813_044641_Amundsen.all.mb56.gz 17.41MB Simrad multibeam vendor format
0078_20070816_123946_Amundsen.all.mb56.gz 16.77MB Simrad multibeam vendor format
0078_20070826_065455_Amundsen.all.mb56.gz 22.42MB Simrad multibeam vendor format
0078_20070908_201140_Amundsen.all.mb56.gz 15.99MB Simrad multibeam vendor format
0078_20071001_005705_Amundsen.all.mb56.gz 8.98MB Simrad multibeam vendor format
0078_20071007_010648_ShipName.all.mb56.gz 11.93MB Simrad multibeam vendor format
0078_20071010_195319_Amundsen.all.mb56.gz 10.07MB Simrad multibeam vendor format
0078_20071018_061739_Amundsen.all.mb56.gz 14.45MB Simrad multibeam vendor format
0078_20071022_020917_Amundsen.all.mb56.gz 12.28MB Simrad multibeam vendor format
0078_20071027_080402_Amundsen.all.mb56.gz 3.14MB Simrad multibeam vendor format
0078_20071101_003334_Amundsen.all.mb56.gz 12.97MB Simrad multibeam vendor format
0079_20070728_073133_Amundsen.all.mb56.gz 13.85MB Simrad multibeam vendor format
0079_20070801_125525_Amundsen.all.mb56.gz 16.75MB Simrad multibeam vendor format
0079_20070805_053943_Amundsen.all.mb56.gz 12.86MB Simrad multibeam vendor format
0079_20070807_015803_Amundsen.all.mb56.gz 22.30MB Simrad multibeam vendor format
0079_20070810_090652_Amundsen.all.mb56.gz 4.00MB Simrad multibeam vendor format
0079_20070813_051641_Amundsen.all.mb56.gz 15.37MB Simrad multibeam vendor format
0079_20070816_130946_Amundsen.all.mb56.gz 17.24MB Simrad multibeam vendor format
0079_20070826_072455_Amundsen.all.mb56.gz 21.68MB Simrad multibeam vendor format
0079_20070908_204140_Amundsen.all.mb56.gz 15.77MB Simrad multibeam vendor format
0079_20071001_012705_Amundsen.all.mb56.gz 8.27MB Simrad multibeam vendor format
0079_20071007_013648_ShipName.all.mb56.gz 134.3KB Simrad multibeam vendor format
0079_20071010_202319_Amundsen.all.mb56.gz 11.12MB Simrad multibeam vendor format
0079_20071018_064741_Amundsen.all.mb56.gz 15.33MB Simrad multibeam vendor format
0079_20071022_023917_Amundsen.all.mb56.gz 13.36MB Simrad multibeam vendor format
0079_20071027_081040_Amundsen.all.mb56.gz 2.93MB Simrad multibeam vendor format
0079_20071101_010334_Amundsen.all.mb56.gz 10.97MB Simrad multibeam vendor format
0080_20070728_080133_Amundsen.all.mb56.gz 13.79MB Simrad multibeam vendor format
0080_20070801_132525_Amundsen.all.mb56.gz 17.04MB Simrad multibeam vendor format
0080_20070805_060943_Amundsen.all.mb56.gz 14.19MB Simrad multibeam vendor format
0080_20070807_022803_Amundsen.all.mb56.gz 23.90MB Simrad multibeam vendor format
0080_20070810_091435_Amundsen.all.mb56.gz 13.91MB Simrad multibeam vendor format
0080_20070813_054641_Amundsen.all.mb56.gz 15.31MB Simrad multibeam vendor format
0080_20070816_133946_Amundsen.all.mb56.gz 15.95MB Simrad multibeam vendor format
0080_20070826_075455_Amundsen.all.mb56.gz 21.51MB Simrad multibeam vendor format
0080_20070908_211140_Amundsen.all.mb56.gz 14.50MB Simrad multibeam vendor format
0080_20071001_015705_Amundsen.all.mb56.gz 8.26MB Simrad multibeam vendor format
0080_20071007_034744_ShipName.all.mb56.gz 11.98MB Simrad multibeam vendor format
0080_20071010_205319_Amundsen.all.mb56.gz 15.68MB Simrad multibeam vendor format
0080_20071018_071740_Amundsen.all.mb56.gz 20.15MB Simrad multibeam vendor format
0080_20071022_030917_Amundsen.all.mb56.gz 13.55MB Simrad multibeam vendor format
0080_20071027_081722_Amundsen.all.mb56.gz 6.17MB Simrad multibeam vendor format
0080_20071101_013334_Amundsen.all.mb56.gz 10.08MB Simrad multibeam vendor format
0081_20070728_083133_Amundsen.all.mb56.gz 14.62MB Simrad multibeam vendor format
0081_20070801_135525_Amundsen.all.mb56.gz 16.16MB Simrad multibeam vendor format
0081_20070805_063943_Amundsen.all.mb56.gz 12.59MB Simrad multibeam vendor format
0081_20070807_025803_Amundsen.all.mb56.gz 25.41MB Simrad multibeam vendor format
0081_20070810_094435_Amundsen.all.mb56.gz 14.66MB Simrad multibeam vendor format
0081_20070813_061641_Amundsen.all.mb56.gz 17.05MB Simrad multibeam vendor format
0081_20070816_140946_Amundsen.all.mb56.gz 15.65MB Simrad multibeam vendor format
0081_20070826_082455_Amundsen.all.mb56.gz 23.15MB Simrad multibeam vendor format
0081_20070908_214140_Amundsen.all.mb56.gz 14.70MB Simrad multibeam vendor format
0081_20071001_022705_Amundsen.all.mb56.gz 8.13MB Simrad multibeam vendor format
0081_20071007_041744_ShipName.all.mb56.gz 9.72MB Simrad multibeam vendor format
0081_20071010_212319_Amundsen.all.mb56.gz 11.53MB Simrad multibeam vendor format
0081_20071018_074740_Amundsen.all.mb56.gz 21.20MB Simrad multibeam vendor format
0081_20071022_033917_Amundsen.all.mb56.gz 14.07MB Simrad multibeam vendor format
0081_20071027_083304_Amundsen.all.mb56.gz 3.67MB Simrad multibeam vendor format
0081_20071101_020334_Amundsen.all.mb56.gz 8.17MB Simrad multibeam vendor format
0082_20070728_090133_Amundsen.all.mb56.gz 15.12MB Simrad multibeam vendor format
0082_20070801_142525_Amundsen.all.mb56.gz 15.94MB Simrad multibeam vendor format
0082_20070805_070943_Amundsen.all.mb56.gz 12.79MB Simrad multibeam vendor format
0082_20070807_032803_Amundsen.all.mb56.gz 25.29MB Simrad multibeam vendor format
0082_20070810_101435_Amundsen.all.mb56.gz 15.04MB Simrad multibeam vendor format
0082_20070813_064641_Amundsen.all.mb56.gz 13.92MB Simrad multibeam vendor format
0082_20070816_143946_Amundsen.all.mb56.gz 15.57MB Simrad multibeam vendor format
0082_20070826_085455_Amundsen.all.mb56.gz 25.53MB Simrad multibeam vendor format
0082_20070908_221140_Amundsen.all.mb56.gz 18.99MB Simrad multibeam vendor format
0082_20071001_025705_Amundsen.all.mb56.gz 8.12MB Simrad multibeam vendor format
0082_20071007_044744_ShipName.all.mb56.gz 8.18MB Simrad multibeam vendor format
0082_20071010_215319_Amundsen.all.mb56.gz 11.69MB Simrad multibeam vendor format
0082_20071018_081740_Amundsen.all.mb56.gz 17.99MB Simrad multibeam vendor format
0082_20071022_040917_Amundsen.all.mb56.gz 13.53MB Simrad multibeam vendor format
0082_20071027_110338_Amundsen.all.mb56.gz 13.17MB Simrad multibeam vendor format
0082_20071101_023334_Amundsen.all.mb56.gz 8.88MB Simrad multibeam vendor format
0083_20070728_093133_Amundsen.all.mb56.gz 17.65MB Simrad multibeam vendor format
0083_20070801_145525_Amundsen.all.mb56.gz 4.66MB Simrad multibeam vendor format
0083_20070805_073943_Amundsen.all.mb56.gz 13.61MB Simrad multibeam vendor format
0083_20070807_035803_Amundsen.all.mb56.gz 25.68MB Simrad multibeam vendor format
0083_20070810_104435_Amundsen.all.mb56.gz 15.45MB Simrad multibeam vendor format
0083_20070813_071641_Amundsen.all.mb56.gz 15.12MB Simrad multibeam vendor format
0083_20070816_150946_Amundsen.all.mb56.gz 15.82MB Simrad multibeam vendor format
0083_20070826_092455_Amundsen.all.mb56.gz 25.09MB Simrad multibeam vendor format
0083_20070912_012104_Amundsen.all.mb56.gz 23.80MB Simrad multibeam vendor format
0083_20071001_032705_Amundsen.all.mb56.gz 7.84MB Simrad multibeam vendor format
0083_20071007_051744_ShipName.all.mb56.gz 8.03MB Simrad multibeam vendor format
0083_20071010_222319_Amundsen.all.mb56.gz 10.33MB Simrad multibeam vendor format
0083_20071018_084740_Amundsen.all.mb56.gz 15.46MB Simrad multibeam vendor format
0083_20071022_043917_Amundsen.all.mb56.gz 13.59MB Simrad multibeam vendor format
0083_20071027_113338_Amundsen.all.mb56.gz 6.90MB Simrad multibeam vendor format
0083_20071101_030334_Amundsen.all.mb56.gz 8.43MB Simrad multibeam vendor format
0084_20070728_100133_Amundsen.all.mb56.gz 17.12MB Simrad multibeam vendor format
0084_20070801_150830_Amundsen.all.mb56.gz 14.38MB Simrad multibeam vendor format
0084_20070805_080943_Amundsen.all.mb56.gz 14.51MB Simrad multibeam vendor format
0084_20070807_042803_Amundsen.all.mb56.gz 28.20MB Simrad multibeam vendor format
0084_20070810_111435_Amundsen.all.mb56.gz 15.09MB Simrad multibeam vendor format
0084_20070813_074641_Amundsen.all.mb56.gz 16.95MB Simrad multibeam vendor format
0084_20070816_153946_Amundsen.all.mb56.gz 16.59MB Simrad multibeam vendor format
0084_20070826_095455_Amundsen.all.mb56.gz 26.75MB Simrad multibeam vendor format
0084_20070912_015104_Amundsen.all.mb56.gz 20.45MB Simrad multibeam vendor format
0084_20071001_035705_Amundsen.all.mb56.gz 7.57MB Simrad multibeam vendor format
0084_20071007_054744_ShipName.all.mb56.gz 8.90MB Simrad multibeam vendor format
0084_20071010_225319_Amundsen.all.mb56.gz 9.60MB Simrad multibeam vendor format
0084_20071018_091740_Amundsen.all.mb56.gz 13.95MB Simrad multibeam vendor format
0084_20071022_050917_Amundsen.all.mb56.gz 13.66MB Simrad multibeam vendor format
0084_20071027_115206_Amundsen.all.mb56.gz 9.45MB Simrad multibeam vendor format
0084_20071101_033334_Amundsen.all.mb56.gz 8.94MB Simrad multibeam vendor format
0085_20070728_103133_Amundsen.all.mb56.gz 14.94MB Simrad multibeam vendor format
0085_20070801_153830_Amundsen.all.mb56.gz 13.74MB Simrad multibeam vendor format
0085_20070805_083943_Amundsen.all.mb56.gz 14.91MB Simrad multibeam vendor format
0085_20070807_045803_Amundsen.all.mb56.gz 24.20MB Simrad multibeam vendor format
0085_20070810_114435_Amundsen.all.mb56.gz 13.33MB Simrad multibeam vendor format
0085_20070813_081641_Amundsen.all.mb56.gz 17.95MB Simrad multibeam vendor format
0085_20070816_160946_Amundsen.all.mb56.gz 17.62MB Simrad multibeam vendor format
0085_20070826_102455_Amundsen.all.mb56.gz 24.69MB Simrad multibeam vendor format
0085_20070912_022104_Amundsen.all.mb56.gz 15.17MB Simrad multibeam vendor format
0085_20070927_221149_Amundsen.all.mb56.gz 17.43MB Simrad multibeam vendor format
0085_20071001_042705_Amundsen.all.mb56.gz 7.32MB Simrad multibeam vendor format
0085_20071007_061744_ShipName.all.mb56.gz 11.69MB Simrad multibeam vendor format
0085_20071010_232320_Amundsen.all.mb56.gz 8.18MB Simrad multibeam vendor format
0085_20071018_094740_Amundsen.all.mb56.gz 12.30MB Simrad multibeam vendor format
0085_20071022_053917_Amundsen.all.mb56.gz 13.20MB Simrad multibeam vendor format
0085_20071027_122206_Amundsen.all.mb56.gz 10.47MB Simrad multibeam vendor format
0085_20071101_040334_Amundsen.all.mb56.gz 9.54MB Simrad multibeam vendor format
0086_20070728_110133_Amundsen.all.mb56.gz 13.98MB Simrad multibeam vendor format
0086_20070801_160830_Amundsen.all.mb56.gz 15.19MB Simrad multibeam vendor format
0086_20070805_090942_Amundsen.all.mb56.gz 14.99MB Simrad multibeam vendor format
0086_20070807_052803_Amundsen.all.mb56.gz 24.68MB Simrad multibeam vendor format
0086_20070810_121435_Amundsen.all.mb56.gz 14.77MB Simrad multibeam vendor format
0086_20070813_084641_Amundsen.all.mb56.gz 15.66MB Simrad multibeam vendor format
0086_20070816_163946_Amundsen.all.mb56.gz 18.80MB Simrad multibeam vendor format
0086_20070827_030209_Amundsen.all.mb56.gz 18.19MB Simrad multibeam vendor format
0086_20070912_025104_Amundsen.all.mb56.gz 14.61MB Simrad multibeam vendor format
0086_20070927_223604_Amundsen.all.mb56.gz 18.83MB Simrad multibeam vendor format
0086_20071001_045705_Amundsen.all.mb56.gz 7.41MB Simrad multibeam vendor format
0086_20071007_064744_ShipName.all.mb56.gz 11.43MB Simrad multibeam vendor format
0086_20071010_235320_Amundsen.all.mb56.gz 9.83MB Simrad multibeam vendor format
0086_20071018_101741_Amundsen.all.mb56.gz 13.48MB Simrad multibeam vendor format
0086_20071022_060917_Amundsen.all.mb56.gz 9.09MB Simrad multibeam vendor format
0086_20071027_125206_Amundsen.all.mb56.gz 9.28MB Simrad multibeam vendor format
0086_20071101_043334_Amundsen.all.mb56.gz 9.01MB Simrad multibeam vendor format
0087_20070728_113133_Amundsen.all.mb56.gz 12.55MB Simrad multibeam vendor format
0087_20070801_163830_Amundsen.all.mb56.gz 15.16MB Simrad multibeam vendor format
0087_20070805_093942_Amundsen.all.mb56.gz 15.47MB Simrad multibeam vendor format
0087_20070807_055803_Amundsen.all.mb56.gz 17.87MB Simrad multibeam vendor format
0087_20070810_124435_Amundsen.all.mb56.gz 13.85MB Simrad multibeam vendor format
0087_20070813_091640_Amundsen.all.mb56.gz 16.92MB Simrad multibeam vendor format
0087_20070816_170946_Amundsen.all.mb56.gz 17.61MB Simrad multibeam vendor format
0087_20070827_033209_Amundsen.all.mb56.gz 20.42MB Simrad multibeam vendor format
0087_20070912_032104_Amundsen.all.mb56.gz 16.46MB Simrad multibeam vendor format
0087_20070927_230604_Amundsen.all.mb56.gz 19.48MB Simrad multibeam vendor format
0087_20071001_052705_Amundsen.all.mb56.gz 7.48MB Simrad multibeam vendor format
0087_20071007_071744_ShipName.all.mb56.gz 14.04MB Simrad multibeam vendor format
0087_20071011_002319_Amundsen.all.mb56.gz 10.24MB Simrad multibeam vendor format
0087_20071018_104740_Amundsen.all.mb56.gz 12.33MB Simrad multibeam vendor format
0087_20071022_071230_Amundsen.all.mb56.gz 3.48MB Simrad multibeam vendor format
0087_20071027_132205_Amundsen.all.mb56.gz 2.49MB Simrad multibeam vendor format
0087_20071101_050334_Amundsen.all.mb56.gz 9.57MB Simrad multibeam vendor format
0088_20070728_120133_Amundsen.all.mb56.gz 11.60MB Simrad multibeam vendor format
0088_20070801_170830_Amundsen.all.mb56.gz 15.13MB Simrad multibeam vendor format
0088_20070805_100942_Amundsen.all.mb56.gz 15.84MB Simrad multibeam vendor format
0088_20070807_062803_Amundsen.all.mb56.gz 17.86MB Simrad multibeam vendor format
0088_20070810_131435_Amundsen.all.mb56.gz 15.76MB Simrad multibeam vendor format
0088_20070813_094640_Amundsen.all.mb56.gz 20.39MB Simrad multibeam vendor format
0088_20070816_173946_Amundsen.all.mb56.gz 20.47MB Simrad multibeam vendor format
0088_20070827_040209_Amundsen.all.mb56.gz 23.38MB Simrad multibeam vendor format
0088_20070912_035104_Amundsen.all.mb56.gz 15.99MB Simrad multibeam vendor format
0088_20070927_233604_Amundsen.all.mb56.gz 16.11MB Simrad multibeam vendor format
0088_20071001_055705_Amundsen.all.mb56.gz 7.39MB Simrad multibeam vendor format
0088_20071007_074744_ShipName.all.mb56.gz 12.18MB Simrad multibeam vendor format
0088_20071011_005320_Amundsen.all.mb56.gz 7.26MB Simrad multibeam vendor format
0088_20071018_111740_Amundsen.all.mb56.gz 11.65MB Simrad multibeam vendor format
0088_20071022_081048_Amundsen.all.mb56.gz 17.91MB Simrad multibeam vendor format
0088_20071027_135717_Amundsen.all.mb56.gz 8.75MB Simrad multibeam vendor format
0088_20071101_053334_Amundsen.all.mb56.gz 8.66MB Simrad multibeam vendor format
0089_20070728_123133_Amundsen.all.mb56.gz 11.31MB Simrad multibeam vendor format
0089_20070801_173830_Amundsen.all.mb56.gz 14.27MB Simrad multibeam vendor format
0089_20070805_103942_Amundsen.all.mb56.gz 16.33MB Simrad multibeam vendor format
0089_20070807_065803_Amundsen.all.mb56.gz 18.33MB Simrad multibeam vendor format
0089_20070810_134435_Amundsen.all.mb56.gz 15.37MB Simrad multibeam vendor format
0089_20070813_101640_Amundsen.all.mb56.gz 19.13MB Simrad multibeam vendor format
0089_20070816_180946_Amundsen.all.mb56.gz 19.32MB Simrad multibeam vendor format
0089_20070827_043209_Amundsen.all.mb56.gz 17.85MB Simrad multibeam vendor format
0089_20070912_042104_Amundsen.all.mb56.gz 15.47MB Simrad multibeam vendor format
0089_20070928_000604_Amundsen.all.mb56.gz 15.79MB Simrad multibeam vendor format
0089_20071001_062705_Amundsen.all.mb56.gz 7.16MB Simrad multibeam vendor format
0089_20071007_081744_ShipName.all.mb56.gz 8.67MB Simrad multibeam vendor format
0089_20071011_012320_Amundsen.all.mb56.gz 7.41MB Simrad multibeam vendor format
0089_20071018_114740_Amundsen.all.mb56.gz 11.38MB Simrad multibeam vendor format
0089_20071022_084048_Amundsen.all.mb56.gz 18.17MB Simrad multibeam vendor format
0089_20071027_142717_Amundsen.all.mb56.gz 9.32MB Simrad multibeam vendor format
0089_20071101_060334_Amundsen.all.mb56.gz 10.51MB Simrad multibeam vendor format
0090_20070728_130133_Amundsen.all.mb56.gz 11.33MB Simrad multibeam vendor format
0090_20070801_180829_Amundsen.all.mb56.gz 13.85MB Simrad multibeam vendor format
0090_20070805_110942_Amundsen.all.mb56.gz 16.78MB Simrad multibeam vendor format
0090_20070807_072803_Amundsen.all.mb56.gz 19.61MB Simrad multibeam vendor format
0090_20070810_141435_Amundsen.all.mb56.gz 16.50MB Simrad multibeam vendor format
0090_20070813_104640_Amundsen.all.mb56.gz 18.80MB Simrad multibeam vendor format
0090_20070816_183946_Amundsen.all.mb56.gz 20.40MB Simrad multibeam vendor format
0090_20070827_050209_Amundsen.all.mb56.gz 16.29MB Simrad multibeam vendor format
0090_20070912_045104_Amundsen.all.mb56.gz 7.31MB Simrad multibeam vendor format
0090_20070928_003604_Amundsen.all.mb56.gz 15.10MB Simrad multibeam vendor format
0090_20071001_065705_Amundsen.all.mb56.gz 6.84MB Simrad multibeam vendor format
0090_20071007_084744_ShipName.all.mb56.gz 8.24MB Simrad multibeam vendor format
0090_20071011_015320_Amundsen.all.mb56.gz 7.50MB Simrad multibeam vendor format
0090_20071018_121740_Amundsen.all.mb56.gz 10.90MB Simrad multibeam vendor format
0090_20071022_091048_Amundsen.all.mb56.gz 21.01MB Simrad multibeam vendor format
0090_20071027_145717_Amundsen.all.mb56.gz 9.17MB Simrad multibeam vendor format
0090_20071101_063334_Amundsen.all.mb56.gz 10.80MB Simrad multibeam vendor format
0091_20070728_133133_Amundsen.all.mb56.gz 11.27MB Simrad multibeam vendor format
0091_20070801_183829_Amundsen.all.mb56.gz 14.43MB Simrad multibeam vendor format
0091_20070805_113942_Amundsen.all.mb56.gz 17.18MB Simrad multibeam vendor format
0091_20070807_075803_Amundsen.all.mb56.gz 19.83MB Simrad multibeam vendor format
0091_20070810_144435_Amundsen.all.mb56.gz 15.33MB Simrad multibeam vendor format
0091_20070813_111640_Amundsen.all.mb56.gz 20.36MB Simrad multibeam vendor format
0091_20070816_190946_Amundsen.all.mb56.gz 19.61MB Simrad multibeam vendor format
0091_20070827_053209_Amundsen.all.mb56.gz 16.04MB Simrad multibeam vendor format
0091_20070912_052104_Amundsen.all.mb56.gz 7.94MB Simrad multibeam vendor format
0091_20070928_010604_Amundsen.all.mb56.gz 14.91MB Simrad multibeam vendor format
0091_20071001_072705_Amundsen.all.mb56.gz 6.47MB Simrad multibeam vendor format
0091_20071007_091744_ShipName.all.mb56.gz 8.37MB Simrad multibeam vendor format
0091_20071011_022320_Amundsen.all.mb56.gz 6.53MB Simrad multibeam vendor format
0091_20071018_124740_Amundsen.all.mb56.gz 9.96MB Simrad multibeam vendor format
0091_20071022_094048_Amundsen.all.mb56.gz 21.67MB Simrad multibeam vendor format
0091_20071027_152717_Amundsen.all.mb56.gz 9.92MB Simrad multibeam vendor format
0091_20071101_070333_Amundsen.all.mb56.gz 11.10MB Simrad multibeam vendor format
0092_20070728_140133_Amundsen.all.mb56.gz 11.88MB Simrad multibeam vendor format
0092_20070801_190829_Amundsen.all.mb56.gz 6.91MB Simrad multibeam vendor format
0092_20070805_120942_Amundsen.all.mb56.gz 17.50MB Simrad multibeam vendor format
0092_20070807_082803_Amundsen.all.mb56.gz 20.21MB Simrad multibeam vendor format
0092_20070810_151435_Amundsen.all.mb56.gz 17.46MB Simrad multibeam vendor format
0092_20070813_114640_Amundsen.all.mb56.gz 21.95MB Simrad multibeam vendor format
0092_20070816_193946_Amundsen.all.mb56.gz 23.63MB Simrad multibeam vendor format
0092_20070827_060209_Amundsen.all.mb56.gz 15.46MB Simrad multibeam vendor format
0092_20070912_055104_Amundsen.all.mb56.gz 8.79MB Simrad multibeam vendor format
0092_20070928_013604_Amundsen.all.mb56.gz 13.87MB Simrad multibeam vendor format
0092_20071001_075705_Amundsen.all.mb56.gz 6.60MB Simrad multibeam vendor format
0092_20071007_094744_ShipName.all.mb56.gz 8.19MB Simrad multibeam vendor format
0092_20071011_025320_Amundsen.all.mb56.gz 7.15MB Simrad multibeam vendor format
0092_20071018_131741_Amundsen.all.mb56.gz 10.49MB Simrad multibeam vendor format
0092_20071022_101048_Amundsen.all.mb56.gz 18.02MB Simrad multibeam vendor format
0092_20071027_155717_Amundsen.all.mb56.gz 9.55MB Simrad multibeam vendor format
0092_20071101_073333_Amundsen.all.mb56.gz 11.19MB Simrad multibeam vendor format
0093_20070728_143133_Amundsen.all.mb56.gz 12.07MB Simrad multibeam vendor format
0093_20070801_192239_Amundsen.all.mb56.gz 17.67MB Simrad multibeam vendor format
0093_20070805_123942_Amundsen.all.mb56.gz 16.89MB Simrad multibeam vendor format
0093_20070807_085803_Amundsen.all.mb56.gz 26.27MB Simrad multibeam vendor format
0093_20070810_154435_Amundsen.all.mb56.gz 14.24MB Simrad multibeam vendor format
0093_20070813_121640_Amundsen.all.mb56.gz 22.66MB Simrad multibeam vendor format
0093_20070816_200946_Amundsen.all.mb56.gz 24.34MB Simrad multibeam vendor format
0093_20070827_063209_Amundsen.all.mb56.gz 14.37MB Simrad multibeam vendor format
0093_20070912_062104_Amundsen.all.mb56.gz 11.12MB Simrad multibeam vendor format
0093_20070928_020604_Amundsen.all.mb56.gz 12.66MB Simrad multibeam vendor format
0093_20071001_082705_Amundsen.all.mb56.gz 6.82MB Simrad multibeam vendor format
0093_20071007_101744_ShipName.all.mb56.gz 8.14MB Simrad multibeam vendor format
0093_20071011_032320_Amundsen.all.mb56.gz 7.83MB Simrad multibeam vendor format
0093_20071018_134740_Amundsen.all.mb56.gz 13.21MB Simrad multibeam vendor format
0093_20071022_111039_Amundsen.all.mb56.gz 23.28MB Simrad multibeam vendor format
0093_20071027_162717_Amundsen.all.mb56.gz 1.70MB Simrad multibeam vendor format
0093_20071101_080333_Amundsen.all.mb56.gz 10.78MB Simrad multibeam vendor format
0094_20070728_150133_Amundsen.all.mb56.gz 11.73MB Simrad multibeam vendor format
0094_20070801_195239_Amundsen.all.mb56.gz 13.78MB Simrad multibeam vendor format
0094_20070805_130942_Amundsen.all.mb56.gz 16.28MB Simrad multibeam vendor format
0094_20070807_092803_Amundsen.all.mb56.gz 30.28MB Simrad multibeam vendor format
0094_20070810_161435_Amundsen.all.mb56.gz 15.43MB Simrad multibeam vendor format
0094_20070813_124640_Amundsen.all.mb56.gz 24.73MB Simrad multibeam vendor format
0094_20070816_203946_Amundsen.all.mb56.gz 25.72MB Simrad multibeam vendor format
0094_20070827_070209_Amundsen.all.mb56.gz 14.35MB Simrad multibeam vendor format
0094_20070912_065104_Amundsen.all.mb56.gz 11.28MB Simrad multibeam vendor format
0094_20070928_023604_Amundsen.all.mb56.gz 13.45MB Simrad multibeam vendor format
0094_20071001_085705_Amundsen.all.mb56.gz 6.65MB Simrad multibeam vendor format
0094_20071007_104744_ShipName.all.mb56.gz 1.77MB Simrad multibeam vendor format
0094_20071011_035320_Amundsen.all.mb56.gz 7.00MB Simrad multibeam vendor format
0094_20071018_141740_Amundsen.all.mb56.gz 15.24MB Simrad multibeam vendor format
0094_20071022_114039_Amundsen.all.mb56.gz 23.58MB Simrad multibeam vendor format
0094_20071027_163728_Amundsen.all.mb56.gz 1.31MB Simrad multibeam vendor format
0094_20071101_083333_Amundsen.all.mb56.gz 10.37MB Simrad multibeam vendor format
0095_20070728_153133_Amundsen.all.mb56.gz 12.99MB Simrad multibeam vendor format
0095_20070801_202239_Amundsen.all.mb56.gz 22.30MB Simrad multibeam vendor format
0095_20070805_133942_Amundsen.all.mb56.gz 16.68MB Simrad multibeam vendor format
0095_20070807_095803_Amundsen.all.mb56.gz 32.77MB Simrad multibeam vendor format
0095_20070810_164435_Amundsen.all.mb56.gz 17.37MB Simrad multibeam vendor format
0095_20070813_131640_Amundsen.all.mb56.gz 27.61MB Simrad multibeam vendor format
0095_20070816_210946_Amundsen.all.mb56.gz 31.12MB Simrad multibeam vendor format
0095_20070827_073209_Amundsen.all.mb56.gz 14.88MB Simrad multibeam vendor format
0095_20070912_072104_Amundsen.all.mb56.gz 10.57MB Simrad multibeam vendor format
0095_20070928_030604_Amundsen.all.mb56.gz 14.76MB Simrad multibeam vendor format
0095_20071001_092705_Amundsen.all.mb56.gz 6.49MB Simrad multibeam vendor format
0095_20071007_113029_ShipName.all.mb56.gz 8.33MB Simrad multibeam vendor format
0095_20071011_042320_Amundsen.all.mb56.gz 7.67MB Simrad multibeam vendor format
0095_20071018_144740_Amundsen.all.mb56.gz 25.45MB Simrad multibeam vendor format
0095_20071022_121039_Amundsen.all.mb56.gz 23.96MB Simrad multibeam vendor format
0095_20071027_164741_Amundsen.all.mb56.gz 11.19MB Simrad multibeam vendor format
0095_20071101_090333_Amundsen.all.mb56.gz 1.50MB Simrad multibeam vendor format
0095_20071101_091034_Amundsen.all.mb56.gz 416.8KB Simrad multibeam vendor format
0095_20071101_091402_Amundsen.all.mb56.gz 10.91MB Simrad multibeam vendor format
0096_20070728_160133_Amundsen.all.mb56.gz 14.03MB Simrad multibeam vendor format
0096_20070801_205239_Amundsen.all.mb56.gz 22.69MB Simrad multibeam vendor format
0096_20070805_140942_Amundsen.all.mb56.gz 17.46MB Simrad multibeam vendor format
0096_20070807_102803_Amundsen.all.mb56.gz 0.89MB Simrad multibeam vendor format
0096_20070810_171435_Amundsen.all.mb56.gz 15.72MB Simrad multibeam vendor format
0096_20070813_134640_Amundsen.all.mb56.gz 28.58MB Simrad multibeam vendor format
0096_20070816_213946_Amundsen.all.mb56.gz 34.44MB Simrad multibeam vendor format
0096_20070827_080209_Amundsen.all.mb56.gz 17.03MB Simrad multibeam vendor format
0096_20070912_075104_Amundsen.all.mb56.gz 10.03MB Simrad multibeam vendor format
0096_20070928_033604_Amundsen.all.mb56.gz 15.11MB Simrad multibeam vendor format
0096_20071001_095705_Amundsen.all.mb56.gz 6.51MB Simrad multibeam vendor format
0096_20071007_120029_ShipName.all.mb56.gz 7.92MB Simrad multibeam vendor format
0096_20071011_045320_Amundsen.all.mb56.gz 10.69MB Simrad multibeam vendor format
0096_20071018_151740_Amundsen.all.mb56.gz 31.05MB Simrad multibeam vendor format
0096_20071022_124040_Amundsen.all.mb56.gz 21.46MB Simrad multibeam vendor format
0096_20071027_171741_Amundsen.all.mb56.gz 13.97MB Simrad multibeam vendor format
0096_20071101_094402_Amundsen.all.mb56.gz 10.76MB Simrad multibeam vendor format
0097_20070728_163133_Amundsen.all.mb56.gz 15.31MB Simrad multibeam vendor format
0097_20070801_212239_Amundsen.all.mb56.gz 12.23MB Simrad multibeam vendor format
0097_20070805_143942_Amundsen.all.mb56.gz 17.71MB Simrad multibeam vendor format
0097_20070810_174435_Amundsen.all.mb56.gz 16.08MB Simrad multibeam vendor format
0097_20070813_141640_Amundsen.all.mb56.gz 27.35MB Simrad multibeam vendor format
0097_20070816_220946_Amundsen.all.mb56.gz 28.92MB Simrad multibeam vendor format
0097_20070827_083209_Amundsen.all.mb56.gz 18.11MB Simrad multibeam vendor format
0097_20070912_082104_Amundsen.all.mb56.gz 9.95MB Simrad multibeam vendor format
0097_20070928_040604_Amundsen.all.mb56.gz 14.54MB Simrad multibeam vendor format
0097_20071001_102705_Amundsen.all.mb56.gz 6.89MB Simrad multibeam vendor format
0097_20071007_123037_ShipName.all.mb56.gz 8.24MB Simrad multibeam vendor format
0097_20071011_052320_Amundsen.all.mb56.gz 9.80MB Simrad multibeam vendor format
0097_20071018_154740_Amundsen.all.mb56.gz 18.49MB Simrad multibeam vendor format
0097_20071022_131040_Amundsen.all.mb56.gz 17.52MB Simrad multibeam vendor format
0097_20071027_174741_Amundsen.all.mb56.gz 12.80MB Simrad multibeam vendor format
0097_20071101_101402_Amundsen.all.mb56.gz 9.63MB Simrad multibeam vendor format
0098_20070728_170133_Amundsen.all.mb56.gz 18.21MB Simrad multibeam vendor format
0098_20070801_215239_Amundsen.all.mb56.gz 11.17MB Simrad multibeam vendor format
0098_20070805_150942_Amundsen.all.mb56.gz 16.81MB Simrad multibeam vendor format
0098_20070810_181435_Amundsen.all.mb56.gz 15.05MB Simrad multibeam vendor format
0098_20070813_144640_Amundsen.all.mb56.gz 25.72MB Simrad multibeam vendor format
0098_20070816_223946_Amundsen.all.mb56.gz 29.67MB Simrad multibeam vendor format
0098_20070827_090209_Amundsen.all.mb56.gz 19.27MB Simrad multibeam vendor format
0098_20070912_085104_Amundsen.all.mb56.gz 8.20MB Simrad multibeam vendor format
0098_20070928_043604_Amundsen.all.mb56.gz 13.10MB Simrad multibeam vendor format
0098_20071001_105705_Amundsen.all.mb56.gz 6.94MB Simrad multibeam vendor format
0098_20071007_130037_ShipName.all.mb56.gz 8.21MB Simrad multibeam vendor format
0098_20071011_055320_Amundsen.all.mb56.gz 6.95MB Simrad multibeam vendor format
0098_20071019_042013_Amundsen.all.mb56.gz 215.0KB Simrad multibeam vendor format
0098_20071022_134040_Amundsen.all.mb56.gz 10.07MB Simrad multibeam vendor format
0098_20071027_181741_Amundsen.all.mb56.gz 11.53MB Simrad multibeam vendor format
0098_20071101_104402_Amundsen.all.mb56.gz 10.72MB Simrad multibeam vendor format
0099_20070728_173133_Amundsen.all.mb56.gz 18.11MB Simrad multibeam vendor format
0099_20070801_222239_Amundsen.all.mb56.gz 11.73MB Simrad multibeam vendor format
0099_20070805_153942_Amundsen.all.mb56.gz 17.66MB Simrad multibeam vendor format
0099_20070810_184435_Amundsen.all.mb56.gz 17.44MB Simrad multibeam vendor format
0099_20070813_151640_Amundsen.all.mb56.gz 24.99MB Simrad multibeam vendor format
0099_20070816_230946_Amundsen.all.mb56.gz 32.14MB Simrad multibeam vendor format
0099_20070827_093209_Amundsen.all.mb56.gz 19.22MB Simrad multibeam vendor format
0099_20070912_092104_Amundsen.all.mb56.gz 10.51MB Simrad multibeam vendor format
0099_20070928_050604_Amundsen.all.mb56.gz 12.33MB Simrad multibeam vendor format
0099_20071001_112705_Amundsen.all.mb56.gz 6.94MB Simrad multibeam vendor format
0099_20071007_133037_ShipName.all.mb56.gz 8.45MB Simrad multibeam vendor format
0099_20071011_062320_Amundsen.all.mb56.gz 7.26MB Simrad multibeam vendor format
0099_20071019_042110_Amundsen.all.mb56.gz 1.96MB Simrad multibeam vendor format
0099_20071022_192301_Amundsen.all.mb56.gz 14.17MB Simrad multibeam vendor format
0099_20071027_184741_Amundsen.all.mb56.gz 11.03MB Simrad multibeam vendor format
0099_20071101_111402_Amundsen.all.mb56.gz 10.50MB Simrad multibeam vendor format
0100_20070728_180133_Amundsen.all.mb56.gz 19.57MB Simrad multibeam vendor format
0100_20070801_225239_Amundsen.all.mb56.gz 13.35MB Simrad multibeam vendor format
0100_20070805_160942_Amundsen.all.mb56.gz 18.36MB Simrad multibeam vendor format
0100_20070810_191435_Amundsen.all.mb56.gz 16.60MB Simrad multibeam vendor format
0100_20070813_154640_Amundsen.all.mb56.gz 24.32MB Simrad multibeam vendor format
0100_20070816_233946_Amundsen.all.mb56.gz 33.04MB Simrad multibeam vendor format
0100_20070827_100209_Amundsen.all.mb56.gz 19.21MB Simrad multibeam vendor format
0100_20070912_095104_Amundsen.all.mb56.gz 10.84MB Simrad multibeam vendor format
0100_20070928_053603_Amundsen.all.mb56.gz 11.39MB Simrad multibeam vendor format
0100_20071001_115705_Amundsen.all.mb56.gz 6.85MB Simrad multibeam vendor format
0100_20071007_140037_ShipName.all.mb56.gz 8.61MB Simrad multibeam vendor format
0100_20071011_065320_Amundsen.all.mb56.gz 8.18MB Simrad multibeam vendor format
0100_20071019_042804_Amundsen.all.mb56.gz 5.07MB Simrad multibeam vendor format
0100_20071022_195301_Amundsen.all.mb56.gz 14.12MB Simrad multibeam vendor format
0100_20071027_191741_Amundsen.all.mb56.gz 7.70MB Simrad multibeam vendor format
0100_20071101_114402_Amundsen.all.mb56.gz 11.00MB Simrad multibeam vendor format
0101_20070728_183133_Amundsen.all.mb56.gz 18.82MB Simrad multibeam vendor format
0101_20070801_232239_Amundsen.all.mb56.gz 14.95MB Simrad multibeam vendor format
0101_20070805_163942_Amundsen.all.mb56.gz 11.38MB Simrad multibeam vendor format
0101_20070810_194435_Amundsen.all.mb56.gz 14.84MB Simrad multibeam vendor format
0101_20070813_161640_Amundsen.all.mb56.gz 24.10MB Simrad multibeam vendor format
0101_20070817_000946_Amundsen.all.mb56.gz 32.17MB Simrad multibeam vendor format
0101_20070827_103208_Amundsen.all.mb56.gz 19.06MB Simrad multibeam vendor format
0101_20070912_102104_Amundsen.all.mb56.gz 11.13MB Simrad multibeam vendor format
0101_20070928_060604_Amundsen.all.mb56.gz 11.87MB Simrad multibeam vendor format
0101_20071001_122705_Amundsen.all.mb56.gz 6.79MB Simrad multibeam vendor format
0101_20071007_143037_ShipName.all.mb56.gz 8.73MB Simrad multibeam vendor format
0101_20071011_072320_Amundsen.all.mb56.gz 7.07MB Simrad multibeam vendor format
0101_20071019_043335_Amundsen.all.mb56.gz 27.60MB Simrad multibeam vendor format
0101_20071022_202301_Amundsen.all.mb56.gz 13.40MB Simrad multibeam vendor format
0101_20071027_194741_Amundsen.all.mb56.gz 5.41MB Simrad multibeam vendor format
0101_20071101_121402_Amundsen.all.mb56.gz 10.91MB Simrad multibeam vendor format
0102_20070728_190133_Amundsen.all.mb56.gz 16.20MB Simrad multibeam vendor format
0102_20070801_235239_Amundsen.all.mb56.gz 14.95MB Simrad multibeam vendor format
0102_20070805_165745_Amundsen.all.mb56.gz 15.42MB Simrad multibeam vendor format
0102_20070810_201435_Amundsen.all.mb56.gz 19.40MB Simrad multibeam vendor format
0102_20070813_164640_Amundsen.all.mb56.gz 23.61MB Simrad multibeam vendor format
0102_20070817_003946_Amundsen.all.mb56.gz 34.43MB Simrad multibeam vendor format
0102_20070827_110208_Amundsen.all.mb56.gz 19.67MB Simrad multibeam vendor format
0102_20070912_105104_Amundsen.all.mb56.gz 12.51MB Simrad multibeam vendor format
0102_20070928_063603_Amundsen.all.mb56.gz 12.11MB Simrad multibeam vendor format
0102_20071001_125705_Amundsen.all.mb56.gz 6.24MB Simrad multibeam vendor format
0102_20071007_150037_ShipName.all.mb56.gz 9.04MB Simrad multibeam vendor format
0102_20071011_075320_Amundsen.all.mb56.gz 8.43MB Simrad multibeam vendor format
0102_20071019_050335_Amundsen.all.mb56.gz 25.21MB Simrad multibeam vendor format
0102_20071022_223658_Amundsen.all.mb56.gz 14.39MB Simrad multibeam vendor format
0102_20071027_224442_Amundsen.all.mb56.gz 4.01MB Simrad multibeam vendor format
0102_20071101_124402_Amundsen.all.mb56.gz 10.71MB Simrad multibeam vendor format
0103_20070728_193133_Amundsen.all.mb56.gz 15.69MB Simrad multibeam vendor format
0103_20070802_002239_Amundsen.all.mb56.gz 15.33MB Simrad multibeam vendor format
0103_20070810_204435_Amundsen.all.mb56.gz 24.25MB Simrad multibeam vendor format
0103_20070813_171640_Amundsen.all.mb56.gz 23.72MB Simrad multibeam vendor format
0103_20070817_010946_Amundsen.all.mb56.gz 37.63MB Simrad multibeam vendor format
0103_20070827_113208_Amundsen.all.mb56.gz 19.36MB Simrad multibeam vendor format
0103_20070912_112104_Amundsen.all.mb56.gz 12.92MB Simrad multibeam vendor format
0103_20070928_070603_Amundsen.all.mb56.gz 11.67MB Simrad multibeam vendor format
0103_20071001_132705_Amundsen.all.mb56.gz 6.87MB Simrad multibeam vendor format
0103_20071007_153037_ShipName.all.mb56.gz 9.17MB Simrad multibeam vendor format
0103_20071011_082320_Amundsen.all.mb56.gz 9.60MB Simrad multibeam vendor format
0103_20071019_053335_Amundsen.all.mb56.gz 14.78MB Simrad multibeam vendor format
0103_20071022_230658_Amundsen.all.mb56.gz 13.57MB Simrad multibeam vendor format
0103_20071027_232504_Amundsen.all.mb56.gz 17.13MB Simrad multibeam vendor format
0103_20071101_131402_Amundsen.all.mb56.gz 10.23MB Simrad multibeam vendor format
0104_20070728_200133_Amundsen.all.mb56.gz 15.24MB Simrad multibeam vendor format
0104_20070802_005239_Amundsen.all.mb56.gz 16.29MB Simrad multibeam vendor format
0104_20070810_211435_Amundsen.all.mb56.gz 24.01MB Simrad multibeam vendor format
0104_20070813_174640_Amundsen.all.mb56.gz 22.59MB Simrad multibeam vendor format
0104_20070817_013946_Amundsen.all.mb56.gz 34.76MB Simrad multibeam vendor format
0104_20070827_120208_Amundsen.all.mb56.gz 18.51MB Simrad multibeam vendor format
0104_20070912_115104_Amundsen.all.mb56.gz 12.42MB Simrad multibeam vendor format
0104_20070928_073603_Amundsen.all.mb56.gz 11.21MB Simrad multibeam vendor format
0104_20071001_135705_Amundsen.all.mb56.gz 6.95MB Simrad multibeam vendor format
0104_20071007_160037_ShipName.all.mb56.gz 8.82MB Simrad multibeam vendor format
0104_20071011_085320_Amundsen.all.mb56.gz 10.63MB Simrad multibeam vendor format
0104_20071019_060335_Amundsen.all.mb56.gz 12.43MB Simrad multibeam vendor format
0104_20071022_233658_Amundsen.all.mb56.gz 13.89MB Simrad multibeam vendor format
0104_20071027_235504_Amundsen.all.mb56.gz 17.03MB Simrad multibeam vendor format
0104_20071101_134402_Amundsen.all.mb56.gz 10.41MB Simrad multibeam vendor format
0105_20070728_203133_Amundsen.all.mb56.gz 17.54MB Simrad multibeam vendor format
0105_20070802_012238_Amundsen.all.mb56.gz 15.48MB Simrad multibeam vendor format
0105_20070810_214435_Amundsen.all.mb56.gz 20.91MB Simrad multibeam vendor format
0105_20070813_181640_Amundsen.all.mb56.gz 21.88MB Simrad multibeam vendor format
0105_20070817_020946_Amundsen.all.mb56.gz 10.71MB Simrad multibeam vendor format
0105_20070827_123208_Amundsen.all.mb56.gz 17.95MB Simrad multibeam vendor format
0105_20070912_122103_Amundsen.all.mb56.gz 12.84MB Simrad multibeam vendor format
0105_20070928_080603_Amundsen.all.mb56.gz 9.30MB Simrad multibeam vendor format
0105_20071001_142705_Amundsen.all.mb56.gz 6.92MB Simrad multibeam vendor format
0105_20071007_163037_ShipName.all.mb56.gz 0.85MB Simrad multibeam vendor format
0105_20071011_092320_Amundsen.all.mb56.gz 11.11MB Simrad multibeam vendor format
0105_20071019_063335_Amundsen.all.mb56.gz 11.76MB Simrad multibeam vendor format
0105_20071023_000658_Amundsen.all.mb56.gz 13.97MB Simrad multibeam vendor format
0105_20071028_002504_Amundsen.all.mb56.gz 18.03MB Simrad multibeam vendor format
0105_20071101_141402_Amundsen.all.mb56.gz 10.20MB Simrad multibeam vendor format
0106_20070728_210133_Amundsen.all.mb56.gz 17.12MB Simrad multibeam vendor format
0106_20070802_015238_Amundsen.all.mb56.gz 14.62MB Simrad multibeam vendor format
0106_20070810_221435_Amundsen.all.mb56.gz 23.93MB Simrad multibeam vendor format
0106_20070813_184640_Amundsen.all.mb56.gz 21.90MB Simrad multibeam vendor format
0106_20070827_130208_Amundsen.all.mb56.gz 17.47MB Simrad multibeam vendor format
0106_20070912_125103_Amundsen.all.mb56.gz 13.09MB Simrad multibeam vendor format
0106_20070928_083603_Amundsen.all.mb56.gz 8.88MB Simrad multibeam vendor format
0106_20071001_145704_Amundsen.all.mb56.gz 6.89MB Simrad multibeam vendor format
0106_20071007_163330_ShipName.all.mb56.gz 4.92MB Simrad multibeam vendor format
0106_20071011_095320_Amundsen.all.mb56.gz 11.55MB Simrad multibeam vendor format
0106_20071019_070335_Amundsen.all.mb56.gz 1.84MB Simrad multibeam vendor format
0106_20071023_003659_Amundsen.all.mb56.gz 13.70MB Simrad multibeam vendor format
0106_20071028_005504_Amundsen.all.mb56.gz 19.73MB Simrad multibeam vendor format
0106_20071101_144402_Amundsen.all.mb56.gz 10.90MB Simrad multibeam vendor format
0107_20070728_213133_Amundsen.all.mb56.gz 18.92MB Simrad multibeam vendor format
0107_20070802_022238_Amundsen.all.mb56.gz 14.11MB Simrad multibeam vendor format
0107_20070810_224435_Amundsen.all.mb56.gz 19.32MB Simrad multibeam vendor format
0107_20070813_191640_Amundsen.all.mb56.gz 22.88MB Simrad multibeam vendor format
0107_20070827_133208_Amundsen.all.mb56.gz 17.62MB Simrad multibeam vendor format
0107_20070912_132103_Amundsen.all.mb56.gz 14.12MB Simrad multibeam vendor format
0107_20070928_090603_Amundsen.all.mb56.gz 8.72MB Simrad multibeam vendor format
0107_20071001_152704_Amundsen.all.mb56.gz 6.90MB Simrad multibeam vendor format
0107_20071007_165324_ShipName.all.mb56.gz 3.09MB Simrad multibeam vendor format
0107_20071011_102320_Amundsen.all.mb56.gz 10.07MB Simrad multibeam vendor format
0107_20071019_074500_Amundsen.all.mb56.gz 8.10MB Simrad multibeam vendor format
0107_20071023_010658_Amundsen.all.mb56.gz 13.77MB Simrad multibeam vendor format
0107_20071028_012504_Amundsen.all.mb56.gz 20.88MB Simrad multibeam vendor format
0107_20071101_151402_Amundsen.all.mb56.gz 10.61MB Simrad multibeam vendor format
0108_20070728_220133_Amundsen.all.mb56.gz 16.70MB Simrad multibeam vendor format
0108_20070802_025238_Amundsen.all.mb56.gz 14.86MB Simrad multibeam vendor format
0108_20070810_231435_Amundsen.all.mb56.gz 11.80MB Simrad multibeam vendor format
0108_20070813_194640_Amundsen.all.mb56.gz 23.58MB